ECMWFNIL_500_spd_000.txt.gz
Wind_Speed
20 20 21 23 24 25 25 26 27 27 27 27 27 27 27 26 24 23 23 23 24 25 26 28 30 31 32 32 32 33 33 33 34 34 35 36 37 37 38 39 40 40
21 20 21 22 23 25 25 26 27 27 26 25 25 26 26 25 24 23 24 24 24 26 27 29 30 31 32 32 33 33 33 34 34 35 36 37 38 39 39 39 39 39
21 21 21 22 23 24 25 27 27 27 25 23 24 25 24 23 22 23 24 25 25 26 28 29 31 32 32 33 33 33 34 34 35 36 37 38 39 40 39 39 39 39
22 21 21 22 23 24 24 26 27 25 23 22 23 23 23 22 22 22 24 25 26 27 28 30 32 33 34 34 34 34 34 34 36 36 37 38 39 40 38 38 39 40
22 21 21 22 23 24 25 25 25 24 22 22 22 22 23 23 22 23 24 26 26 27 28 30 32 33 34 35 35 35 35 36 36 37 37 38 39 40 38 38 39 40
23 21 21 22 23 24 24 24 24 23 22 22 22 22 23 24 24 25 26 27 28 28 28 30 32 34 35 37 37 37 36 36 37 38 39 39 40 41 41 41 42 42
25 24 23 22 23 24 24 24 24 23 22 21 22 23 24 25 27 27 28 29 29 29 30 32 34 35 36 38 39 39 39 38 39 39 40 41 42 43 43 44 44 45
27 25 23 22 24 25 25 24 24 24 22 22 22 23 25 27 28 29 30 30 30 30 31 33 34 35 37 39 40 41 42 42 41 41 42 43 44 44 45 45 45 46
28 27 25 25 26 27 27 26 25 24 23 23 23 24 26 28 29 30 31 32 32 32 32 33 35 37 39 41 42 43 43 43 43 43 44 45 45 46 46 45 46 47
29 29 29 29 29 29 29 27 25 23 23 24 25 26 28 30 31 32 32 33 33 33 33 35 36 38 40 41 42 43 44 44 45 45 46 47 47 47 47 47 47 48
28 29 32 32 31 31 31 28 25 25 25 26 27 29 30 32 33 33 33 33 34 34 35 37 38 39 40 41 42 43 44 44 46 47 48 48 48 48 48 49 49 49
28 29 33 33 31 32 32 30 28 27 28 28 30 31 33 34 34 33 33 34 35 36 38 39 39 40 41 43 43 44 44 45 47 49 50 50 50 49 50 50 50 50
31 32 33 32 31 32 31 31 31 30 30 31 32 33 34 35 35 34 35 36 37 39 40 41 41 41 43 44 44 45 46 47 48 50 51 51 51 50 50 50 50 50
32 32 32 30 31 32 33 33 33 31 31 33 34 35 36 36 36 36 38 39 39 40 41 42 42 42 44 45 46 47 48 47 48 49 50 51 51 51 50 49 49 47
32 31 33 32 31 33 35 36 34 32 33 34 35 36 36 37 38 39 40 41 40 40 41 41 42 44 45 46 47 49 49 48 48 49 50 51 51 50 49 47 45 42
34 32 32 32 32 34 37 38 35 32 34 36 36 36 37 38 39 40 41 41 41 40 40 41 43 45 46 47 48 49 49 49 48 49 50 49 49 48 46 44 42 39
35 33 31 30 31 36 39 39 35 33 35 37 37 36 38 39 40 41 42 41 41 41 41 43 45 46 47 48 49 50 50 49 48 48 48 47 47 47 45 43 42 40
36 34 31 31 33 37 38 35 34 34 36 37 37 37 38 40 41 42 42 41 41 42 43 45 46 47 47 48 49 49 50 49 47 47 47 47 47 46 45 44 44 42
37 35 32 32 34 35 34 33 33 34 36 38 38 38 39 41 41 42 42 41 41 43 45 46 45 46 46 47 48 49 49 49 48 47 47 47 46 46 46 45 44 43
37 37 35 34 34 34 33 33 34 35 37 38 38 38 39 40 42 43 41 40 44 47 46 42 41 44 45 46 48 48 48 48 47 47 47 46 46 46 45 45 44 43
36 37 37 34 32 33 34 34 35 35 37 38 38 39 39 39 42 42 40 41 46 45 40 39 43 46 47 47 48 48 47 46 46 46 46 47 47 47 46 45 44 43
33 36 36 33 32 34 36 36 35 35 36 38 39 38 37 38 42 42 39 41 42 39 40 47 51 50 49 49 49 48 46 45 45 45 46 47 48 48 47 45 44 43
32 33 34 34 35 37 37 36 36 35 36 38 38 37 36 39 42 42 41 43 43 43 47 51 51 50 51 51 50 48 47 46 45 45 45 46 47 47 47 45 45 43
32 33 34 36 38 38 36 36 35 34 36 37 37 36 37 41 43 43 44 46 46 48 50 49 49 53 54 52 51 50 48 47 46 45 45 45 45 46 46 45 45 44
34 36 37 39 39 37 35 34 34 35 36 37 36 37 40 43 44 44 46 48 48 49 50 51 53 55 55 53 52 50 49 48 47 46 45 45 45 45 45 45 45 44
37 38 38 39 39 37 34 34 34 36 37 37 38 39 41 43 44 45 47 49 49 50 50 52 54 55 54 53 51 50 49 49 47 46 45 44 44 44 44 44 44 44

ECMWFNIL_500_spd_003.txt.gz
Wind_Speed
19 20 21 21 21 21 22 23 25 26 26 27 28 28 28 28 27 26 26 25 24 22 21 22 23 24 25 27 28 30 31 33 34 35 35 35 35 35 34 34 35 36
19 21 22 21 20 20 21 23 25 26 27 28 28 28 27 26 26 25 25 24 23 23 22 22 24 26 27 29 30 31 33 34 35 36 37 37 37 37 36 36 37 38
21 22 23 23 22 21 20 22 23 25 27 28 28 27 26 26 26 26 24 23 23 23 23 24 26 27 29 30 31 32 34 35 36 36 37 38 38 38 38 37 38 39
24 25 26 25 24 23 21 21 23 25 27 27 27 27 27 26 27 26 25 24 24 24 25 26 27 29 30 31 32 33 34 35 36 37 39 39 39 40 39 38 38 39
26 26 28 28 26 25 24 24 24 26 28 28 27 27 27 27 27 27 26 25 25 25 26 27 29 30 31 32 33 35 36 36 37 38 40 40 40 40 40 40 40 40
29 29 30 30 29 27 26 26 27 28 28 28 27 27 27 28 28 28 27 26 26 26 27 28 30 30 31 33 34 36 36 37 38 40 41 41 41 41 41 41 42 43
30 33 32 31 31 29 26 25 27 28 27 27 27 27 27 29 29 29 28 28 28 27 28 29 30 31 32 33 35 36 37 38 40 41 41 41 41 41 42 43 44 45
31 33 33 33 33 31 27 25 26 28 28 29 29 28 28 29 29 29 29 29 29 30 30 31 31 31 33 35 36 37 38 40 42 42 41 40 40 41 43 45 46 46
32 34 34 34 34 31 29 29 30 31 30 30 31 30 29 29 29 29 29 29 30 32 32 32 32 33 34 36 37 38 39 41 43 42 41 41 41 42 44 46 46 46
35 36 36 35 33 31 32 33 33 33 32 32 33 32 31 30 29 29 29 30 31 33 33 33 33 34 36 37 39 39 40 42 42 43 42 42 42 44 45 46 46 46
37 38 38 37 33 31 34 35 34 33 33 33 34 33 31 31 30 29 29 30 32 33 34 34 34 36 38 39 39 40 40 41 42 42 43 43 44 45 46 46 47 48
39 40 39 38 34 33 35 36 35 34 33 34 35 34 32 31 30 29 29 30 32 33 34 35 36 37 38 39 40 39 39 40 41 42 43 43 44 45 46 47 48 48
40 41 40 38 37 35 36 37 37 35 33 34 37 37 35 32 30 29 31 32 33 34 34 36 37 38 39 39 39 38 39 41 41 42 43 43 44 46 47 48 48 46
42 43 43 40 38 38 38 38 37 35 34 36 38 37 35 33 31 31 32 33 34 35 36 37 38 39 39 38 38 40 42 42 40 41 42 43 45 46 48 47 46 45
42 44 45 43 40 38 38 40 38 35 34 35 35 35 34 33 32 32 33 35 35 36 37 38 39 39 37 38 41 42 39 38 39 41 43 45 47 47 47 46 45 44
42 45 46 43 40 39 40 41 39 35 34 35 34 33 33 32 32 33 35 36 37 37 37 38 38 37 37 38 38 36 34 38 43 45 45 47 48 47 45 44 43 42
43 47 46 41 39 40 40 40 38 35 34 34 33 32 31 31 32 34 35 36 38 38 38 37 37 36 36 36 35 35 40 45 47 45 46 48 48 46 44 43 42 42
46 47 45 42 42 42 40 38 36 37 36 34 32 30 31 32 33 33 34 36 38 39 38 37 36 37 36 37 38 42 45 46 45 46 48 48 47 46 44 43 42 42
46 45 44 45 44 44 45 42 39 39 40 37 33 30 31 33 33 33 34 36 39 40 38 37 38 39 38 39 41 44 46 47 47 48 48 48 47 47 45 44 43 43
43 44 45 46 46 47 48 44 41 41 40 37 33 31 32 33 33 33 34 36 39 39 38 38 40 41 41 41 43 46 48 49 49 49 48 48 48 47 46 45 45 44
43 44 45 47 47 47 48 47 43 39 35 34 33 32 32 33 33 34 35 37 38 37 37 39 41 42 42 43 45 47 49 50 49 49 48 48 47 47 46 46 45 44
46 44 44 46 47 49 53 50 40 33 31 33 35 34 34 34 34 34 35 37 37 37 39 41 42 41 42 44 46 49 50 50 49 48 48 47 47 47 46 45 44 42
49 46 46 47 46 49 51 43 32 30 31 33 35 36 35 34 33 34 36 37 36 37 38 39 40 40 42 45 48 49 50 49 48 48 48 47 47 47 46 45 43 42
48 45 46 46 42 40 38 31 28 31 34 35 36 36 34 33 33 35 36 36 36 37 37 39 42 44 46 47 48 49 49 48 48 48 48 47 47 46 45 43 43 42
41 38 41 41 36 32 30 30 32 37 39 38 35 33 32 32 33 35 35 35 36 39 39 41 44 46 47 48 49 48 48 49 49 48 47 47 46 45 43 42 42 42
36 34 36 38 35 30 31 33 34 36 34 31 31 33 32 32 33 34 34 34 36 39 40 43 45 47 48 49 49 48 49 49 48 48 47 46 45 43 42 41 42 42

ECMWFNIL_500_spd_006.txt.gz
Wind_Speed
19 20 20 20 21 22 23 24 25 26 27 28 28 27 27 26 25 24 24 24 24 24 24 25 25 24 23 23 23 24 25 26 27 29 30 31 32 32 32 33 33 33
18 19 20 20 21 22 22 23 24 25 27 29 29 28 28 27 27 27 26 25 24 24 25 26 26 26 25 25 25 25 26 27 28 29 30 32 33 33 33 34 35 34
19 19 20 21 22 23 23 23 24 25 26 28 29 28 27 28 28 28 27 26 24 24 25 27 28 27 27 27 27 26 27 28 29 30 31 33 34 35 35 35 35 34
22 22 21 22 23 23 24 25 25 25 25 27 28 27 26 26 27 28 28 26 24 24 25 27 28 29 29 28 28 28 28 28 29 31 32 34 36 36 36 36 35 34
22 24 24 24 24 24 26 27 28 27 26 27 28 27 25 25 26 27 27 27 26 25 25 27 29 30 29 29 29 29 29 29 30 32 33 35 36 37 37 36 35 34
22 23 24 25 26 28 28 28 29 30 29 28 27 26 25 25 26 27 27 27 27 25 25 27 29 30 30 30 30 30 29 30 31 33 34 35 36 37 37 37 36 34
25 25 25 26 28 31 32 32 31 31 31 28 26 26 26 27 29 30 28 28 28 27 26 27 28 29 30 30 30 30 29 30 32 33 34 35 36 37 38 37 36 35
29 29 28 29 29 31 33 34 34 33 32 29 27 27 28 29 31 31 30 28 28 28 27 27 28 29 30 30 30 29 29 31 32 33 34 34 35 37 38 38 37 37
32 33 32 32 31 32 34 35 35 35 33 31 30 30 30 31 32 33 32 29 28 28 28 28 28 29 30 30 30 30 30 32 32 33 34 34 35 38 39 38 37 37
33 34 34 33 32 33 35 36 36 36 34 32 33 33 32 32 33 35 34 30 28 29 29 29 29 29 30 30 30 30 31 31 32 33 34 35 38 40 39 37 36 38
33 35 35 35 34 34 36 38 38 38 36 33 34 35 34 33 33 36 36 32 30 31 31 30 30 30 31 30 30 31 31 31 31 32 34 36 38 37 35 35 38 41
35 36 37 37 37 37 38 38 38 38 36 33 34 36 36 35 34 35 36 34 33 33 32 32 32 31 31 31 32 32 31 31 32 32 33 33 33 33 35 38 41 42
35 37 40 41 40 41 40 39 38 38 36 34 34 36 37 36 35 35 35 34 33 34 35 34 33 32 33 33 33 33 31 31 32 32 32 32 33 37 40 41 43 44
36 39 42 42 41 42 42 43 43 42 40 38 37 36 37 37 36 35 34 33 32 34 35 34 33 33 34 34 34 34 32 31 32 32 33 34 37 40 42 43 45 45
38 42 42 41 43 45 43 45 45 43 43 44 42 39 37 38 37 34 33 32 32 33 34 34 35 34 34 35 35 35 33 33 34 35 36 37 39 42 44 46 46 45
40 43 41 42 47 45 41 43 44 42 42 45 47 44 38 35 34 33 31 31 31 31 33 34 35 35 34 35 36 36 35 35 37 38 39 40 41 44 47 48 47 45
40 41 39 41 45 44 41 42 42 41 43 47 50 50 44 37 33 32 32 33 32 32 34 35 35 36 35 35 36 36 35 36 38 39 40 40 43 46 48 48 47 45
42 43 42 43 45 45 45 43 40 40 44 47 50 51 51 45 39 36 37 38 37 36 36 35 35 36 36 35 35 35 34 36 38 37 38 41 44 47 47 47 46 45
44 46 47 49 49 48 48 47 45 46 47 47 48 49 52 49 43 41 42 42 40 39 36 35 37 37 36 35 35 35 35 36 36 36 40 43 45 46 46 45 45 45
47 48 51 53 51 50 51 50 49 51 54 54 53 52 53 53 47 42 41 39 37 37 36 37 38 37 36 36 36 36 35 35 36 38 42 44 46 47 46 45 45 45
50 51 53 53 51 50 50 49 48 51 53 54 57 57 55 51 44 38 37 36 35 35 35 38 38 37 37 36 36 36 36 35 37 41 43 44 45 47 46 45 45 44
51 52 52 54 54 50 46 45 47 49 48 50 57 57 49 41 35 32 35 38 37 35 35 37 37 36 36 36 37 38 37 37 40 43 43 43 44 46 46 45 44 44
52 51 51 53 55 52 48 46 44 45 49 54 52 41 31 27 27 30 37 40 37 34 34 35 34 34 34 35 37 37 37 39 43 44 43 44 45 46 45 45 44 43
52 52 51 51 52 52 50 44 40 44 51 50 38 27 24 26 29 32 36 37 34 34 35 33 32 33 33 34 36 37 39 42 43 43 43 44 46 46 45 44 44 43
53 53 51 49 49 48 46 42 39 41 42 35 28 30 33 35 33 31 31 32 35 37 37 33 32 32 31 32 35 38 41 42 41 42 43 45 45 45 44 44 44 44
55 52 48 46 43 41 42 42 38 36 36 36 37 39 39 37 32 28 29 33 34 35 35 33 32 30 29 32 36 39 40 40 41 42 44 44 44 44 44 44 44 43

ECMWFNIL_500_spd_009.txt.gz
Wind_Speed
16 16 16 16 17 17 17 17 18 18 18 19 20 20 20 20 21 21 22 22 21 21 21 21 21 21 21 20 20 20 21 22 22 22 22 23 23 23 23 24 26 27
15 15 16 16 16 17 18 18 18 18 18 19 21 21 21 21 22 23 24 24 23 21 21 21 22 23 23 23 23 22 22 24 24 24 24 24 24 24 24 25 26 27
15 16 17 17 17 17 18 19 19 19 18 19 20 21 21 22 23 24 25 25 24 22 22 22 23 24 25 26 25 24 24 25 26 25 25 25 25 25 25 26 27 27
16 17 18 19 19 19 20 20 21 21 20 21 21 21 22 23 23 24 25 25 25 24 23 24 24 25 26 27 27 26 26 26 27 27 26 26 26 26 26 27 27 26
17 18 19 20 22 22 23 23 24 24 24 24 24 24 23 23 23 24 25 26 26 27 26 26 25 26 27 27 28 28 28 28 28 28 28 27 27 26 26 26 26 26
17 19 20 22 23 24 24 24 24 26 28 29 28 28 27 25 24 25 26 27 28 29 30 28 26 26 27 28 29 30 30 30 30 30 29 28 28 27 27 26 25 26
19 21 22 23 24 24 24 24 23 25 29 31 30 30 30 28 27 26 27 28 29 31 32 30 28 27 27 27 28 30 30 30 31 30 30 30 29 28 28 26 25 27
21 22 23 25 25 25 24 25 25 27 30 32 33 34 33 31 31 31 29 29 30 31 33 33 30 28 28 28 28 29 30 30 30 31 31 31 30 29 28 26 25 27
23 24 26 27 27 27 27 27 27 27 29 31 34 36 36 35 36 35 32 30 31 32 33 34 33 32 30 30 29 29 31 31 31 31 31 31 31 29 27 25 25 26
25 27 29 29 28 29 31 31 30 29 30 31 33 37 38 40 41 38 34 32 33 34 34 34 35 35 34 32 31 30 31 32 32 32 32 31 30 29 26 25 25 27
28 30 32 31 31 32 34 35 34 33 32 32 33 37 39 41 43 42 39 38 36 36 35 35 35 36 36 34 32 31 30 31 33 33 33 31 30 28 26 25 26 29
30 32 32 32 33 35 37 38 38 38 37 35 34 36 38 41 43 44 44 44 42 39 37 36 36 37 36 34 32 31 30 30 31 32 32 31 29 28 28 28 29 32
31 30 30 30 31 32 33 36 37 37 38 37 37 38 40 41 42 45 47 47 45 44 42 40 38 38 38 35 33 32 30 30 30 31 31 30 29 29 30 31 32 34
30 29 30 32 33 32 30 32 34 33 34 36 37 38 39 41 41 44 48 48 45 45 46 44 40 39 38 36 34 32 32 31 30 30 31 30 30 30 30 31 32 34
29 30 33 37 42 42 38 37 36 34 34 36 38 40 41 43 43 43 47 48 46 47 49 46 41 40 38 35 33 33 34 33 32 32 32 31 30 29 29 31 33 34
30 32 35 40 46 48 45 43 41 38 37 40 44 45 44 45 46 47 48 49 48 50 52 49 44 40 36 33 34 35 36 35 34 34 33 31 29 29 31 33 34 35
31 33 36 41 47 51 49 46 42 40 41 43 44 45 44 43 44 45 49 54 55 53 53 53 48 39 33 34 37 38 38 37 36 35 33 31 29 30 32 34 34 36
34 35 38 43 49 53 52 46 42 42 44 43 43 44 43 43 42 41 46 54 57 56 53 51 48 40 36 38 40 39 38 37 36 35 33 31 29 30 32 34 36 38
37 38 41 46 50 53 51 46 42 43 44 44 45 44 43 44 44 43 46 50 51 53 51 47 43 40 39 41 41 38 37 37 36 35 32 30 30 30 32 35 38 40
39 40 43 47 51 53 53 50 47 45 46 48 49 46 45 46 45 46 50 48 44 44 42 38 37 37 40 43 41 37 36 36 36 35 31 29 30 31 32 35 37 38
40 41 44 48 51 52 53 53 52 51 51 51 48 46 47 47 45 45 45 42 39 39 36 31 32 37 42 44 41 36 34 34 35 33 29 28 29 31 32 33 35 35
41 43 46 49 50 51 52 52 54 54 52 49 48 49 47 43 40 38 33 32 37 40 35 30 33 38 41 43 42 37 33 32 33 30 27 27 29 31 31 32 34 35
44 45 48 50 51 51 52 52 53 53 50 48 47 45 39 35 36 35 30 30 34 33 30 30 33 38 41 43 41 35 30 31 30 27 25 27 30 31 32 33 35 37
47 49 51 52 52 51 51 52 53 51 48 45 41 38 36 37 38 35 32 32 31 30 30 31 33 37 40 38 35 32 31 32 28 25 26 29 32 33 34 34 36 37
49 52 54 54 53 52 50 51 51 50 46 41 38 39 41 42 39 35 34 33 32 33 36 33 33 37 38 35 32 30 30 29 25 25 29 33 35 36 36 37 38 38
51 53 54 54 53 50 47 48 49 48 43 38 37 40 41 40 38 36 35 35 35 37 36 30 30 34 34 32 30 29 27 26 26 30 35 38 40 40 40 41 41 41

ECMWFNIL_500_spd_012.txt.gz
Wind_Speed
12 12 12 12 12 12 13 13 13 14 14 14 14 15 16 17 17 18 18 18 18 19 20 20 20 20 20 20 20 21 22 22 22 22 23 23 23 23 23 23 24 24
12 12 12 12 12 13 13 13 14 15 15 15 15 16 17 19 20 21 22 22 22 22 22 22 22 22 22 22 22 23 24 24 24 23 24 24 25 25 25 25 25 25
12 13 13 13 13 13 13 13 14 16 17 17 17 17 18 20 21 23 24 24 24 25 24 24 24 24 24 25 26 27 27 27 26 25 25 25 26 26 26 26 26 26
14 14 14 14 15 15 15 16 17 18 18 18 19 19 20 21 22 23 24 24 24 25 26 26 26 26 27 28 29 29 29 29 28 28 27 27 27 27 27 27 27 27
14 15 15 16 16 17 18 19 20 21 21 21 20 21 23 25 25 25 26 25 25 27 27 27 27 28 29 30 31 30 30 30 29 29 28 28 28 28 28 28 28 27
15 16 17 17 18 20 20 21 22 24 24 23 22 23 25 27 29 30 30 29 29 30 29 29 29 30 31 33 33 32 31 31 30 29 29 29 29 28 28 28 28 28
16 17 18 19 20 21 21 22 23 24 25 25 25 26 27 28 30 32 32 32 33 34 32 32 33 34 34 34 35 34 33 33 32 31 30 30 30 29 28 28 29 28
18 18 18 20 22 22 23 22 22 24 26 26 28 29 30 31 31 32 33 34 35 36 34 35 38 39 37 35 36 36 36 36 36 34 33 32 32 30 29 29 29 28
18 18 19 21 23 23 23 23 23 24 25 27 29 31 33 34 34 34 35 36 37 36 35 37 39 41 41 40 38 38 38 38 38 37 36 35 33 31 29 29 29 29
17 18 20 20 21 20 21 22 23 25 27 29 31 31 33 35 36 36 36 37 36 35 37 39 39 40 42 43 43 42 42 41 40 39 38 37 35 32 29 29 29 29
18 18 18 19 19 20 23 25 26 27 29 30 30 31 33 36 37 34 33 34 35 36 39 41 41 41 42 44 47 48 47 45 42 40 39 38 36 34 30 29 29 29
17 17 18 20 23 25 28 31 32 31 31 33 36 37 38 40 41 37 36 38 40 40 40 42 44 45 44 46 50 51 51 51 48 42 38 38 37 36 33 30 29 30
16 18 20 24 27 28 30 31 31 33 36 40 43 44 43 43 42 38 38 41 42 41 40 40 43 45 46 48 51 52 54 56 54 45 37 37 38 38 35 32 31 32
18 20 23 27 29 29 33 36 35 37 39 39 40 40 39 37 35 35 38 40 40 41 40 40 42 45 47 48 50 53 56 59 56 45 36 36 39 39 37 35 34 35
20 23 25 29 30 31 35 37 34 33 34 33 33 36 36 35 34 35 39 40 41 42 41 40 41 45 48 49 51 56 61 62 56 45 38 38 39 39 37 36 36 37
22 25 27 30 32 33 35 35 31 29 31 32 33 35 37 38 38 39 41 40 40 41 38 36 38 41 44 46 47 51 57 60 56 46 42 42 40 38 38 37 37 38
23 26 28 30 32 34 35 35 34 34 35 36 37 37 39 40 40 40 40 38 38 37 33 31 33 34 35 37 38 39 44 50 52 48 46 44 42 40 39 37 35 37
25 27 29 31 33 36 38 38 38 39 40 42 44 44 44 43 40 40 40 39 36 32 29 30 30 28 29 31 31 31 32 37 46 51 48 43 41 41 40 36 34 36
26 28 31 33 35 38 41 42 43 43 44 46 47 48 47 44 41 41 41 37 30 26 26 28 27 26 28 28 28 29 30 31 39 47 48 43 41 41 40 36 35 36
27 29 32 34 36 39 41 43 45 46 47 48 49 49 48 44 40 39 38 33 28 26 26 26 25 26 29 28 27 29 30 31 32 38 43 44 43 42 40 36 35 35
29 31 33 36 37 39 41 44 46 47 48 49 49 48 46 41 37 37 36 34 32 29 26 24 25 26 27 28 29 31 32 31 29 32 40 44 43 41 38 35 34 32
31 32 35 36 38 39 41 43 45 46 48 48 47 46 43 39 37 36 35 34 32 29 26 25 25 26 27 30 33 34 33 30 27 31 40 44 42 38 35 34 33 30
34 35 37 38 40 41 42 43 44 46 47 46 44 42 41 39 37 35 34 33 32 30 28 26 25 26 28 30 31 31 29 27 26 33 42 44 38 33 31 32 31 28
37 40 42 43 44 45 45 44 45 45 45 44 42 40 40 40 37 34 31 31 31 29 27 26 26 26 27 28 28 27 25 24 26 33 39 38 32 29 29 30 30 30
38 41 45 47 49 49 49 46 44 44 43 43 41 41 41 41 39 35 31 30 30 29 27 27 27 27 28 29 29 29 26 24 26 33 35 31 27 27 28 30 32 34
40 43 47 49 51 52 52 48 44 43 43 42 42 42 41 40 38 35 32 30 29 28 28 29 29 29 30 30 29 29 28 25 26 31 31 27 25 26 28 31 34 38

ECMWFNIL_500_spd_015.txt.gz
Wind_Speed
15 14 14 15 16 15 14 13 12 13 13 13 14 15 16 16 17 17 18 20 20 20 20 20 20 20 21 22 23 24 25 25 25 25 25 26 27 28 28 29 29 29
15 15 15 15 15 14 13 12 13 13 14 14 15 16 17 17 18 18 19 21 22 23 23 23 24 24 24 25 25 25 26 27 28 28 29 29 31 32 32 31 30 31
15 15 15 15 14 13 13 13 14 14 15 16 17 17 18 18 19 20 20 22 24 24 26 27 28 28 28 28 29 28 28 28 29 31 31 31 32 33 34 34 33 32
16 16 15 14 14 13 13 14 15 16 16 16 17 18 18 18 19 20 21 23 25 26 27 29 30 31 31 32 32 32 31 31 32 34 34 34 33 33 34 35 35 34
16 15 15 14 14 14 14 15 16 17 18 18 18 19 20 21 21 22 23 25 27 28 29 31 31 31 32 34 35 35 35 35 34 36 37 36 36 34 33 34 35 35
16 15 15 15 14 15 15 16 17 18 20 20 20 21 23 23 24 25 26 29 30 30 32 33 35 36 36 36 38 39 39 38 37 38 40 41 40 38 36 35 35 37
16 16 15 15 14 15 15 17 19 20 22 22 22 23 24 25 27 28 28 30 32 32 33 34 36 38 36 36 37 39 39 38 38 40 42 43 43 42 41 39 38 38
17 16 15 15 15 15 16 19 21 22 22 22 22 24 25 26 29 29 29 33 37 37 36 36 35 34 34 35 37 37 36 36 39 41 42 43 44 45 47 47 45 42
16 15 15 15 16 17 19 20 21 22 21 22 25 27 27 28 30 31 33 36 38 37 36 34 33 32 33 35 36 36 36 37 39 40 41 43 44 46 48 51 52 48
15 14 15 16 18 18 18 19 20 21 22 24 28 30 30 30 31 31 32 33 32 31 31 30 30 32 33 35 35 35 37 38 39 40 41 42 44 46 47 49 53 53
14 14 16 18 19 17 16 17 19 20 21 24 26 26 26 27 27 26 27 29 29 30 31 31 32 33 34 35 36 37 38 39 39 40 40 42 45 47 48 50 54 54
14 16 18 18 18 15 14 15 18 20 21 23 22 21 22 23 25 27 29 31 32 33 33 33 33 34 35 35 35 36 37 38 39 38 40 44 46 47 50 54 57 54
17 18 18 17 16 15 14 15 18 20 21 23 23 23 24 26 29 31 33 35 36 36 36 36 35 35 33 32 32 33 35 36 37 37 38 41 41 43 49 53 55 53
18 19 18 18 17 16 15 15 18 20 20 22 24 26 28 29 31 33 34 36 37 38 38 37 37 37 33 30 30 32 33 34 34 34 35 36 37 39 43 46 48 50
19 18 18 18 17 17 16 16 18 19 20 22 25 28 30 32 33 35 36 37 37 39 39 37 37 36 31 28 29 31 33 33 33 32 33 36 37 38 39 40 41 43
18 18 18 18 18 19 19 19 20 22 23 24 26 28 31 33 34 36 38 38 37 37 37 35 32 28 25 27 30 31 32 33 33 33 33 37 40 39 39 41 39 39
17 17 18 18 19 20 21 22 23 25 26 27 28 30 32 34 35 38 40 39 37 36 36 32 28 25 25 29 30 30 32 34 34 34 34 36 39 39 40 42 40 37
16 17 18 19 20 21 22 23 25 26 27 29 31 33 35 36 39 41 41 39 36 35 34 31 29 27 28 29 28 29 32 33 34 35 34 35 40 41 40 41 41 37
19 20 21 21 22 23 24 25 26 28 30 32 34 36 38 40 43 44 43 40 37 34 32 31 30 27 27 28 28 29 30 31 34 34 32 35 42 43 40 40 40 38
23 24 25 25 26 26 27 28 29 32 34 36 38 40 43 45 47 47 44 41 38 34 32 32 31 28 27 28 29 30 30 31 33 33 32 36 42 43 41 39 39 38
26 27 28 29 30 31 31 32 33 35 37 40 42 45 48 50 50 48 47 44 41 37 34 33 31 29 28 28 29 30 31 31 31 31 33 36 39 40 40 38 38 38
29 30 31 32 33 34 35 36 37 38 41 43 46 49 52 53 51 50 49 47 44 40 37 34 31 29 28 29 30 30 30 30 30 31 33 36 38 39 39 38 37 38
32 33 34 35 36 37 38 38 39 41 43 46 49 52 54 54 53 52 52 49 46 42 38 33 31 30 30 29 29 30 29 30 31 32 34 36 39 40 40 39 38 37
35 36 38 38 38 39 40 41 41 43 44 47 50 53 55 56 55 56 53 49 45 41 35 32 30 29 29 29 29 29 30 31 32 33 35 37 39 41 41 40 38 36
38 39 41 41 41 42 43 43 44 45 46 48 49 52 55 56 57 57 52 46 42 37 32 30 30 28 27 29 29 30 31 32 33 34 35 36 39 40 40 39 36 34
42 42 43 44 44 45 45 46 47 47 48 49 49 50 54 56 56 54 48 42 38 34 30 29 29 28 28 29 30 31 32 33 34 35 37 37 38 39 39 38 35 32

ECMWFNIL_500_spd_018.txt.gz
Wind_Speed
20 19 19 19 20 19 17 15 14 14 13 12 12 13 14 14 15 15 17 17 18 19 20 20 21 22 23 24 25 26 26 26 26 26 27 27 28 28 29 30 32 33
20 19 19 20 20 19 16 15 15 14 13 13 14 14 14 14 15 16 17 18 19 19 20 22 24 25 26 27 27 28 28 29 29 29 30 30 31 31 32 32 33 34
20 20 20 20 20 18 17 16 15 14 14 15 15 15 15 15 15 15 16 17 17 19 21 22 24 27 29 29 29 29 29 30 30 30 30 32 33 33 33 34 34 36
21 20 20 20 19 18 17 17 15 15 15 16 15 14 14 15 15 16 16 17 18 21 22 22 25 29 31 31 31 31 30 29 28 28 30 32 33 34 33 32 33 35
21 21 20 20 19 19 18 17 16 15 15 15 14 14 14 15 15 16 17 18 20 21 22 24 28 29 30 31 31 30 29 27 27 28 30 32 33 33 33 32 33 35
21 20 20 20 19 19 18 17 16 14 14 14 14 14 15 14 14 16 18 19 21 22 22 24 25 25 25 28 29 28 27 27 28 29 30 31 33 34 35 34 33 34
20 20 20 19 19 18 17 16 15 14 14 14 15 16 16 15 16 18 19 20 20 20 20 21 22 23 23 25 28 29 29 28 29 31 33 34 35 37 37 36 34 33
20 19 19 18 17 16 16 15 14 14 15 16 16 17 17 17 18 18 17 16 17 17 19 20 21 23 24 24 26 29 29 30 31 33 36 37 37 37 37 37 35 34
19 18 18 17 15 15 15 14 14 15 16 16 16 16 16 17 16 15 15 16 17 18 20 21 22 24 26 26 27 28 29 30 31 33 36 37 38 38 38 36 34 33
17 16 16 15 14 14 14 14 15 15 16 16 16 16 16 16 16 16 17 19 20 21 23 25 26 27 29 30 30 30 30 31 32 34 35 36 36 38 38 36 33 31
15 15 14 13 13 13 14 14 14 15 16 17 17 17 17 18 19 20 22 23 23 24 25 27 28 29 31 32 33 33 32 33 34 34 34 35 35 36 37 37 34 31
14 14 13 13 13 14 14 14 15 15 17 18 19 19 19 21 22 24 25 26 26 27 27 28 30 32 35 37 37 36 34 34 33 31 32 34 35 36 36 37 36 33
14 13 12 13 13 14 14 15 16 16 15 16 18 20 21 22 23 24 25 27 29 30 31 33 35 37 40 41 41 39 37 35 32 30 31 34 36 37 37 38 38 36
13 13 12 12 13 15 15 16 16 16 15 14 16 20 22 23 22 22 24 27 30 32 34 35 37 39 40 41 41 40 38 35 32 31 33 34 35 37 38 39 39 38
13 11 11 12 14 15 17 17 17 16 16 15 16 19 21 23 24 24 26 29 31 33 34 35 36 38 38 39 39 38 37 36 35 35 34 33 34 36 38 39 39 38
11 10 11 13 15 16 17 18 17 17 17 17 18 19 22 24 27 28 29 31 33 34 35 36 36 37 38 38 37 37 37 37 36 35 33 33 35 37 39 39 38 37
11 11 13 14 15 15 16 16 17 17 18 20 21 23 24 27 29 30 32 34 35 35 36 37 38 38 38 38 37 36 38 38 37 35 33 33 35 38 39 39 38 38
11 11 13 14 14 15 16 16 18 19 21 23 25 26 28 29 31 32 35 37 38 38 39 40 41 41 41 40 38 38 38 39 39 36 34 34 36 37 38 38 38 39
15 15 16 16 17 17 18 19 21 22 24 25 27 29 30 31 33 35 37 40 41 42 43 43 44 45 45 43 40 38 38 39 39 36 33 34 35 37 38 38 38 39
19 19 20 19 19 20 21 22 24 26 27 28 30 31 33 34 35 37 39 41 44 45 46 46 47 48 49 45 39 36 36 37 37 35 34 35 35 36 37 37 37 39
19 19 20 20 20 22 23 25 27 29 30 32 33 34 35 36 37 39 41 43 45 47 48 49 50 51 50 46 39 35 35 35 35 35 35 35 35 35 36 37 38 40
17 18 19 21 23 24 26 28 30 32 34 35 36 37 38 38 39 40 42 44 46 47 48 49 51 51 49 45 40 37 35 33 33 33 34 35 35 35 36 37 38 39
18 20 22 24 26 28 30 32 34 36 37 39 40 41 42 42 42 42 44 46 46 47 48 48 50 50 46 43 40 37 35 32 31 31 33 35 35 35 36 37 37 39
22 25 27 28 30 32 33 35 37 39 41 43 45 46 48 48 46 46 48 48 47 47 47 47 48 48 44 40 38 36 34 32 31 31 33 35 36 37 36 37 38 39
27 29 31 33 34 35 36 38 40 41 44 46 47 49 54 54 48 45 45 43 42 43 44 44 46 46 43 39 37 35 34 33 33 34 35 36 37 37 37 38 39 39
30 33 35 36 37 38 39 41 42 43 46 48 47 49 52 50 44 42 42 39 39 41 42 43 44 44 41 38 37 37 36 36 35 36 36 36 37 37 38 39 40 40

ECMWFNIL_500_spd_021.txt.gz
Wind_Speed
20 20 20 20 18 16 15 15 15 13 11 10 8 8 9 11 11 12 12 13 13 14 14 14 15 17 17 16 18 21 22 22 22 23 23 23 23 23 23 24 26 27
21 22 22 21 18 16 15 15 14 11 9 8 8 9 11 12 13 13 13 13 13 14 15 16 17 18 18 18 20 22 22 22 21 21 21 22 22 22 23 25 27 27
24 24 23 21 19 17 16 15 12 10 9 8 10 12 13 13 13 14 14 13 14 15 16 18 18 19 19 20 21 21 22 23 23 21 21 22 23 24 25 27 28 28
26 25 24 21 19 17 16 14 11 9 9 10 12 13 13 13 13 14 14 13 14 15 17 18 20 20 19 20 20 21 23 24 24 23 23 23 24 26 27 29 30 30
26 25 23 21 18 18 16 12 10 9 9 12 14 14 13 13 14 14 13 13 14 16 17 18 18 19 18 19 21 22 23 24 25 25 25 26 27 28 30 32 31 30
26 25 23 21 19 18 15 11 9 9 11 13 14 13 13 13 14 14 13 13 14 14 14 15 16 17 18 20 21 23 24 24 25 25 26 27 28 30 33 34 33 31
25 24 23 20 18 16 13 10 9 10 13 15 14 13 12 13 13 13 12 12 13 13 14 15 16 17 19 21 23 25 26 26 27 27 27 28 29 31 34 36 35 33
22 22 20 17 15 13 11 10 10 12 14 14 13 12 12 12 12 12 12 13 14 15 17 17 18 19 20 23 25 27 28 29 29 30 30 29 30 32 34 35 34 33
18 18 16 14 13 11 10 10 11 13 14 13 12 12 12 12 12 13 14 15 17 18 18 18 18 18 20 22 24 26 28 29 30 31 31 31 29 30 32 31 30 31
14 14 13 12 11 10 11 11 12 13 13 12 12 12 12 12 13 14 15 16 17 17 17 16 16 17 19 21 24 26 28 29 31 32 34 33 31 29 29 29 29 32
11 11 11 10 10 11 12 12 12 13 13 12 12 12 13 14 14 14 15 16 16 16 16 16 18 19 21 23 25 27 29 31 33 34 35 36 34 31 30 31 32 34
10 10 10 11 11 12 13 13 13 14 13 12 13 13 14 14 15 15 15 15 15 16 17 19 20 21 23 25 27 28 30 32 34 35 36 36 35 33 33 33 34 35
10 11 12 12 12 13 13 13 13 13 13 14 14 14 14 14 14 14 14 15 17 19 19 20 21 23 24 26 28 29 31 33 34 35 36 35 33 33 34 34 34 34
11 13 14 13 14 14 13 13 13 13 14 15 16 16 15 14 13 14 16 19 21 22 23 23 24 25 26 28 30 31 33 35 36 37 37 36 34 34 36 36 35 35
14 14 14 14 14 13 13 13 14 14 14 15 16 17 18 17 16 16 17 20 22 23 25 26 26 27 29 30 32 34 36 38 39 39 39 38 36 36 37 38 37 36
15 15 15 14 14 13 13 14 14 15 15 14 15 16 17 19 19 18 19 21 23 25 27 28 29 30 32 34 36 37 39 40 41 41 40 38 36 36 37 38 37 36
16 15 15 15 15 15 15 15 16 16 15 14 14 15 16 19 20 21 23 25 27 29 30 32 33 34 36 38 39 40 41 41 41 42 41 37 33 34 35 36 35 34
16 16 16 16 16 16 16 16 16 16 16 16 15 15 17 20 22 25 26 28 30 32 34 35 36 38 40 41 41 42 42 43 43 43 41 36 32 32 33 34 33 34
17 17 16 16 16 16 16 17 18 18 18 18 17 17 19 22 24 27 28 30 33 35 37 38 39 42 44 44 44 43 43 44 44 43 40 37 32 30 31 33 33 34
18 18 17 17 17 17 18 19 20 20 20 19 19 20 21 24 26 28 30 32 35 37 39 40 42 44 44 45 45 45 45 44 43 41 39 36 33 31 31 32 33 33
18 18 18 19 19 20 21 21 20 21 21 21 21 22 24 26 28 30 32 35 37 39 40 42 43 42 41 43 45 44 44 43 42 41 38 35 33 32 32 33 34 34
18 18 18 19 20 20 20 20 20 20 21 23 23 24 26 29 31 32 35 38 40 41 41 42 42 40 40 43 44 43 43 42 42 42 40 36 34 34 33 34 35 35
19 18 17 18 18 19 19 19 20 21 23 24 25 26 28 31 33 35 36 39 41 42 43 43 42 40 41 43 44 44 44 44 44 42 40 38 36 35 35 35 36 37
21 19 18 18 18 19 19 20 22 23 25 26 26 27 29 32 34 36 38 40 41 42 44 45 41 40 41 43 44 44 43 43 42 40 38 38 37 36 36 37 37 37
22 20 19 19 19 20 22 22 24 25 27 28 27 28 31 33 36 37 39 40 41 42 46 47 43 39 41 43 44 43 41 40 39 38 37 37 37 37 38 38 38 38
24 23 22 20 21 23 24 24 26 28 29 28 29 31 34 36 38 39 40 41 42 43 45 47 44 40 41 43 43 41 39 38 37 36 36 37 37 38 38 39 39 40

ECMWFNIL_500_spd_024.txt.gz
Wind_Speed
18 17 16 15 13 12 11 11 11 11 11 12 13 13 12 10 9 9 9 9 9 9 10 11 12 14 16 17 17 17 17 18 18 18 19 19 19 19 19 19 20 21
20 19 18 17 15 14 13 12 12 12 12 13 14 14 12 10 9 9 9 9 9 9 10 11 13 15 16 16 16 16 16 17 18 19 20 20 21 21 21 21 22 23
22 21 20 20 19 17 15 13 13 13 13 14 15 14 12 9 8 8 8 9 9 10 10 11 14 15 14 14 15 16 17 18 19 20 21 22 22 23 23 23 24 25
24 23 23 22 21 19 16 14 14 14 14 16 16 14 12 9 8 7 8 9 9 10 11 12 14 14 13 13 14 16 18 19 20 21 22 23 23 24 25 25 25 26
25 25 25 24 22 19 16 15 16 15 16 17 16 14 11 9 8 7 7 8 9 10 11 12 13 14 14 15 16 18 19 20 21 22 23 24 24 25 25 26 26 26
25 25 26 25 22 19 17 17 17 17 17 18 16 13 10 9 8 7 7 7 8 9 11 13 14 15 16 17 18 19 20 21 21 22 23 24 25 25 25 25 25 25
26 26 27 26 23 20 19 19 18 18 19 19 15 12 10 9 8 7 6 7 8 10 12 13 14 15 17 18 19 20 20 20 20 21 22 23 23 24 24 24 24 25
26 27 27 26 22 19 19 19 19 19 20 19 14 11 10 9 8 7 7 8 9 11 12 13 14 15 17 18 19 20 21 21 21 21 22 23 24 25 25 25 25 25
24 24 24 21 19 17 18 20 20 21 21 18 14 12 11 9 8 8 8 9 10 11 11 12 13 14 16 18 19 20 22 23 24 24 25 26 27 29 29 29 29 27
20 20 19 18 17 17 18 20 21 22 21 18 14 12 11 10 9 9 9 9 10 11 11 11 11 13 16 18 19 20 22 24 26 27 28 28 29 31 32 32 32 31
17 17 17 18 18 18 19 21 22 22 21 17 14 13 12 10 10 10 9 10 11 11 11 11 13 16 18 20 21 22 24 26 28 29 30 30 30 31 33 34 34 33
16 17 17 18 19 20 21 22 23 22 20 17 15 15 13 11 11 11 11 11 11 12 13 13 15 18 20 23 24 25 27 29 30 32 32 32 32 32 33 33 34 33
16 17 18 20 21 23 23 23 23 22 20 18 17 15 14 13 12 12 12 12 12 13 14 14 16 19 22 24 26 27 29 30 31 32 34 34 34 35 35 35 34 34
18 18 19 21 23 24 24 24 23 23 21 19 18 16 15 14 12 12 13 13 14 14 14 15 17 20 22 24 26 28 29 30 31 32 34 35 36 36 37 37 36 35
21 21 21 23 24 24 23 23 23 23 22 20 18 17 16 14 12 13 14 14 14 14 14 16 18 21 23 25 27 29 31 33 33 33 35 36 37 37 37 37 37 35
25 24 24 25 25 24 23 23 23 24 23 20 19 18 16 14 13 14 15 15 15 15 16 18 20 22 25 27 29 31 33 33 32 32 33 35 35 35 36 36 36 35
27 25 26 26 25 25 25 25 25 25 23 21 20 18 16 14 14 14 14 15 15 16 17 19 22 24 26 27 29 31 32 32 32 31 32 34 34 34 35 35 35 36
28 27 26 27 27 27 27 26 26 25 24 21 19 17 16 15 14 13 13 14 15 16 18 20 22 24 25 27 29 31 33 33 33 33 34 35 35 36 36 35 35 36
28 28 27 28 28 29 29 28 27 26 23 21 19 17 17 16 15 14 13 14 15 16 18 21 23 25 27 28 29 31 33 34 34 35 36 37 37 36 36 36 36 36
29 29 28 29 30 31 31 30 28 26 24 22 20 19 19 17 16 16 15 15 16 17 19 21 24 26 28 28 29 31 32 33 34 35 37 38 37 35 35 35 35 34
28 28 29 31 32 33 33 31 28 27 25 23 22 21 20 19 18 17 16 16 17 19 20 22 25 27 28 29 30 32 34 34 34 35 37 38 37 35 33 33 34 33
28 28 30 33 35 35 34 31 29 27 26 24 23 22 22 20 18 17 16 17 18 20 22 24 26 28 29 30 32 34 36 37 37 37 38 40 38 36 34 34 34 34
30 30 31 34 36 36 34 31 29 28 26 25 24 23 21 19 18 17 17 18 19 21 23 25 27 29 31 33 34 35 37 39 39 40 40 41 40 38 36 35 36 35
33 33 33 35 37 36 33 32 30 28 27 25 24 22 20 19 19 18 18 19 21 22 25 27 29 31 33 35 37 38 39 40 41 42 42 41 41 40 37 37 37 36
37 36 35 36 37 35 33 32 31 29 27 26 25 22 20 19 19 18 19 21 22 23 26 28 30 33 35 37 39 41 42 42 43 42 41 41 42 41 39 38 36 36
40 40 38 37 37 35 32 32 31 30 29 28 25 22 20 20 19 20 21 22 22 24 27 29 32 34 37 39 41 42 43 43 43 41 40 41 42 41 40 38 36 36

ECMWFNIL_500_spd_027.txt.gz
Wind_Speed
16 15 14 14 15 14 14 14 14 14 15 15 14 13 13 11 10 10 10 8 8 7 7 8 9 9 11 13 14 14 14 15 16 17 18 20 21 22 23 23 23 22
18 17 16 16 16 16 16 16 16 16 16 16 15 14 13 11 11 11 10 9 8 8 7 8 8 9 11 13 14 15 16 17 18 19 21 22 23 24 25 25 25 24
20 19 18 18 18 19 19 18 18 18 18 17 16 15 14 13 13 12 11 9 9 8 8 7 7 9 11 13 14 15 17 18 19 21 22 23 24 24 25 25 24 25
22 22 21 21 21 22 21 20 20 20 20 19 18 17 15 14 14 13 11 10 9 8 8 7 7 9 11 12 14 16 17 18 20 20 21 21 22 22 23 23 23 23
23 24 24 23 24 24 22 21 22 22 22 22 20 18 16 15 15 14 13 11 10 9 8 8 8 9 11 13 14 15 16 18 18 19 19 19 19 20 20 21 21 22
23 24 25 25 25 25 23 23 24 24 24 24 22 20 18 17 16 16 14 12 10 9 9 8 8 10 11 13 13 14 15 16 17 17 17 17 18 19 19 21 22 22
22 24 25 26 26 26 25 25 26 25 26 27 24 21 19 18 18 17 15 12 10 10 10 9 9 11 12 12 11 12 14 16 16 17 17 18 19 20 21 22 23 24
21 23 25 26 26 27 26 27 27 26 27 28 26 22 20 19 19 18 15 13 11 11 11 10 10 11 11 10 10 12 14 16 17 18 19 20 22 23 24 25 26 27
19 21 24 26 27 28 28 28 28 28 28 28 27 24 21 20 21 19 16 14 13 12 11 11 11 11 10 10 11 13 15 17 19 20 22 23 24 25 26 27 28 29
16 18 21 23 26 27 28 29 29 28 28 28 28 25 22 22 22 19 17 15 14 13 12 12 12 11 10 10 12 14 16 18 20 23 25 27 28 29 29 30 30 31
15 16 17 19 23 25 27 29 29 28 27 28 28 25 22 23 22 19 17 16 15 14 13 13 12 10 10 12 13 15 18 20 22 24 27 28 29 30 30 30 31 32
15 14 14 15 19 22 25 28 28 27 27 29 29 25 23 23 22 19 17 17 16 15 13 12 11 10 11 13 14 17 19 22 24 25 27 27 28 28 28 28 30 30
15 14 13 13 16 21 25 27 27 27 27 29 29 26 24 24 21 19 19 18 16 15 13 12 10 10 11 13 15 18 20 23 25 25 26 26 26 26 26 28 30 30
17 16 14 14 16 21 26 28 28 28 28 30 31 27 24 24 22 21 21 19 16 14 13 11 10 10 12 14 16 19 21 23 25 26 27 27 26 27 28 30 32 34
18 19 18 17 17 20 25 27 29 29 29 31 32 28 24 24 24 23 21 18 15 14 13 11 10 11 12 15 17 19 22 24 25 26 27 27 27 28 30 32 34 36
19 20 21 21 20 20 23 26 29 30 31 32 32 28 26 26 25 23 20 17 16 15 14 12 11 12 14 16 18 19 22 24 24 25 26 27 28 28 30 33 34 35
19 20 21 23 24 24 24 25 28 31 32 33 32 30 27 27 25 21 19 17 17 16 14 13 12 13 14 17 19 21 23 23 23 24 25 27 29 29 30 33 34 34
22 22 21 22 24 26 27 27 28 31 33 34 33 30 28 27 24 21 19 18 18 16 14 13 13 13 15 18 21 22 22 22 22 24 26 28 30 32 33 34 35 35
25 25 23 22 23 25 28 30 30 31 32 34 34 31 29 27 24 21 20 19 18 17 16 15 15 15 16 19 20 20 21 22 23 25 27 29 32 34 35 36 35 35
28 29 27 25 25 27 28 30 31 31 31 33 34 32 30 27 24 22 21 20 19 19 19 18 17 16 18 19 19 20 21 23 24 27 29 31 33 34 34 34 34 34
31 30 30 29 29 29 30 30 30 31 32 33 33 33 30 28 25 23 22 22 22 22 21 19 17 17 18 19 19 20 22 24 26 28 30 32 33 33 32 32 33 34
32 32 32 33 33 32 31 30 30 31 32 33 33 33 32 30 27 25 24 25 24 23 22 19 16 17 19 19 19 21 23 25 27 29 31 32 33 32 32 33 34 35
35 34 33 34 35 35 33 32 31 31 33 34 34 34 34 32 29 27 27 27 26 24 22 18 17 18 19 19 20 22 24 26 28 30 32 32 31 32 32 33 34 35
36 36 34 35 37 36 35 34 32 31 32 34 34 34 34 33 31 29 30 29 27 25 22 19 18 19 19 20 21 23 25 27 28 30 31 31 32 32 32 33 34 36
36 37 37 37 37 37 36 36 35 32 32 34 35 34 34 35 34 33 33 31 29 26 23 21 19 20 20 21 22 24 26 28 29 30 31 32 33 32 33 34 35 36
35 38 38 38 38 38 37 38 37 34 34 35 35 35 36 38 37 35 34 33 30 27 24 21 21 21 22 23 23 25 27 29 30 31 31 33 33 33 33 34 35 36

ECMWFNIL_500_spd_030.txt.gz
Wind_Speed
15 14 13 14 14 14 14 14 15 15 16 16 14 13 11 11 11 11 10 10 11 12 10 8 6 5 5 6 7 9 10 12 13 15 16 17 18 18 18 18 18 19
16 16 16 16 16 15 15 16 17 17 17 17 15 13 12 12 13 13 11 11 12 12 10 8 7 6 5 5 7 8 10 12 13 14 15 15 16 16 17 17 17 17
18 18 18 18 18 18 18 18 19 19 19 18 16 14 12 13 15 15 13 13 13 13 11 9 7 6 6 5 6 8 10 11 12 13 13 14 14 15 15 16 16 17
20 20 20 20 20 21 21 20 20 21 21 19 17 15 14 14 15 16 15 14 14 14 12 10 8 7 6 5 6 8 9 10 11 12 12 13 14 15 15 16 17 17
21 22 23 23 23 24 23 21 21 22 23 21 19 17 15 15 16 17 17 16 16 15 13 11 9 8 6 5 6 7 8 8 10 11 12 14 15 17 18 19 19 20
21 22 23 24 24 25 24 22 23 24 24 23 21 18 16 15 16 18 18 18 18 17 14 13 11 9 7 6 6 6 6 8 10 11 13 15 17 19 21 22 22 22
19 21 22 24 24 25 24 23 24 24 25 24 23 20 17 17 17 18 19 19 19 18 16 14 12 10 8 6 6 6 6 8 10 12 14 17 19 21 22 23 24 23
16 18 20 22 23 24 24 24 24 25 26 25 23 21 19 18 18 19 19 19 20 19 17 16 13 11 9 7 6 6 7 9 11 13 15 17 20 22 23 23 23 22
12 14 16 18 20 22 23 25 25 27 27 26 24 22 20 19 19 19 19 19 20 20 19 17 15 12 10 8 7 6 8 10 12 14 16 18 21 23 23 23 22 22
10 11 13 15 17 19 22 25 27 28 28 27 26 24 21 20 21 20 19 19 20 21 20 18 16 14 11 9 8 7 10 11 12 14 16 19 21 22 24 24 23 22
11 10 10 11 13 14 18 23 27 29 29 28 27 25 23 22 22 21 19 19 20 22 21 19 18 15 12 10 9 9 11 12 12 14 17 19 20 22 24 25 25 25
12 11 10 10 10 11 14 18 24 29 31 30 29 27 24 23 23 22 20 19 21 23 23 20 19 17 14 12 11 12 13 12 13 15 17 19 20 21 23 24 25 25
13 11 11 11 11 12 13 15 19 25 30 31 30 28 26 24 24 22 21 21 22 24 23 21 20 18 15 13 14 15 14 13 13 15 18 19 20 21 22 22 23 25
13 13 13 13 13 14 13 14 17 21 25 29 29 28 27 25 24 23 22 22 23 24 23 22 21 19 16 15 16 16 15 14 14 16 18 19 21 22 22 22 23 24
15 15 15 15 15 16 15 15 16 19 22 25 26 26 26 26 25 24 23 23 24 25 24 22 21 19 17 17 17 17 15 14 15 17 19 20 21 22 22 23 24 24
17 17 18 18 17 17 17 17 18 18 20 22 23 25 26 26 25 24 24 24 25 25 24 23 22 20 18 18 18 17 16 15 16 18 20 20 21 22 23 24 25 25
19 19 19 19 19 18 18 19 20 20 20 21 22 24 26 26 26 24 23 25 26 26 25 24 23 21 20 20 18 17 16 17 18 19 20 21 22 22 24 26 27 27
19 19 20 20 20 20 20 21 21 21 21 21 22 23 24 26 26 25 24 25 26 26 25 25 24 23 22 20 18 17 18 18 19 20 21 20 21 22 24 27 29 29
18 18 19 20 21 22 23 24 23 21 21 21 21 22 23 24 25 25 25 26 27 26 26 26 26 24 23 21 19 19 19 20 20 21 20 19 20 22 24 26 28 30
19 18 19 22 24 25 26 26 25 23 22 22 21 21 21 22 24 24 24 26 28 27 27 28 27 25 23 22 21 21 21 22 21 20 19 18 19 21 23 24 27 29
21 20 21 23 25 27 28 28 27 25 24 23 22 21 21 21 23 24 24 26 28 29 29 30 28 26 24 23 23 23 24 24 22 20 18 18 19 21 23 23 25 27
23 23 23 24 25 26 27 28 29 28 26 25 24 23 22 21 23 24 24 26 29 31 31 31 29 27 26 26 25 25 25 25 22 20 18 18 20 21 23 23 24 26
26 27 27 27 27 27 28 28 29 30 29 28 26 24 23 23 23 25 25 27 30 32 32 31 30 29 28 28 27 27 27 25 22 20 19 19 21 23 23 24 25 26
27 30 31 31 31 31 31 31 32 31 31 31 28 26 26 25 25 26 27 28 30 32 33 32 32 31 31 30 30 29 28 26 23 21 20 20 23 25 25 25 26 27
30 34 36 35 34 35 35 35 35 34 35 35 32 29 29 29 28 27 28 29 31 33 34 35 35 34 33 33 32 31 29 27 24 22 22 23 26 28 27 27 28 28
34 37 38 37 36 37 37 36 35 35 36 37 36 32 31 32 31 30 30 30 32 34 37 37 37 37 36 35 35 33 31 29 26 23 24 27 29 29 27 28 29 29

ECMWFNIL_500_spd_033.txt.gz
Wind_Speed
15 14 13 13 14 14 15 14 15 15 16 17 16 14 13 12 11 10 10 10 10 10 10 9 9 8 8 7 5 3 2 3 5 5 6 6 7 8 9 10 11 12
17 16 15 15 14 15 16 16 17 17 17 18 17 16 14 13 13 12 11 10 10 11 11 10 9 9 9 8 7 4 2 3 3 4 4 5 7 9 10 11 12 13
18 18 17 17 17 17 18 18 18 18 18 19 18 17 16 15 14 14 13 11 10 11 12 11 11 11 11 10 8 5 3 2 2 3 4 5 7 10 11 13 14 15
20 20 20 20 20 20 20 19 19 19 19 20 20 19 17 16 16 15 14 12 11 11 12 12 12 12 12 11 9 6 4 3 3 3 4 6 8 10 13 15 17 17
21 22 22 23 23 23 22 21 20 20 21 22 22 20 19 17 17 17 16 14 13 12 12 13 13 13 13 13 11 8 6 5 4 4 4 6 9 11 13 15 17 17
21 22 23 24 24 25 24 22 23 23 23 23 23 22 20 19 18 18 18 16 15 14 13 13 14 15 15 14 13 11 9 8 6 5 4 7 9 11 13 15 15 16
21 22 23 24 25 25 25 24 25 25 24 24 24 23 21 20 20 20 19 18 16 15 14 14 14 15 16 16 15 13 11 10 8 6 6 7 9 11 14 15 15 16
19 20 22 23 24 25 25 26 26 26 26 26 25 24 23 21 21 21 21 19 18 16 15 15 15 16 16 17 17 15 13 12 10 7 7 9 10 12 14 16 17 17
17 17 18 19 21 23 24 25 26 27 27 27 26 26 24 23 22 22 22 20 19 18 17 16 15 16 17 18 18 17 15 14 11 9 9 10 11 12 15 17 18 18
14 13 14 14 17 19 21 23 25 26 27 27 27 27 26 25 24 23 22 21 20 19 18 18 17 17 17 19 19 18 16 16 13 11 11 12 12 14 15 17 18 18
13 11 10 11 13 14 16 19 22 24 26 27 27 27 27 26 25 24 23 22 21 20 20 20 19 18 19 20 20 19 18 17 15 13 13 13 14 15 17 18 18 18
13 10 9 9 11 11 13 14 16 18 21 24 27 28 28 28 27 25 24 22 22 22 22 22 21 20 20 21 21 20 19 18 16 14 14 14 15 16 18 20 19 19
13 11 9 9 9 10 10 11 11 12 13 15 20 23 26 28 28 27 25 23 23 24 24 24 23 21 21 22 22 20 19 19 17 15 15 15 16 17 19 21 21 20
14 12 10 9 9 8 8 9 10 11 11 11 11 12 15 20 24 26 26 26 25 25 26 26 24 22 22 23 22 20 20 20 18 16 15 16 17 18 19 21 21 21
16 14 11 11 10 8 7 8 10 11 11 12 11 11 10 10 13 16 20 23 25 26 27 26 24 22 22 23 23 21 21 21 19 17 17 17 17 18 20 21 22 22
17 15 13 12 11 10 9 10 11 11 11 11 11 12 11 10 9 9 11 15 19 23 25 26 24 22 23 25 24 23 23 22 20 19 18 18 18 19 20 21 22 21
18 16 14 13 12 12 11 12 14 13 11 10 10 11 11 11 11 10 11 13 15 19 22 24 24 23 24 26 26 25 25 23 22 21 21 20 19 20 21 21 22 21
17 16 14 14 14 14 13 14 16 15 12 10 10 11 11 10 9 10 12 13 15 17 19 22 24 25 26 27 28 27 27 25 24 23 22 21 21 21 22 22 22 21
17 16 15 14 15 15 14 15 16 16 15 13 13 13 13 10 9 10 12 13 14 15 17 19 23 26 28 28 29 29 28 27 27 25 24 23 22 23 23 23 23 22
18 17 16 16 16 16 16 17 17 17 18 18 17 16 15 13 12 12 13 13 14 15 16 18 22 26 29 30 31 31 30 30 29 28 27 25 25 25 25 24 24 23
20 19 18 18 19 19 19 19 20 20 21 22 22 21 19 17 16 15 15 14 14 15 16 18 20 25 29 32 32 32 32 33 32 30 29 27 27 27 27 26 26 24
23 23 23 23 23 23 22 22 23 23 22 22 24 24 23 21 20 19 17 16 17 17 17 17 19 24 29 31 33 34 34 34 33 32 31 29 28 28 28 28 27 25
28 28 28 27 26 26 25 25 25 25 24 23 23 25 26 26 25 23 21 20 20 19 19 18 19 22 27 31 33 34 35 35 34 34 32 31 30 30 30 30 28 27
33 33 32 30 29 29 29 28 28 29 28 27 27 27 28 30 30 29 27 26 24 22 21 20 21 23 27 30 33 35 36 36 36 36 34 33 32 31 31 32 30 29
34 34 35 34 34 34 33 31 31 32 32 32 31 31 33 34 35 34 33 30 28 27 25 24 24 25 27 29 32 35 37 37 37 37 36 34 33 33 33 33 33 31
34 35 37 37 36 36 35 34 34 34 35 35 34 34 34 34 34 34 36 35 32 30 29 28 28 28 29 30 32 35 37 38 38 38 36 35 35 35 35 35 35 33

ECMWFNIL_500_spd_036.txt.gz
Wind_Speed
18 18 18 18 18 18 17 18 18 19 19 19 18 17 15 13 12 11 10 8 7 5 5 5 6 6 7 8 9 10 10 10 8 3 1 0 0 1 3 5 7 8
20 19 19 18 18 18 18 18 18 18 18 19 18 17 16 14 13 12 12 10 9 7 6 6 6 7 8 8 10 10 11 11 9 5 3 2 1 2 4 7 8 10
20 20 19 19 18 19 19 19 18 18 18 18 18 18 17 15 14 13 13 12 11 9 8 7 7 8 8 9 10 11 12 12 11 7 4 3 2 2 5 8 10 11
20 20 20 20 20 20 20 19 19 19 19 18 19 19 18 17 15 14 14 14 13 11 10 9 8 9 9 10 11 12 13 13 12 9 6 4 3 3 4 8 10 11
21 21 21 21 21 21 21 20 21 21 20 20 20 19 18 18 17 16 15 16 15 13 12 11 10 9 10 11 12 13 13 14 13 11 8 6 5 3 4 7 8 10
22 21 22 22 22 22 22 22 23 23 23 22 22 21 20 19 18 17 17 17 17 15 14 13 12 11 11 12 13 14 14 15 14 13 10 8 6 5 4 7 8 10
23 23 23 23 23 24 24 24 25 25 25 25 24 23 22 21 19 18 18 18 18 17 16 15 14 13 13 13 14 15 16 16 15 15 13 10 9 7 6 7 9 11
24 24 24 23 23 24 24 25 26 27 27 27 26 26 25 24 21 20 19 19 19 18 18 17 16 15 15 14 15 16 17 17 17 16 15 13 11 9 9 9 10 11
24 23 22 22 22 22 23 24 25 26 28 28 28 28 28 26 24 22 21 20 21 20 19 19 18 17 16 16 16 17 18 18 18 18 17 15 13 11 11 11 12 12
22 21 20 19 20 20 21 22 23 24 26 27 28 29 28 27 26 24 22 22 22 21 20 20 20 19 18 17 18 19 19 20 20 19 19 17 15 13 12 13 13 13
21 19 18 18 18 18 18 19 19 20 22 23 25 27 27 28 27 26 24 23 23 22 22 22 22 21 20 19 20 20 21 21 21 21 21 19 17 15 14 14 14 14
20 19 17 17 18 17 17 16 15 15 15 17 19 21 24 26 27 27 26 25 25 25 24 24 24 24 22 21 22 22 22 22 22 23 22 21 19 17 16 16 16 16
21 19 18 18 18 18 17 15 13 11 10 10 11 12 14 18 21 25 26 26 27 26 26 26 25 25 24 23 23 23 23 23 23 24 24 23 21 20 19 18 17 17
21 21 21 19 18 18 16 13 11 10 8 7 6 6 7 8 12 17 22 25 27 27 27 27 26 26 26 25 25 24 24 24 24 26 26 24 23 23 21 20 19 18
23 23 22 21 19 17 14 12 10 8 7 6 5 5 5 5 6 8 12 17 21 25 26 27 27 27 26 26 26 25 25 25 25 27 28 27 25 25 23 22 21 20
25 25 23 21 20 17 14 12 11 8 7 6 4 3 3 4 6 6 7 10 13 17 20 23 24 25 26 27 27 26 26 27 27 28 29 28 27 26 25 23 23 22
26 25 23 21 19 17 15 14 12 10 8 7 5 4 3 4 5 6 7 9 10 12 14 16 18 21 25 27 28 27 28 28 28 28 30 30 28 27 27 25 24 24
26 25 23 22 20 18 16 15 15 13 11 9 7 6 6 6 5 6 7 9 10 12 13 14 15 17 21 25 28 28 28 29 29 29 30 31 29 28 28 27 26 26
26 26 23 21 21 20 19 18 18 16 14 11 10 10 10 9 8 8 9 10 11 12 13 15 16 16 19 23 27 28 29 29 29 30 31 32 31 30 30 29 28 28
26 25 23 22 21 22 22 21 20 19 17 15 15 14 13 12 12 12 12 11 12 13 14 15 16 17 19 22 25 28 28 28 29 31 32 33 32 32 31 31 30 29
26 25 24 23 22 23 23 23 23 22 20 18 18 17 17 16 17 17 16 15 15 15 15 15 15 16 19 22 25 27 29 29 29 31 32 33 33 32 32 32 32 31
24 24 24 23 23 23 23 24 25 23 22 21 21 20 20 21 22 22 20 19 19 19 18 17 17 17 18 21 24 27 30 31 30 30 31 32 33 32 33 34 33 33
22 23 24 24 24 24 24 25 26 25 25 24 23 23 24 25 26 26 25 25 24 24 22 21 20 20 20 21 24 27 30 32 32 30 31 32 33 33 34 35 35 34
23 25 27 27 28 27 27 26 26 26 26 26 26 27 28 28 28 29 29 29 28 28 27 26 26 25 24 24 26 28 30 32 33 33 33 33 34 34 35 36 36 36
28 31 32 32 32 31 30 29 29 29 30 30 31 31 31 30 30 30 31 31 30 29 29 29 30 31 30 28 28 30 31 32 33 34 34 34 34 35 36 37 37 37
31 32 32 31 31 31 32 33 34 34 35 35 35 35 35 34 33 32 32 32 31 31 31 30 30 32 34 35 35 34 34 36 35 35 35 34 34 35 36 37 38 38

ECMWFNIL_500_spd_039.txt.gz
Wind_Speed
21 21 21 21 21 20 19 19 18 18 17 16 16 14 13 12 11 11 10 10 9 8 7 7 8 8 9 9 8 7 7 7 7 8 9 8 6 3 3 4 6 7
21 21 21 21 21 21 21 20 19 19 18 17 16 14 13 12 12 12 11 11 11 9 8 8 8 9 10 10 10 8 7 7 7 8 8 8 7 5 4 4 6 7
21 21 21 21 21 21 21 21 19 19 18 18 17 15 14 13 12 13 13 13 12 11 10 9 9 10 10 11 11 10 9 8 8 8 9 9 8 6 5 4 5 6
20 20 21 21 22 22 21 19 19 19 18 18 17 16 15 14 14 13 14 14 14 13 12 11 10 10 11 11 12 13 11 9 9 9 9 10 10 8 6 5 5 6
19 19 20 21 21 21 20 19 19 19 18 18 18 17 17 16 16 15 15 15 16 16 15 14 12 11 11 12 13 14 14 12 11 11 10 11 11 10 8 6 5 6
20 19 19 20 20 20 20 20 20 20 19 19 18 18 18 18 18 18 17 17 17 17 17 16 15 14 13 12 13 14 15 14 13 12 12 12 12 12 10 8 7 6
21 21 21 21 21 21 21 22 22 21 21 21 20 20 20 19 19 20 20 19 19 19 19 18 18 17 15 14 14 15 15 16 15 14 14 14 14 14 13 11 9 8
22 23 23 23 23 23 22 23 23 22 23 23 22 23 23 22 22 22 22 22 21 21 21 20 20 19 18 16 15 16 16 16 17 16 16 16 16 16 15 14 12 11
24 24 24 24 23 23 22 22 22 22 22 22 22 23 24 24 24 24 24 24 23 23 22 22 21 21 21 19 18 18 18 18 18 18 18 17 17 18 17 17 15 14
25 24 24 24 23 22 22 21 21 20 20 20 21 22 23 24 25 25 25 25 25 25 24 24 23 23 23 22 21 20 20 20 19 19 19 19 19 19 19 19 18 17
24 24 24 23 22 22 21 20 19 19 19 19 20 21 21 22 23 24 24 25 26 26 26 25 25 25 24 24 23 23 23 22 21 21 21 21 21 21 21 21 21 19
24 23 22 22 22 21 20 19 19 19 19 19 19 19 19 19 20 21 22 23 25 26 27 27 26 25 25 25 25 25 25 24 23 22 22 23 23 22 22 22 22 22
23 23 22 22 22 21 20 20 19 19 19 18 18 17 17 17 17 18 19 20 23 25 27 27 27 26 26 26 26 26 26 26 25 23 23 24 24 24 23 23 24 23
22 23 23 23 23 22 21 20 20 19 19 17 16 15 15 14 14 15 15 16 19 22 25 27 27 27 26 26 27 27 27 27 27 25 24 25 25 25 25 24 24 25
23 24 23 24 24 22 21 20 20 19 18 16 15 14 13 13 13 12 12 12 13 16 20 23 25 26 26 25 26 27 27 27 27 27 26 26 26 27 27 26 25 26
25 25 24 24 24 22 22 21 21 19 17 15 14 13 13 13 12 11 11 11 11 11 13 15 18 21 24 25 26 28 28 28 28 28 27 27 27 28 28 28 26 26
26 26 25 25 24 23 22 22 21 20 18 16 15 14 13 13 12 11 10 10 10 11 11 11 12 14 18 22 25 27 29 29 28 28 28 28 28 28 29 29 28 27
27 27 26 25 24 24 23 22 22 21 19 17 16 15 14 14 12 11 10 10 10 10 11 11 12 13 14 17 21 24 27 27 27 28 28 29 29 29 29 30 29 29
28 28 27 26 25 25 25 24 23 22 21 19 18 17 17 16 14 12 11 11 10 10 10 11 11 12 14 16 19 21 24 26 26 27 28 28 29 30 30 30 30 30
28 29 28 27 26 26 26 25 24 23 22 21 20 20 18 17 16 14 13 13 12 12 12 11 11 11 12 15 18 21 23 25 26 26 27 28 28 30 31 31 31 31
27 28 29 29 28 28 27 26 24 24 24 23 22 21 20 20 18 17 16 15 15 15 15 13 13 13 13 14 17 19 22 25 27 27 27 27 27 29 31 32 32 33
26 28 29 29 28 28 27 25 25 24 25 25 25 24 24 23 22 20 19 19 19 20 19 18 17 18 17 16 18 20 23 26 27 28 28 28 27 28 29 31 33 33
25 26 26 25 25 24 24 24 24 25 26 27 27 27 27 26 25 23 23 23 23 24 25 23 22 22 22 21 22 23 26 28 29 30 30 30 30 30 30 30 31 33
23 23 22 21 21 20 21 22 24 26 27 28 29 30 29 28 28 27 26 27 28 28 28 28 27 27 26 25 25 27 29 31 33 34 34 33 33 34 33 32 31 30
21 21 20 20 19 19 20 23 25 27 28 29 30 30 30 30 30 30 30 31 31 31 30 31 31 30 28 26 26 27 29 33 35 37 38 37 37 37 38 37 35 32
21 20 20 20 20 21 22 24 26 28 30 31 31 31 31 32 32 33 33 33 34 33 32 32 32 32 30 28 28 29 30 33 36 37 38 40 42 43 42 41 41 39

ECMWFNIL_500_spd_042.txt.gz
Wind_Speed
18 18 19 19 18 17 16 15 14 14 13 12 12 10 10 9 9 9 9 9 8 7 6 5 5 5 6 7 8 9 9 8 7 5 5 7 9 8 7 7 6 7
18 18 18 18 17 16 15 14 13 13 12 12 11 10 10 10 10 10 10 10 9 9 8 7 6 6 6 7 8 9 10 10 9 8 6 6 8 9 8 7 6 6
18 18 18 18 17 16 14 13 12 12 11 11 11 10 10 9 10 10 11 11 11 10 10 9 8 8 7 7 8 9 10 10 10 10 8 7 8 9 9 8 7 6
16 16 17 17 17 16 14 13 12 12 12 11 11 11 10 10 10 11 11 12 12 12 12 11 10 10 9 8 8 9 10 10 10 11 11 9 8 9 10 10 9 8
15 15 16 16 16 16 15 14 13 13 13 12 12 12 12 12 12 12 12 13 14 14 13 13 13 12 12 11 10 10 10 11 11 11 12 12 10 9 10 11 11 10
14 13 13 14 14 15 14 14 14 14 14 13 14 14 14 14 14 15 15 15 15 16 16 16 15 15 15 14 13 12 12 12 12 12 12 13 12 11 11 12 13 12
13 13 13 12 13 13 13 14 15 15 15 15 15 16 16 16 17 17 18 18 18 18 18 18 18 18 17 17 16 15 15 14 13 13 13 14 14 13 12 12 14 14
15 14 14 13 13 14 14 15 16 16 17 17 18 18 18 19 19 20 20 21 21 21 20 21 21 21 20 19 19 18 17 17 16 15 15 15 15 15 15 14 14 15
16 15 15 15 15 15 16 16 17 18 18 19 19 19 19 19 20 20 21 22 23 23 23 23 22 23 22 21 21 21 20 19 19 18 18 17 16 16 17 16 16 16
16 16 17 17 17 17 18 18 19 19 19 18 18 18 17 17 18 19 20 21 22 23 24 24 24 24 24 23 22 23 22 21 21 20 20 19 19 18 18 18 17 18
17 17 17 18 19 19 20 20 19 19 18 17 16 16 15 16 17 17 18 20 21 22 24 25 25 25 25 24 23 23 24 23 22 22 22 21 21 20 19 19 19 19
17 17 18 18 19 20 20 20 19 17 17 16 16 15 15 16 17 17 17 17 19 20 21 23 24 25 25 25 24 23 23 24 23 23 23 23 22 21 21 20 20 20
18 18 19 19 19 20 20 19 18 17 16 16 16 15 16 16 16 16 15 15 16 17 17 19 21 22 23 24 24 23 23 24 24 23 23 23 23 23 22 21 21 21
19 20 20 20 20 19 19 18 18 17 16 16 16 16 16 16 15 14 14 14 14 14 14 14 16 19 20 21 22 23 22 23 24 24 23 23 23 24 24 23 22 22
20 20 21 21 21 20 19 18 18 18 17 16 16 16 16 15 14 13 13 13 12 12 13 12 12 14 16 18 20 22 23 23 25 26 25 24 24 24 25 25 24 24
22 21 21 21 21 20 19 19 19 19 18 17 16 17 16 15 13 13 13 13 12 11 12 11 10 10 12 14 16 19 21 22 24 26 26 26 25 25 25 26 26 26
23 22 21 21 21 21 20 20 20 20 18 17 17 17 16 15 14 13 12 12 12 11 11 11 10 10 10 11 13 14 16 18 20 22 24 25 25 24 25 26 27 27
22 23 23 22 22 22 21 21 21 20 19 18 17 17 16 15 14 13 13 13 12 11 11 10 10 10 10 11 12 14 15 16 17 18 20 21 22 23 24 25 26 27
21 23 23 23 23 22 22 23 22 21 19 18 18 17 17 16 15 14 14 14 13 12 12 11 11 10 10 11 13 14 16 17 17 17 18 18 19 21 22 23 24 25
21 22 22 23 23 23 23 23 22 21 20 19 19 18 17 16 16 16 16 15 15 15 14 12 11 11 11 11 13 15 17 18 18 18 17 18 19 20 21 22 22 23
21 22 22 23 24 23 23 22 22 22 22 21 20 19 18 18 18 18 18 17 18 17 16 15 13 13 13 13 15 17 19 20 20 20 19 19 19 21 22 23 24 25
21 22 22 22 23 23 23 22 22 23 24 23 21 19 19 19 20 20 20 20 20 20 20 18 17 16 16 16 18 21 22 24 23 23 23 22 22 23 24 25 26 28
19 20 22 22 23 22 22 22 23 24 24 24 22 21 20 20 21 22 22 22 22 23 23 22 21 21 20 19 20 23 25 27 27 27 27 27 26 27 26 26 26 28
17 18 20 21 21 20 21 22 23 23 22 23 23 22 22 21 21 22 22 22 23 24 25 25 24 25 24 23 23 24 27 28 29 31 31 30 30 30 29 29 29 29
18 18 19 20 20 20 20 21 21 21 21 22 23 23 23 22 22 22 22 23 24 25 26 27 27 27 27 27 27 28 29 29 30 32 32 32 33 33 33 33 33 32
19 19 19 20 20 20 21 21 21 21 22 22 22 23 23 23 23 24 25 26 27 27 28 28 29 30 30 30 30 31 32 33 33 33 32 34 36 37 37 36 35 35

ECMWFNIL_500_spd_045.txt.gz
Wind_Speed
14 14 14 14 12 11 10 9 9 8 8 7 7 6 6 6 6 6 5 5 5 5 5 5 5 6 7 8 8 7 7 7 7 7 6 5 5 5 6 7 7 6
13 13 14 13 12 11 10 10 9 8 8 7 7 6 6 6 7 7 6 6 6 6 6 6 6 6 6 7 8 8 8 7 7 7 7 7 7 6 7 8 8 8
12 12 12 12 11 11 10 9 8 8 8 7 7 7 7 7 7 7 7 7 7 7 8 7 8 8 7 7 8 9 9 8 8 8 8 8 8 8 8 8 8 9
11 11 11 11 10 9 8 8 8 8 8 8 8 7 7 7 7 7 7 7 7 8 9 9 9 9 9 9 10 10 10 10 9 9 9 9 10 10 10 9 9 9
12 11 10 10 10 9 8 8 8 8 8 8 7 7 7 7 7 7 8 8 8 9 10 10 10 11 11 11 12 12 12 12 11 10 10 10 10 11 11 11 10 10
11 9 9 9 9 9 9 10 9 8 8 8 8 7 7 7 7 7 8 9 10 10 11 12 12 12 13 13 14 14 14 14 13 13 12 11 10 11 12 12 12 11
9 9 9 10 10 10 11 11 10 9 9 9 8 8 8 8 9 9 9 10 11 12 13 14 14 15 15 15 16 16 16 16 16 15 14 13 12 11 11 12 13 13
11 11 11 11 11 11 11 11 10 10 10 9 9 10 10 10 11 12 11 11 12 13 14 15 16 17 17 17 17 17 17 17 17 17 17 16 14 13 12 11 12 13
12 12 12 12 11 11 11 11 10 10 10 10 10 11 11 11 12 12 11 11 11 12 14 16 17 18 19 19 19 18 18 18 18 18 19 18 17 16 14 13 11 12
12 11 11 11 11 11 10 10 10 10 10 10 11 11 11 11 11 10 10 11 12 13 14 16 17 19 19 20 20 19 19 18 18 18 19 20 19 18 17 15 14 13
12 12 11 10 10 10 10 10 10 10 10 10 11 10 10 10 10 9 10 12 13 15 15 15 16 17 18 19 19 19 19 18 18 17 19 20 20 20 19 18 16 16
12 11 10 10 9 9 10 10 10 9 10 10 10 10 9 9 9 10 11 11 12 13 14 14 14 15 15 16 17 18 18 18 17 17 17 18 20 21 20 19 18 18
11 10 10 10 10 10 10 10 10 9 9 9 9 9 9 9 10 10 10 10 10 10 11 11 11 11 12 13 14 15 16 16 17 17 17 17 18 20 20 20 19 19
11 11 11 11 11 11 11 10 10 10 10 10 9 9 9 10 10 9 9 9 9 8 8 7 7 8 8 9 10 12 13 15 16 17 17 17 16 17 19 20 20 19
12 12 13 14 13 13 13 12 11 11 11 11 10 10 10 10 9 8 8 7 7 7 6 6 6 6 7 7 8 9 10 11 13 15 17 17 16 16 17 18 19 20
12 13 14 15 15 15 15 14 13 12 12 12 12 11 11 9 8 8 7 6 6 6 6 6 6 6 6 6 7 7 8 8 9 11 12 13 13 12 13 14 15 17
12 14 14 14 15 16 16 16 14 13 12 12 12 12 11 10 9 8 7 6 5 6 6 6 6 7 7 7 7 7 7 7 7 8 9 10 10 10 10 10 11 12
12 13 14 14 15 16 17 17 16 14 13 12 12 12 11 10 9 8 7 6 5 6 6 7 7 7 8 8 8 8 7 7 7 8 8 9 10 10 10 10 11 11
12 12 13 14 15 16 18 19 18 15 14 13 14 13 12 10 9 8 8 7 6 6 7 7 8 9 9 9 10 10 10 9 8 8 8 9 10 10 11 12 12 13
13 13 13 14 15 16 17 18 18 16 15 15 15 14 12 11 11 10 9 7 7 7 8 8 9 10 10 10 11 12 12 11 10 9 9 10 11 11 12 13 13 14
14 15 16 16 17 18 17 17 18 18 17 16 15 14 14 13 13 11 10 8 8 8 9 9 10 11 12 12 13 14 15 14 12 11 11 12 13 14 15 16 17 17
16 16 18 18 18 19 17 17 17 18 17 17 16 16 15 15 14 12 11 11 11 10 9 9 11 12 13 13 14 16 18 19 18 17 16 15 16 17 18 19 20 21
17 17 18 19 19 19 18 17 17 18 18 18 17 17 16 15 15 14 14 13 12 11 11 11 12 14 14 15 16 18 19 20 21 22 22 21 20 21 21 21 21 23
19 18 17 18 19 19 19 18 18 18 18 18 18 18 17 17 17 17 16 15 13 12 12 13 14 15 15 16 17 19 20 20 22 23 24 25 26 26 26 25 24 24
20 19 17 16 17 18 19 19 19 19 19 19 19 19 18 18 18 17 16 15 14 13 13 13 14 16 17 17 18 20 21 22 23 24 25 27 29 31 31 31 29 28
20 19 17 16 17 18 19 19 20 20 20 20 20 20 20 19 18 17 16 15 15 15 15 16 16 18 19 20 21 23 23 24 25 25 26 29 31 32 32 33 32 31

ECMWFNIL_500_spd_048.txt.gz
Wind_Speed
15 15 15 14 13 12 12 12 11 10 9 8 7 6 5 4 3 2 2 2 2 2 2 2 2 3 5 6 6 7 7 7 6 6 7 7 7 6 6 5 5 5
17 16 16 14 13 12 12 13 12 11 10 9 8 7 6 6 5 4 3 3 3 3 3 3 3 4 4 5 5 5 6 6 7 7 8 8 9 9 8 7 6 5
18 18 16 15 14 14 13 13 12 11 10 10 9 9 8 7 6 4 4 4 4 4 4 5 5 5 6 6 6 6 5 6 6 7 7 8 9 10 10 10 9 8
19 19 17 16 15 14 13 13 12 11 10 10 10 9 8 7 6 4 4 4 4 5 5 6 7 7 7 8 8 8 7 7 7 7 7 8 8 9 10 10 11 10
21 20 19 18 16 15 14 14 13 12 12 11 9 8 8 7 6 5 4 4 5 6 6 7 8 9 9 10 10 10 10 9 9 8 7 7 8 8 9 9 10 11
21 20 19 18 17 17 16 16 15 13 12 11 9 9 8 7 6 5 5 5 6 7 8 9 9 10 11 11 11 12 12 11 11 10 9 9 9 9 9 9 9 10
21 20 19 18 17 17 18 17 15 14 13 12 10 9 8 7 6 6 6 7 7 9 10 10 11 11 12 13 13 13 13 13 12 12 11 10 10 10 10 10 10 10
21 20 19 18 17 17 17 16 15 14 13 12 11 10 9 8 8 8 8 8 9 10 11 12 12 13 13 14 14 14 13 13 13 13 12 11 11 11 11 11 11 11
20 20 19 18 18 17 16 15 14 14 13 12 11 10 9 8 8 8 9 9 9 10 11 12 13 14 14 15 15 15 14 14 13 13 13 12 11 11 11 12 12 12
20 20 19 19 18 17 16 14 14 13 12 11 10 9 8 9 9 8 8 9 10 11 12 13 14 14 15 15 16 16 15 14 13 13 13 13 12 11 11 11 12 12
19 19 19 18 18 16 15 14 13 11 11 10 9 9 9 9 9 8 8 9 10 11 12 13 14 14 15 15 15 15 15 14 13 13 12 12 12 11 10 10 10 11
19 18 18 18 18 17 15 14 12 11 10 10 10 10 10 9 9 9 9 10 10 11 12 13 13 13 14 14 14 13 13 12 12 12 12 11 11 11 10 10 10 10
20 20 20 19 18 17 16 14 13 12 11 11 11 11 10 10 10 10 9 9 10 11 11 12 12 12 11 11 11 11 10 10 10 11 11 11 11 10 10 9 10 11
21 21 20 19 17 15 14 13 13 12 12 12 11 11 11 11 11 10 9 9 10 10 10 10 10 10 9 8 8 8 7 7 8 9 10 10 11 10 10 9 9 10
20 19 17 16 14 13 13 12 12 13 13 12 12 12 12 12 11 9 8 8 9 9 9 9 8 7 6 5 4 4 4 4 4 5 6 7 7 8 8 7 7 7
19 17 15 14 13 13 13 13 13 13 13 12 13 13 13 12 11 9 9 9 9 8 8 8 7 6 5 3 3 2 1 1 1 1 2 2 2 2 3 3 3 3
19 17 15 14 13 13 14 14 14 14 14 13 13 13 12 12 11 10 10 9 9 9 8 7 6 5 4 3 3 3 2 1 1 1 3 4 5 4 3 2 1 2
18 18 16 14 13 13 14 15 15 15 15 14 13 12 13 13 12 11 11 10 9 9 8 7 6 5 4 4 4 4 3 2 2 2 3 4 4 5 4 3 2 2
15 15 14 13 12 13 14 14 15 16 15 14 14 14 14 14 13 13 12 10 10 10 9 8 7 6 5 5 5 4 4 3 2 2 2 2 2 2 1 1 2 4
13 13 12 12 13 13 13 14 15 16 17 17 16 16 15 14 14 13 13 12 11 11 10 8 8 7 7 6 5 5 4 3 2 2 1 1 2 3 4 5 6 7
13 13 14 14 15 15 14 14 15 17 18 19 18 17 16 16 16 15 14 13 12 12 11 9 9 8 7 7 7 7 6 6 5 4 4 4 4 5 7 8 9 10
14 14 15 15 15 16 16 15 16 17 19 21 20 19 19 18 17 16 14 13 13 13 11 10 10 9 9 9 10 10 9 7 7 7 6 6 6 8 9 10 11 12
15 15 15 15 16 16 16 16 18 19 20 22 22 21 20 19 18 17 16 16 16 14 12 12 12 11 11 11 12 13 13 11 11 9 9 9 10 11 12 12 14 16
17 16 16 16 16 15 15 17 20 21 22 23 24 23 22 21 20 20 20 19 17 15 14 15 14 13 13 13 14 15 16 16 16 15 14 14 15 16 16 17 18 21
18 18 17 16 16 16 15 17 20 23 24 24 24 24 23 23 23 22 21 19 18 16 16 16 15 15 14 14 15 16 17 17 18 18 17 17 18 19 20 22 24 26
20 20 19 17 17 17 16 16 18 22 25 24 24 24 24 24 24 22 21 20 19 18 17 17 16 16 16 16 17 18 18 19 19 18 18 19 20 21 22 24 26 28

ECMWFNIL_500_spd_051.txt.gz
Wind_Speed
19 18 18 17 16 16 16 17 17 17 16 14 12 11 9 8 7 6 6 5 4 4 3 3 4 4 5 5 6 7 8 9 9 9 9 10 10 10 9 8 6 5
19 19 18 17 16 16 16 18 18 17 17 15 13 11 10 9 8 7 6 5 4 4 3 2 1 1 2 2 3 4 5 6 7 8 9 10 10 10 10 10 9 7
20 20 19 18 17 17 17 18 18 18 17 15 13 12 11 10 9 8 7 6 5 4 3 3 3 2 2 1 1 2 2 3 4 5 6 7 8 9 9 10 10 10
21 21 20 19 19 19 19 19 19 18 17 16 15 14 13 12 10 9 8 7 6 5 4 3 4 4 4 4 4 4 4 4 3 3 4 5 6 6 7 8 8 9
22 22 22 21 20 20 20 20 19 19 18 18 17 16 14 13 11 10 9 8 7 6 5 5 5 5 5 5 5 5 5 5 5 5 4 4 4 4 5 6 6 7
23 23 22 21 20 19 19 20 20 20 20 19 18 16 15 13 12 11 10 9 8 7 6 6 6 7 7 7 6 6 6 6 6 6 6 5 4 4 4 4 4 5
23 23 22 21 20 19 20 21 21 20 20 19 18 16 15 14 12 12 11 9 8 8 7 7 8 8 8 8 8 7 7 7 7 6 6 6 5 5 4 4 3 4
24 24 23 22 20 20 21 21 21 20 19 17 17 16 15 14 13 12 11 10 9 9 8 8 8 9 10 10 9 9 8 7 7 6 5 5 5 5 5 4 4 4
25 25 24 22 21 21 22 21 20 19 18 17 17 16 15 14 13 13 12 11 10 9 9 9 9 10 11 11 11 10 10 9 8 7 5 5 5 5 5 4 4 4
25 25 23 22 21 22 21 21 20 19 18 18 18 16 16 15 14 12 11 10 10 10 10 10 10 11 11 11 12 12 11 11 9 8 6 5 5 5 5 5 5 5
24 23 22 21 22 22 22 21 21 20 20 19 18 17 16 15 14 13 12 12 12 11 11 11 11 12 12 13 13 13 12 11 11 9 8 7 6 6 5 6 6 6
24 23 22 23 23 23 22 21 21 21 20 20 18 17 16 15 14 14 13 14 14 13 12 11 12 12 13 13 13 13 12 12 11 11 9 8 7 7 7 7 7 7
25 25 24 25 24 23 22 21 21 21 20 19 18 17 17 16 15 15 15 16 15 13 12 12 12 12 13 13 12 12 12 11 11 11 10 10 9 9 8 8 8 8
26 26 26 26 25 23 22 21 21 20 20 19 18 18 18 17 17 17 17 16 14 13 12 12 11 11 11 11 10 10 10 11 11 11 11 11 10 10 9 9 9 8
27 27 27 26 25 23 22 22 21 21 20 20 19 19 18 18 18 18 17 15 14 14 13 12 11 10 10 9 9 9 9 10 11 11 11 11 11 10 10 9 9 8
28 28 28 27 26 24 23 23 22 21 21 21 20 20 20 20 19 18 16 16 15 15 13 12 10 9 8 8 8 8 8 9 9 10 11 11 10 9 9 8 7 5
28 28 27 27 26 25 24 23 22 22 22 21 21 20 21 21 19 18 17 17 17 16 14 12 10 9 8 8 8 8 8 8 8 8 9 9 9 8 8 7 5 4
27 27 26 25 25 24 23 23 23 23 22 21 20 20 21 20 19 18 19 19 18 16 14 12 11 10 9 9 9 9 8 8 9 9 10 9 9 8 7 6 5 3
26 26 25 25 24 24 24 24 23 22 21 21 21 21 20 19 19 20 20 19 17 15 14 13 12 11 11 10 10 9 9 10 10 10 11 10 9 8 7 5 3 2
25 25 25 25 24 24 23 22 21 21 22 22 21 20 19 19 20 20 20 19 17 16 15 14 13 13 13 13 12 11 11 11 11 11 11 11 10 8 7 5 4 4
23 23 23 23 22 22 20 19 19 20 21 22 22 21 21 21 21 21 20 19 19 18 17 16 15 15 16 15 14 14 13 12 12 12 11 11 10 9 7 7 6 6
20 20 20 20 19 19 19 18 18 19 21 22 23 23 22 21 21 21 21 20 19 19 18 17 17 17 17 17 17 16 14 12 12 12 11 10 9 9 9 8 8 9
19 19 19 18 18 18 18 18 18 19 20 22 23 24 24 23 22 23 23 21 21 19 18 18 19 19 19 18 18 17 15 13 13 13 12 10 10 10 10 10 11 12
20 20 20 19 18 18 19 19 19 19 21 22 23 25 26 26 26 26 25 24 23 21 20 20 21 21 20 19 19 18 17 16 16 15 13 11 11 12 13 14 14 15
21 21 21 20 20 19 20 21 21 20 21 22 24 25 27 29 29 28 28 27 25 23 22 22 22 22 21 20 19 19 18 18 18 16 13 12 13 14 15 16 16 17
23 23 23 22 21 21 21 22 21 21 22 23 25 27 29 30 31 30 29 28 26 25 24 23 23 22 22 21 20 19 18 18 18 16 13 14 16 17 17 18 18 19

ECMWFNIL_500_spd_054.txt.gz
Wind_Speed
20 19 19 18 16 15 14 14 16 17 16 15 14 13 12 12 12 11 11 10 9 9 9 9 9 9 10 10 10 11 11 11 11 11 11 11 10 10 9 8 6 5
21 20 20 18 15 14 14 15 18 18 17 16 15 14 13 13 12 12 11 10 10 9 8 7 7 7 7 7 7 7 8 8 9 9 9 10 10 9 9 8 7 6
22 22 21 19 16 15 16 17 19 19 19 17 16 15 15 14 13 12 11 10 10 9 8 7 7 6 5 4 4 4 4 4 5 6 6 7 8 8 8 7 7 7
23 23 22 20 18 17 17 18 19 19 19 18 17 16 16 15 13 12 11 11 10 9 9 8 7 6 6 5 4 3 2 2 2 2 3 4 4 5 6 5 5 6
25 25 24 22 20 19 18 19 20 20 20 19 18 17 17 15 14 13 12 11 11 10 9 9 8 7 7 6 5 4 4 3 3 2 2 2 2 2 3 3 3 4
26 26 26 24 22 20 19 20 21 21 21 21 19 18 17 16 14 13 13 12 11 11 10 9 9 8 7 7 6 6 5 4 4 4 4 3 3 3 3 2 2 2
27 26 26 25 22 20 20 21 21 22 22 21 20 19 18 16 14 14 13 12 12 11 11 10 9 9 8 7 7 7 6 6 5 5 5 4 4 5 5 4 4 3
28 27 27 25 23 21 21 21 22 22 22 21 20 19 18 16 15 14 14 13 13 12 11 10 10 10 9 8 8 7 7 7 7 6 6 6 6 6 6 6 6 5
28 28 27 26 24 23 22 22 23 23 23 22 21 20 18 17 16 15 15 14 14 13 12 11 11 11 10 10 9 8 8 8 8 8 7 7 8 8 7 7 7 6
27 27 27 25 24 24 24 24 24 24 23 23 22 20 19 18 17 17 17 15 15 14 13 13 13 12 12 10 9 9 9 9 9 9 9 9 9 9 8 8 7 6
27 27 27 26 25 25 25 26 25 25 24 23 22 21 20 19 19 18 17 16 16 15 14 14 13 13 13 12 11 11 10 10 11 11 11 11 11 10 10 9 8 7
27 27 26 26 26 26 27 27 26 25 24 23 23 23 22 21 20 19 18 17 17 16 15 15 14 14 13 13 12 12 12 12 12 13 13 13 13 12 11 10 9 7
26 26 26 26 27 27 28 28 27 26 25 25 25 24 23 22 21 20 19 18 17 17 16 16 14 14 14 13 13 14 14 14 14 14 14 15 15 14 12 11 10 8
27 27 28 28 29 29 29 29 27 27 26 26 26 25 24 23 22 21 20 19 18 18 17 16 14 14 15 15 15 15 15 15 15 15 15 15 16 15 13 12 11 10
28 29 29 30 30 30 30 29 28 28 27 27 26 25 24 24 23 21 20 19 19 18 17 15 15 15 16 16 16 16 16 16 16 15 15 15 15 14 13 12 12 12
30 30 30 30 30 30 30 29 29 28 27 27 26 26 25 24 22 21 20 20 20 19 17 16 16 16 16 16 16 16 16 15 15 16 16 15 14 13 13 13 13 12
31 31 32 32 31 31 31 30 29 28 27 27 27 26 25 24 22 21 21 21 21 20 19 18 18 17 16 16 16 15 15 15 15 16 15 14 13 13 13 13 12 11
31 32 32 32 32 32 31 30 28 27 26 26 26 25 24 23 22 22 22 22 21 20 19 19 19 17 15 15 15 15 15 15 15 15 14 14 13 13 13 12 11 11
32 32 32 32 32 31 30 29 27 26 25 25 24 24 24 23 22 22 22 21 20 20 20 20 18 17 15 15 15 15 15 15 15 14 14 13 13 13 13 12 12 12
31 31 31 31 31 30 29 27 25 24 24 24 24 23 22 22 22 22 21 20 20 21 21 20 19 17 16 16 16 16 16 15 14 13 13 13 13 14 14 13 12 11
30 30 30 30 29 29 27 26 25 25 25 25 24 23 22 22 22 21 21 21 21 21 21 21 19 18 18 17 17 17 16 15 14 14 14 14 14 15 15 14 13 11
29 29 29 29 28 28 27 26 26 26 26 26 25 24 23 23 22 21 21 22 22 22 21 21 21 20 19 19 19 18 16 15 14 14 15 15 15 15 15 14 13 12
29 29 28 28 28 27 27 26 26 25 25 25 25 24 24 24 23 23 23 23 23 22 22 23 22 22 21 21 21 19 16 15 15 16 16 16 16 16 15 14 13 13
28 28 27 27 26 25 24 24 24 24 24 24 24 24 25 25 25 25 25 24 24 24 25 25 25 24 23 23 22 20 17 17 17 17 18 18 18 18 17 16 15 14
25 25 25 24 23 23 23 23 23 23 23 23 23 24 25 26 27 26 26 26 25 26 27 27 26 26 24 23 23 21 19 20 20 19 19 19 20 20 19 18 17 16
24 24 23 23 23 23 23 24 24 24 24 24 23 23 24 26 27 27 27 28 28 28 28 28 28 27 25 24 24 23 21 22 22 21 21 21 21 21 20 19 18 18

ECMWFNIL_500_spd_057.txt.gz
Wind_Speed
23 21 21 19 16 15 14 15 16 16 15 15 14 13 13 13 14 14 14 14 14 15 14 14 14 14 13 13 12 12 12 11 10 10 9 9 8 8 8 8 8 7
24 23 23 20 17 14 13 14 17 17 16 16 15 14 14 14 15 15 15 15 14 14 14 14 13 13 12 11 11 11 11 10 10 9 8 8 8 8 8 8 7 6
25 25 24 22 19 16 15 16 17 18 18 17 16 15 15 16 16 15 15 15 14 13 13 13 12 11 10 9 9 8 8 8 8 7 6 6 6 7 8 8 7 7
27 27 26 24 22 19 17 17 18 19 19 18 18 17 17 17 17 16 15 15 14 14 13 12 11 10 9 8 7 6 6 5 5 5 4 4 5 5 6 7 7 7
29 29 28 26 24 20 18 18 18 19 20 19 19 19 19 18 18 17 16 16 15 14 13 12 11 10 9 8 7 6 5 5 5 4 4 4 4 4 5 5 6 6
31 30 30 28 25 22 20 19 20 21 21 20 20 20 20 19 18 17 16 15 15 14 13 12 11 11 10 9 8 7 7 6 6 7 7 6 6 6 5 5 5 5
32 31 31 29 26 23 22 21 21 21 22 22 21 21 20 19 18 17 16 16 15 14 13 12 12 11 10 10 9 8 8 8 8 9 9 8 8 8 7 6 6 5
33 33 32 31 28 25 23 23 22 22 22 22 22 22 21 20 19 18 17 17 16 15 14 13 13 12 11 11 10 10 9 9 10 10 10 10 10 9 8 8 8 7
34 34 33 32 29 27 25 24 24 23 23 22 23 23 22 21 20 18 18 18 17 16 15 15 14 13 13 12 11 11 10 11 11 11 11 11 11 10 9 9 10 10
33 34 34 32 30 28 27 26 25 25 24 24 24 24 23 22 20 19 19 19 19 18 17 17 16 15 14 13 12 11 11 12 12 12 12 12 12 11 10 11 11 11
32 33 33 32 31 29 28 28 27 26 25 25 25 25 24 23 21 20 20 21 21 20 19 18 16 16 15 13 12 12 12 12 13 14 14 14 13 12 12 12 13 12
31 32 32 32 31 31 30 29 28 27 27 27 26 26 25 24 22 22 22 23 22 21 19 18 17 16 15 14 13 12 12 13 14 15 16 15 15 14 13 14 14 13
30 30 31 32 32 32 32 31 29 29 28 28 27 27 26 24 24 24 24 24 23 21 20 18 17 16 15 14 14 13 14 14 15 16 17 17 16 15 15 15 15 14
29 30 31 32 34 34 33 32 31 30 30 29 29 28 27 26 25 25 25 25 23 21 20 19 17 16 15 15 15 15 15 16 17 17 17 18 17 16 16 16 15 15
31 31 31 33 34 34 33 32 31 31 31 30 29 28 28 27 27 27 26 25 24 22 20 19 17 16 16 17 17 16 16 17 17 18 18 17 17 16 16 16 16 15
33 33 32 33 33 33 32 32 32 32 32 30 30 29 29 29 28 27 27 26 24 22 21 19 17 17 18 18 18 17 17 17 18 18 18 17 16 16 16 16 17 16
34 33 33 33 33 33 32 32 32 33 32 31 30 30 30 30 28 27 27 26 24 23 21 19 19 19 19 19 18 17 17 17 18 18 18 17 15 15 15 17 17 16
34 33 33 33 34 33 33 32 33 33 32 31 31 30 30 30 28 28 28 26 24 23 21 20 20 20 19 19 18 17 17 18 18 18 18 16 15 14 15 16 16 16
34 33 33 34 34 34 34 33 33 32 32 31 31 31 30 29 28 28 27 25 24 23 21 21 21 20 19 19 18 18 18 18 18 18 17 15 14 13 14 15 15 16
34 33 33 34 35 35 35 34 33 32 32 31 31 30 29 28 27 27 26 24 23 23 22 21 21 21 20 20 19 18 18 18 18 17 16 14 13 13 14 15 15 16
33 32 32 33 35 35 34 34 33 33 31 30 29 28 27 26 26 26 24 24 23 23 21 21 22 22 21 20 20 19 18 18 18 16 15 14 14 14 15 16 16 16
32 31 32 33 34 34 33 33 32 31 29 28 27 26 26 25 25 24 24 23 23 22 21 21 22 23 22 21 21 20 19 18 17 16 15 14 14 15 16 16 17 17
32 31 31 32 32 32 32 31 30 29 28 27 26 25 25 24 24 24 24 24 23 22 21 22 24 24 23 22 23 21 20 19 18 17 16 15 15 16 16 17 18 18
31 30 30 30 30 30 30 30 30 29 28 27 26 26 26 25 26 26 25 24 23 22 22 23 24 25 24 24 24 22 21 20 19 18 17 16 17 17 17 18 19 20
30 29 29 29 29 30 30 30 30 30 29 28 28 28 28 27 27 27 26 25 25 24 24 24 25 26 25 24 24 23 21 21 20 19 18 18 18 18 18 19 20 20
30 29 29 29 29 30 31 31 31 30 30 29 28 28 28 28 28 27 27 27 26 26 26 26 26 27 26 26 25 24 22 21 21 20 19 20 20 20 20 20 21 21

ECMWFNIL_500_spd_060.txt.gz
Wind_Speed
24 22 22 20 19 19 18 18 18 18 18 17 16 14 13 13 12 12 12 12 12 12 12 11 11 10 10 9 9 9 9 8 7 7 6 6 5 5 5 6 6 6
26 25 23 21 19 18 18 18 18 18 18 18 16 15 14 14 13 13 13 13 13 13 13 13 12 12 11 11 10 10 9 8 7 6 5 5 5 4 4 4 4 4
28 26 25 23 21 19 19 19 19 19 19 18 17 16 16 15 15 14 14 15 15 15 14 14 13 13 12 11 10 9 8 7 6 5 4 4 3 3 3 3 2 2
29 28 27 26 24 22 20 20 20 20 20 19 18 18 18 18 17 17 16 17 16 16 15 14 14 13 12 10 9 8 6 5 4 4 3 2 2 2 2 2 1 0
31 30 29 27 25 23 20 20 21 22 21 21 20 20 20 20 19 19 18 18 17 16 15 15 14 13 11 10 8 7 5 4 4 3 3 3 3 2 2 2 2 1
33 32 31 29 26 23 22 22 23 23 23 23 22 22 22 22 21 21 20 19 18 17 16 15 14 13 12 10 9 8 6 6 5 6 5 5 5 5 5 4 4 3
34 34 32 30 28 25 23 23 24 24 24 24 23 23 23 23 22 22 21 20 18 17 16 15 14 14 13 12 10 9 8 7 8 8 8 8 8 8 8 7 7 6
35 35 34 32 30 27 25 24 24 24 25 24 24 24 24 24 23 22 21 20 19 19 18 16 16 15 14 13 11 10 9 9 9 9 9 10 10 10 9 9 9 9
35 35 35 34 32 29 27 25 25 25 25 25 25 25 25 24 24 23 22 21 20 20 19 18 17 16 15 14 13 11 10 10 10 11 10 11 12 11 11 11 11 11
35 35 35 35 33 31 29 27 27 26 26 25 26 25 25 25 25 24 22 22 21 20 20 19 18 18 17 15 14 12 11 11 11 12 12 12 13 13 12 12 13 12
34 34 35 35 34 33 31 30 28 27 26 26 26 26 26 26 25 24 23 22 22 22 21 21 20 19 17 16 14 13 12 12 12 13 13 13 14 13 13 14 14 14
32 33 35 35 35 35 33 32 30 28 28 27 27 27 27 27 26 25 24 24 24 23 23 22 21 19 18 17 15 14 13 13 14 14 14 14 14 14 14 15 15 14
31 32 34 35 36 36 35 33 31 30 29 29 28 28 28 27 27 26 26 25 25 25 24 23 22 20 19 18 16 15 14 14 14 15 15 14 14 14 15 15 16 15
31 32 34 35 36 36 35 34 32 32 31 30 30 29 28 28 28 28 27 27 26 25 25 24 23 21 20 19 17 16 15 15 15 16 16 15 15 15 15 15 16 15
33 33 34 35 36 36 35 35 34 33 32 31 30 30 29 29 29 29 28 27 26 26 26 25 24 22 21 20 18 17 16 16 15 15 16 16 16 15 15 15 16 15
34 34 34 35 35 35 35 35 35 34 33 32 30 30 31 31 30 30 30 29 28 27 27 26 25 24 22 21 19 18 17 16 15 16 16 16 16 15 15 15 16 15
36 35 35 35 35 35 36 36 36 35 34 33 32 31 32 32 32 32 31 31 29 28 28 27 26 25 24 22 20 19 18 17 16 16 16 16 16 15 15 15 14 15
37 37 36 35 35 35 36 36 36 36 35 34 33 32 32 32 32 32 32 32 31 29 28 27 27 26 24 22 20 19 19 18 18 17 16 16 16 15 14 14 14 14
38 37 37 36 35 35 36 37 37 36 35 34 33 33 33 33 32 32 32 32 31 29 28 28 27 26 24 23 21 20 20 19 19 18 16 16 16 15 14 14 14 14
38 37 36 36 36 36 37 37 36 36 35 34 34 34 33 33 32 32 32 31 30 29 29 28 27 26 25 23 21 21 20 20 19 18 17 16 16 15 14 14 14 14
37 37 37 36 36 37 37 37 36 36 35 34 34 34 33 32 32 31 31 31 30 29 29 28 27 26 25 23 22 21 21 20 20 18 17 17 17 16 14 14 14 14
36 36 37 37 36 36 35 35 36 36 35 34 34 34 33 33 31 30 30 30 30 29 28 27 27 26 25 23 22 21 20 20 20 19 18 18 18 17 15 15 14 14
33 34 36 36 36 35 33 33 34 36 36 35 34 34 33 31 30 30 30 30 30 29 28 27 27 26 25 23 23 21 21 20 20 19 19 19 19 18 16 15 14 15
32 33 34 36 35 34 32 32 33 35 35 35 34 33 31 30 30 30 30 30 29 28 27 27 28 27 25 24 23 22 21 21 20 20 20 20 20 18 16 15 15 16
32 32 33 35 34 33 32 32 33 34 34 34 33 32 31 30 30 29 29 29 28 27 27 28 28 27 25 25 24 23 22 22 21 20 20 20 20 18 17 16 16 16
32 32 32 33 34 33 33 32 33 33 33 32 31 31 30 30 29 28 28 28 28 28 28 28 28 27 26 26 25 25 24 23 22 20 20 20 20 19 17 17 17 17

ECMWFNIL_500_spd_063.txt.gz
Wind_Speed
24 21 19 19 20 20 19 18 17 16 15 14 14 13 12 11 11 11 11 11 11 10 9 8 7 7 6 5 4 4 4 3 2 2 1 1 1 1 2 2 2 3
25 23 21 21 20 20 20 19 18 17 16 16 15 14 13 13 12 12 12 11 11 10 9 9 8 7 6 6 5 5 4 4 3 3 2 2 2 2 2 3 2 2
26 24 23 22 21 20 20 20 19 19 18 17 16 15 14 14 14 13 12 12 11 11 10 9 8 8 7 7 7 6 4 4 3 2 2 2 3 3 3 4 4 3
27 25 24 24 22 21 21 20 20 20 19 18 17 17 16 16 15 14 13 13 12 12 11 10 9 8 8 8 7 6 4 3 2 1 1 2 2 3 4 4 5 5
29 27 26 25 23 22 21 20 20 21 20 19 19 19 18 17 17 16 15 14 13 12 11 10 10 9 9 8 7 6 4 2 1 1 2 2 3 4 4 5 6 6
30 28 28 27 25 22 21 20 21 22 22 22 21 20 20 19 19 17 16 15 14 13 12 11 11 10 9 8 7 6 4 3 3 4 4 4 5 5 6 6 7 7
32 30 30 29 26 24 22 21 22 22 23 23 22 21 21 21 20 19 18 17 15 15 14 13 12 11 10 9 8 7 6 5 5 6 6 6 6 6 7 7 8 8
34 33 31 30 28 26 24 23 22 23 23 23 23 23 23 23 22 21 20 18 17 16 15 14 14 13 12 11 10 9 8 7 7 7 7 8 7 8 8 8 8 9
35 34 32 31 30 28 26 25 24 24 24 24 24 24 24 25 24 23 22 20 19 18 17 16 15 15 14 13 12 10 9 9 9 8 8 9 9 9 8 9 9 9
36 35 33 32 31 30 28 27 26 25 25 25 25 25 25 26 25 24 23 22 20 20 19 18 17 16 15 14 13 12 11 11 10 10 10 10 10 9 9 10 10 10
35 35 34 33 33 32 31 29 28 27 27 27 27 26 26 27 26 25 24 23 22 22 21 20 19 18 16 15 14 13 12 12 12 12 12 11 11 10 10 10 10 10
33 33 33 33 33 33 33 31 30 28 28 28 28 27 27 28 28 27 26 25 24 23 22 21 20 19 17 16 15 14 13 13 13 14 13 12 12 11 11 11 11 11
30 30 31 32 33 34 34 33 31 29 29 29 29 28 29 29 29 28 27 27 26 25 23 21 20 19 19 18 16 15 15 15 15 15 14 13 12 11 11 12 12 12
29 29 29 31 32 33 34 34 32 31 30 29 29 29 29 29 29 29 29 28 27 25 23 22 21 20 20 19 18 17 17 17 16 16 16 14 12 11 11 12 13 13
29 29 29 30 32 33 33 34 34 33 32 30 29 29 29 30 30 30 29 29 28 26 24 22 21 21 21 20 20 19 19 18 17 17 16 15 14 12 11 12 13 13
30 30 30 30 31 32 33 33 34 35 33 32 31 30 30 30 30 30 30 30 29 27 25 23 22 23 23 23 22 20 20 19 18 17 17 16 15 13 12 13 14 14
31 31 30 30 31 31 32 33 34 35 35 34 33 32 31 30 30 30 30 30 30 29 27 25 24 24 24 25 24 22 20 19 18 18 17 16 16 15 14 13 14 14
33 32 31 31 31 31 31 32 33 34 34 34 34 33 32 31 31 30 30 31 31 30 29 27 25 25 25 26 25 23 21 20 19 18 17 17 16 16 15 14 14 14
33 33 32 32 32 31 31 32 32 33 33 33 34 34 34 32 31 31 31 31 30 30 30 29 27 26 26 27 27 24 22 20 19 18 18 17 17 16 16 15 14 14
30 32 33 33 32 32 32 32 31 31 32 33 34 34 34 33 33 32 32 31 31 30 30 30 28 27 27 28 27 25 23 21 19 18 18 17 17 17 17 15 15 15
27 29 31 33 33 32 32 31 31 31 31 32 33 34 34 33 34 34 33 32 32 31 30 30 29 28 27 28 28 26 24 21 19 18 18 18 18 18 18 16 15 15
25 27 28 30 31 32 32 32 31 31 31 32 32 33 34 34 35 35 34 33 33 31 30 30 30 28 28 29 29 27 24 21 19 19 19 18 18 19 18 17 16 15
25 26 25 26 28 30 32 32 32 31 31 32 32 33 33 33 34 34 34 34 33 31 30 30 30 29 28 29 28 26 23 21 19 20 20 19 19 19 19 18 16 15
26 26 25 24 24 27 29 31 32 32 31 32 32 33 33 33 33 34 34 33 33 31 30 30 29 28 28 28 27 25 24 21 20 20 21 20 20 20 20 18 17 16
26 26 26 24 23 24 27 29 31 32 32 33 32 32 33 33 33 33 33 32 32 31 30 29 29 28 27 27 26 25 24 22 21 22 22 22 22 22 20 19 17 17
26 27 27 24 23 25 27 28 29 32 33 33 32 32 32 32 32 32 32 32 31 30 29 28 28 28 26 26 26 25 24 24 23 23 23 23 23 23 21 20 18 18

ECMWFNIL_500_spd_066.txt.gz
Wind_Speed
17 15 14 14 15 14 13 13 12 11 11 11 11 11 11 11 11 11 11 10 8 7 6 4 3 2 2 1 1 0 2 4 5 5 6 7 7 8 8 7 7 7
18 16 16 15 15 15 15 14 14 13 12 11 11 12 11 11 11 11 11 9 8 7 5 4 3 2 2 2 1 2 4 5 6 6 7 7 8 8 8 8 8 8
20 18 17 17 17 17 17 16 15 14 13 13 12 12 12 12 11 11 10 9 8 7 6 5 4 3 3 3 3 3 4 5 5 6 6 7 8 8 8 8 8 8
22 20 18 18 18 18 18 17 17 16 15 14 14 14 14 13 12 12 11 10 9 8 7 6 5 4 4 4 4 4 4 4 4 5 5 6 7 7 7 8 8 8
25 23 21 20 19 18 18 17 17 17 17 16 16 16 15 14 14 13 12 11 10 9 8 7 6 6 6 6 5 4 3 3 3 3 4 5 5 6 7 7 7 8
27 24 22 21 20 19 17 17 18 18 18 18 17 17 17 16 15 15 13 12 11 10 9 8 8 7 7 6 6 4 3 2 1 2 3 4 4 5 6 7 7 8
28 26 24 23 22 20 18 18 19 19 19 19 18 18 18 18 17 16 15 14 12 11 11 10 9 9 8 7 6 5 4 3 1 1 3 4 5 5 6 7 7 7
29 28 27 25 23 22 20 19 19 19 20 19 19 19 19 19 19 18 16 15 14 13 13 12 11 10 9 9 8 6 5 4 3 3 3 4 5 6 6 7 7 7
30 29 28 26 25 23 22 21 20 20 20 20 20 20 20 20 20 19 18 16 15 15 14 13 12 12 11 10 9 7 6 6 5 4 4 5 6 6 7 7 7 7
29 30 29 27 26 25 24 23 22 21 21 21 21 21 21 21 21 20 19 17 16 16 15 15 14 13 13 11 10 8 8 7 7 7 6 6 6 7 7 8 8 8
28 29 29 28 27 27 27 26 24 23 22 22 22 22 22 22 22 21 20 19 18 17 17 16 16 15 14 13 11 10 9 9 9 9 8 7 7 7 7 8 9 8
26 27 27 28 28 28 28 28 26 25 23 23 23 23 23 23 23 22 22 21 20 19 19 18 17 16 15 14 13 12 11 11 11 11 10 9 8 8 8 8 9 9
24 24 25 26 27 28 29 29 28 27 25 24 23 24 24 24 24 24 23 23 22 21 21 20 19 17 16 15 14 13 13 13 12 12 11 10 9 9 8 9 9 9
23 23 24 25 26 28 29 29 29 28 27 26 25 24 24 24 24 25 25 24 24 23 22 21 19 17 16 16 16 15 15 14 14 13 13 12 11 10 9 9 10 10
23 23 23 23 25 26 27 28 29 29 28 27 26 25 25 24 25 25 25 25 25 24 22 21 19 18 17 17 17 17 17 16 15 14 14 14 13 12 10 10 11 12
24 22 22 22 22 23 24 26 28 29 29 28 27 27 26 26 25 25 25 25 25 25 24 22 20 19 18 18 19 19 18 18 17 16 15 14 14 13 12 11 12 12
23 22 22 21 21 21 23 24 27 28 29 28 28 28 28 27 26 25 25 25 25 25 25 24 22 21 20 20 20 20 20 19 18 17 16 15 14 14 13 12 12 13
21 22 22 21 21 21 21 23 25 26 27 27 27 28 29 29 27 26 25 25 25 25 25 25 23 23 22 21 21 22 21 20 19 18 17 16 15 14 14 14 13 13
19 21 22 22 21 21 21 22 22 23 24 25 26 27 29 29 29 28 27 26 25 25 25 25 24 23 23 23 23 23 23 22 20 19 18 17 16 15 15 15 15 14
18 19 20 22 22 22 22 21 21 21 22 23 24 25 27 28 29 29 29 28 27 26 25 25 24 23 23 24 25 25 24 23 21 20 19 18 17 16 16 16 16 15
18 18 19 20 21 22 22 22 22 21 22 22 22 23 24 26 28 29 29 29 28 28 27 26 25 23 23 24 25 26 25 24 22 21 20 19 18 18 17 17 17 16
18 18 18 18 19 20 20 21 22 22 22 22 22 22 22 24 25 26 27 28 28 28 28 27 26 25 24 24 26 26 26 24 23 21 21 20 20 19 19 19 18 18
20 18 18 18 17 17 18 19 21 22 22 23 23 23 23 23 24 25 25 26 28 28 28 28 28 27 26 26 27 27 25 24 23 22 22 22 21 20 20 20 20 19
22 21 20 19 18 17 17 18 20 21 22 23 23 23 24 24 25 25 25 25 26 27 28 28 28 28 28 27 28 27 25 23 23 23 22 23 23 22 22 21 21 20
24 23 22 21 19 19 18 18 19 21 22 23 23 23 24 25 26 26 26 25 25 26 27 27 27 27 28 28 28 27 25 24 24 23 23 24 24 24 23 23 22 21
24 24 23 22 20 20 20 20 20 21 22 23 23 24 25 25 26 26 26 25 25 26 26 26 26 26 27 28 28 27 26 25 24 24 24 24 25 25 24 23 22 22

ECMWFNIL_500_spd_069.txt.gz
Wind_Speed
15 14 13 13 12 12 12 11 11 11 10 10 10 10 10 9 9 9 9 8 7 6 5 3 3 3 4 6 7 8 8 9 9 10 11 11 12 12 12 12 12 10
16 15 14 13 13 12 12 12 12 12 12 11 11 11 11 10 10 10 9 8 7 6 4 3 2 3 4 5 7 8 8 9 9 10 11 11 12 12 12 12 12 11
17 16 15 14 14 13 13 14 13 13 13 12 12 12 12 12 11 10 10 8 7 6 4 3 2 3 4 5 7 8 8 8 9 9 10 11 11 12 12 12 12 12
19 17 16 16 15 14 14 14 14 14 14 14 14 14 13 13 12 12 11 9 8 6 5 3 3 3 4 6 7 7 7 7 8 9 9 10 10 11 11 11 11 11
22 19 18 17 16 15 14 14 14 14 15 15 16 15 15 14 14 13 12 11 9 7 6 5 4 4 5 6 6 6 6 7 7 7 8 9 9 10 10 10 10 10
23 21 19 18 17 15 14 14 14 14 15 16 16 17 17 16 16 15 13 12 10 8 7 7 6 6 6 6 6 5 5 6 6 6 7 8 8 9 9 9 9 9
24 23 21 20 18 17 15 15 14 14 15 16 16 17 17 17 17 16 15 13 11 10 9 8 8 7 6 6 6 5 4 5 5 5 5 7 7 8 8 9 8 8
25 25 24 21 20 18 17 16 15 15 15 15 15 16 17 17 17 17 15 14 12 11 10 10 9 8 7 7 6 5 4 4 3 3 4 5 6 7 7 8 8 7
27 26 25 23 21 19 18 17 16 15 15 15 16 16 16 17 17 17 15 14 12 11 11 10 10 9 8 7 6 5 4 3 3 2 2 3 5 6 6 7 7 7
27 26 25 24 22 20 19 18 18 16 15 16 16 17 17 17 17 17 15 14 12 11 11 11 10 10 9 8 6 6 5 4 3 2 0 2 4 5 5 6 6 6
27 26 25 23 22 22 21 21 20 18 17 16 16 17 18 18 18 17 16 15 14 13 12 12 11 11 11 9 8 7 6 5 4 3 2 1 3 4 5 5 6 6
27 25 24 23 23 23 23 23 22 21 19 17 17 17 18 18 18 18 17 17 16 15 14 14 13 13 13 11 9 8 7 7 7 5 4 3 2 3 4 5 5 5
26 25 24 23 23 24 24 24 23 23 21 20 18 18 17 17 18 18 19 18 18 17 16 15 14 14 13 12 11 10 9 9 9 8 7 5 4 3 4 5 6 6
24 24 24 23 23 24 24 24 24 23 23 22 21 19 18 18 18 19 19 19 19 18 17 16 14 13 13 13 12 12 12 11 10 10 9 8 6 5 4 5 6 7
25 24 23 22 21 22 22 23 23 23 24 24 23 21 20 19 20 20 20 20 20 19 18 16 14 14 14 14 14 14 14 13 12 11 10 10 9 7 6 6 6 7
25 24 22 21 19 19 19 20 22 23 23 24 24 23 23 22 22 21 21 20 20 20 19 17 15 15 15 15 15 15 15 15 14 13 12 11 11 10 9 8 7 8
23 23 22 20 18 17 17 17 19 21 22 23 23 24 24 24 24 23 22 22 21 20 19 18 17 17 17 16 16 16 16 16 16 15 13 13 13 12 11 9 8 9
21 22 22 20 18 17 16 16 17 18 19 20 22 23 24 25 25 24 24 24 23 21 20 19 18 18 18 18 17 17 17 16 16 16 15 14 14 14 13 12 10 10
20 21 21 20 19 18 17 15 15 15 16 17 19 21 23 24 24 24 25 25 24 23 21 20 19 19 19 19 18 18 18 17 17 17 17 16 15 15 15 15 13 12
19 19 20 21 20 19 18 16 14 14 14 15 16 18 19 21 22 24 24 25 25 25 23 22 21 20 19 20 20 20 19 19 19 18 18 17 17 17 17 17 16 15
19 19 19 19 20 19 18 17 16 15 15 15 15 15 16 18 20 22 23 24 25 26 26 25 23 22 21 21 21 21 20 20 19 19 19 19 19 19 19 19 18 17
18 18 17 18 18 18 18 18 17 17 17 17 17 16 17 18 19 20 21 23 24 25 26 26 25 24 23 22 23 23 22 20 20 20 20 20 21 21 21 21 20 19
17 17 17 17 17 16 16 16 17 18 19 19 19 19 18 18 19 19 21 22 23 23 24 25 25 26 25 25 25 25 23 21 20 20 20 21 22 22 22 22 22 21
19 18 17 17 16 16 16 16 16 17 18 19 20 20 20 21 21 21 21 21 22 22 22 23 24 25 26 26 26 26 24 23 22 21 20 21 22 23 23 23 23 23
23 22 19 18 17 17 17 16 16 17 18 19 20 21 21 22 22 22 22 22 21 21 22 23 23 24 25 25 25 25 25 24 24 22 21 20 22 23 24 24 23 24
25 24 22 21 20 19 19 18 18 18 18 19 19 21 22 23 23 23 23 22 22 22 22 22 22 22 23 24 24 24 24 24 24 23 22 21 22 24 25 24 24 25

ECMWFNIL_500_spd_072.txt.gz
Wind_Speed
17 16 15 14 15 14 14 13 12 12 11 11 11 11 11 11 11 11 11 10 9 9 8 8 8 9 11 12 13 13 12 11 10 9 8 8 8 8 8 7 7 7
18 17 16 15 14 14 14 14 14 13 12 12 11 11 12 12 12 12 11 10 10 9 8 8 8 9 11 13 13 13 12 11 10 9 9 8 8 7 7 7 7 6
18 17 17 16 15 15 16 16 15 15 14 13 12 12 12 12 12 12 12 11 10 9 8 8 8 10 12 13 13 13 12 11 10 9 9 8 8 7 7 7 7 7
19 18 17 17 17 16 16 16 16 16 15 15 14 13 13 12 12 12 12 11 10 9 8 8 9 10 12 13 13 13 12 11 10 10 9 8 8 7 7 7 7 7
20 19 18 18 17 17 16 16 16 16 16 16 16 15 14 13 13 12 12 11 9 9 8 8 9 10 12 13 12 12 12 11 11 10 10 9 8 8 7 6 6 6
21 20 19 19 18 17 16 16 16 16 16 16 16 16 15 15 14 13 12 11 9 8 7 8 9 10 11 12 12 12 12 11 11 10 10 9 8 8 7 6 5 5
23 22 20 20 19 18 17 17 16 16 16 16 16 16 16 15 15 14 13 11 9 8 7 7 8 9 10 11 12 12 12 11 10 9 9 9 8 8 7 6 5 4
24 24 22 22 20 19 18 17 16 16 16 16 16 16 16 16 15 15 13 11 9 8 7 7 7 8 9 10 11 12 12 11 10 9 8 7 7 7 6 6 5 4
26 25 24 23 21 20 19 18 17 17 17 16 16 16 16 15 15 14 13 11 9 8 7 7 7 8 8 9 9 10 11 11 10 9 8 6 5 5 5 5 4 3
27 26 25 24 22 21 21 20 19 18 17 17 17 17 16 16 15 14 13 11 10 9 8 8 8 8 8 9 9 9 10 10 9 9 7 6 5 4 3 3 3 3
26 26 25 24 24 23 23 22 21 19 18 17 17 17 17 17 16 15 14 13 12 11 10 9 9 10 10 9 9 9 9 9 8 8 7 6 4 3 2 2 1 1
25 25 25 26 26 25 25 25 23 21 20 18 17 17 17 17 17 16 16 15 14 13 12 11 11 11 11 10 9 9 8 8 8 8 7 6 4 3 2 2 1 1
24 25 26 27 28 28 28 27 25 24 22 21 19 18 18 17 16 16 16 16 16 15 14 13 12 12 11 10 9 9 9 9 8 8 8 7 6 5 4 3 3 2
24 26 27 28 29 30 30 29 27 26 25 23 22 20 19 18 17 17 17 17 16 16 15 14 13 12 11 11 10 10 10 10 9 9 9 9 8 8 6 5 5 4
25 26 27 28 30 31 31 30 29 28 27 26 24 22 21 20 19 18 18 17 17 16 16 15 13 13 13 12 12 12 12 12 11 10 9 9 10 9 8 7 6 6
25 27 28 29 29 30 30 31 31 31 30 28 26 25 24 22 21 20 18 18 17 17 16 15 15 15 15 15 15 14 14 13 13 12 12 11 11 11 11 10 9 8
24 27 28 28 28 29 30 31 32 32 31 30 29 28 26 25 24 22 20 20 19 18 17 16 16 16 17 17 17 16 16 15 15 14 14 14 13 13 13 12 11 10
20 23 26 27 28 29 29 30 32 32 32 32 31 30 28 27 26 24 23 23 22 20 19 17 17 18 19 19 18 18 17 17 17 16 16 15 15 15 15 14 14 13
13 15 21 25 27 28 29 30 31 31 31 31 31 31 30 29 28 27 26 25 24 23 21 20 19 19 19 19 19 19 18 18 18 18 17 17 17 17 16 16 16 15
13 13 17 24 28 29 30 30 29 29 30 30 31 31 31 29 28 28 27 26 26 25 25 23 22 21 21 20 20 20 19 19 19 20 19 19 18 18 18 18 18 18
18 16 17 22 27 30 29 28 28 29 29 29 29 29 29 29 29 28 28 27 27 27 27 26 24 24 23 22 21 20 20 20 20 21 21 21 20 20 20 20 20 20
21 20 18 20 25 29 29 27 28 29 29 29 29 28 28 29 29 28 27 27 27 27 27 26 26 26 25 24 23 22 21 20 20 20 21 21 21 22 22 22 22 21
24 23 21 20 23 27 28 29 29 30 30 30 30 28 28 27 27 27 27 27 27 27 27 26 27 27 27 26 26 25 24 22 20 20 21 21 22 23 23 24 24 23
28 27 25 22 23 26 29 31 31 31 31 31 30 29 28 28 28 28 28 28 27 26 26 26 27 27 28 28 28 28 27 25 23 22 21 21 22 22 23 24 25 25
32 31 28 25 24 26 29 32 33 32 32 31 31 30 30 29 29 28 28 27 26 25 25 26 26 27 28 28 29 29 28 27 25 24 23 22 22 22 23 25 26 27
34 33 29 27 25 27 29 31 32 33 32 32 31 31 31 30 29 28 27 26 26 26 25 25 25 26 26 27 28 28 28 27 26 25 24 24 24 24 24 25 27 28

ECMWFNIL_500_spd_075.txt.gz
Wind_Speed
16 15 15 15 15 15 14 13 13 13 13 13 13 12 11 11 11 10 9 9 9 10 10 10 11 11 11 11 11 10 9 8 7 6 6 6 5 5 5 5 6 7
17 16 15 15 15 15 14 14 14 13 13 13 13 12 12 12 11 11 10 10 10 10 10 11 12 12 13 12 12 10 9 8 7 6 6 5 5 4 3 4 6 7
18 17 15 15 15 15 15 15 15 15 14 13 13 12 12 12 12 11 10 10 10 10 11 11 13 14 14 13 12 11 9 8 7 7 6 5 5 4 3 4 5 6
19 18 17 16 16 16 16 16 15 15 15 14 14 14 13 13 12 11 11 11 11 11 11 12 14 15 15 14 13 11 10 9 8 7 7 6 5 5 4 4 4 5
20 19 18 17 17 16 16 16 16 15 16 16 16 15 15 14 14 13 12 12 12 11 11 13 14 15 14 14 13 12 11 10 9 8 7 6 6 5 5 4 4 4
22 21 20 18 17 17 16 16 16 16 16 17 17 16 16 15 15 14 13 12 12 11 11 12 14 15 14 14 14 13 12 11 10 9 8 7 6 5 5 5 4 4
24 22 21 20 18 17 17 17 16 16 17 17 17 17 16 15 15 14 13 13 12 11 11 11 13 14 14 14 14 14 13 12 11 10 8 7 6 5 5 5 4 4
26 25 23 21 20 19 18 18 17 17 17 16 16 17 16 16 15 14 13 13 12 11 11 11 13 14 15 15 15 15 14 13 12 11 9 8 7 5 5 4 4 4
28 27 25 23 21 20 20 19 19 18 18 17 17 17 17 16 16 15 14 13 12 11 11 12 13 15 16 16 16 16 16 14 13 12 10 9 8 6 5 4 4 3
30 29 27 25 23 22 22 21 21 20 19 19 19 18 17 17 16 15 14 13 13 12 12 13 14 15 16 17 18 18 17 16 14 13 11 10 9 8 6 5 4 3
30 30 28 27 25 24 24 23 22 21 20 20 20 19 18 18 17 16 14 14 14 13 13 13 14 15 16 17 18 18 18 17 16 14 12 11 9 8 8 6 5 4
29 29 28 28 28 27 26 26 25 23 21 21 21 21 20 19 18 17 16 15 15 15 14 14 14 15 16 16 17 17 17 17 16 15 13 12 10 9 8 8 7 6
29 28 29 29 29 29 29 28 27 26 24 22 22 22 22 21 20 19 18 18 17 16 16 15 14 14 15 15 15 16 17 17 17 16 15 14 12 10 9 8 8 7
29 29 30 30 30 31 31 31 29 28 27 25 24 23 23 23 22 21 21 20 19 18 18 17 15 14 14 14 15 16 17 17 17 17 17 16 14 12 10 9 8 8
30 31 31 32 32 32 32 32 31 30 29 28 26 25 24 24 24 24 23 21 20 20 19 18 16 15 14 14 15 16 17 18 18 18 18 17 16 14 13 11 10 9
31 32 32 33 33 33 32 33 33 32 31 30 28 27 26 25 25 25 24 22 22 21 20 19 18 17 17 16 17 17 18 19 19 18 18 17 16 16 15 14 13 12
32 32 32 32 32 32 33 33 34 34 33 32 30 29 28 27 26 25 24 23 23 22 21 20 19 19 19 19 19 19 19 19 19 19 19 18 18 17 16 16 16 14
31 31 31 31 31 30 31 32 33 34 34 33 32 31 30 29 27 25 25 24 24 23 22 21 21 21 21 21 21 21 21 21 20 20 20 19 18 18 18 18 18 17
29 29 29 29 29 28 29 30 31 32 32 33 33 33 32 31 29 28 27 26 25 25 24 23 22 23 23 23 23 23 22 22 22 21 21 20 19 19 19 19 19 19
27 26 26 27 28 29 29 29 28 29 30 32 33 34 34 33 32 31 30 29 28 27 26 25 25 24 25 24 24 24 24 23 23 22 22 21 20 20 20 20 21 21
25 24 25 26 28 29 30 29 28 28 30 31 33 34 35 34 34 34 33 32 31 31 30 28 27 27 27 26 25 25 25 24 23 23 23 22 22 22 21 22 22 23
26 25 26 26 28 30 30 30 29 29 30 32 33 34 35 36 36 36 35 35 34 33 32 30 30 30 30 29 27 27 26 24 23 23 23 23 23 23 23 24 24 25
27 27 27 27 28 30 31 31 31 31 32 33 34 34 35 36 36 36 36 36 36 35 34 33 33 33 33 32 30 29 27 25 23 23 23 24 24 25 25 26 26 27
29 29 29 28 27 28 30 32 33 33 34 34 34 35 35 35 36 37 37 37 37 36 35 34 35 36 36 35 33 32 30 27 25 24 23 23 24 26 26 27 27 28
31 30 30 29 28 27 28 32 34 35 36 36 35 35 35 36 37 38 37 37 37 37 36 36 36 37 37 36 35 34 32 30 28 26 25 24 25 26 27 27 28 29
32 32 32 30 29 29 29 32 34 36 37 37 36 36 36 37 37 37 37 37 37 37 37 37 36 37 37 36 35 35 34 32 31 29 27 27 27 28 28 28 29 29

ECMWFNIL_500_spd_078.txt.gz
Wind_Speed
16 16 16 16 16 15 14 14 14 13 13 12 11 11 10 10 10 9 8 8 9 9 10 10 11 11 10 10 9 8 8 8 7 7 7 6 7 7 7 7 7 7
17 17 16 16 15 15 15 15 14 14 13 13 12 11 11 11 10 10 9 9 9 9 10 10 11 11 11 10 10 9 8 8 7 7 6 6 6 6 6 7 8 8
19 18 16 16 16 16 16 15 15 14 14 13 13 13 12 11 11 10 10 10 10 10 10 11 11 12 12 11 10 9 9 8 7 7 6 6 6 6 6 6 7 8
20 19 18 17 17 17 16 16 15 15 15 14 15 14 13 12 12 11 11 11 11 11 11 12 12 13 12 11 10 9 9 8 7 7 7 7 7 7 7 6 6 7
22 21 20 18 18 17 16 16 15 15 15 16 16 15 15 14 13 12 12 12 12 13 12 13 13 13 13 12 11 10 9 9 8 8 7 7 7 7 7 7 6 7
24 22 21 19 18 17 16 17 16 16 16 17 17 16 16 15 14 13 13 13 14 14 13 14 14 14 14 13 12 11 10 10 9 9 8 7 7 7 7 6 6 6
26 25 23 21 19 18 17 17 17 16 16 17 17 17 17 16 15 14 14 14 14 14 14 14 15 15 15 14 13 12 12 11 10 9 8 7 7 6 5 5 5 5
28 27 25 23 21 19 18 18 17 17 17 16 16 17 18 17 16 15 15 15 15 15 14 14 15 16 16 16 15 14 13 12 11 11 10 8 7 6 5 4 4 4
30 29 27 25 22 21 20 19 18 18 17 16 17 18 18 18 18 17 16 16 16 16 15 15 16 17 17 17 17 16 15 14 13 12 11 9 8 7 5 4 4 3
32 31 29 27 25 23 22 22 21 20 19 18 18 18 18 18 18 17 17 17 18 17 16 16 17 18 18 18 19 18 17 16 15 14 12 11 9 8 6 5 4 4
34 32 31 30 29 27 26 26 25 23 22 21 21 20 19 19 19 18 18 18 19 19 19 18 18 19 20 20 20 20 19 18 17 15 14 12 11 9 8 6 5 4
35 34 32 32 31 30 30 29 28 26 25 24 23 22 21 20 19 18 18 19 20 21 20 20 19 20 21 21 21 21 20 19 18 17 16 14 13 12 10 8 6 5
34 34 33 33 33 33 32 31 30 28 27 26 25 24 24 22 21 20 19 20 21 21 21 21 20 20 21 21 21 21 22 21 20 19 18 17 15 14 12 11 9 8
34 34 34 35 35 34 34 32 30 29 28 27 26 25 24 24 23 22 22 21 22 22 22 21 20 20 20 21 21 22 22 22 22 22 20 19 17 16 14 13 12 11
36 36 36 36 36 36 35 33 32 31 30 29 27 25 25 25 25 24 24 23 23 23 23 22 20 20 20 21 21 22 22 23 24 23 23 22 20 18 16 15 13 13
39 39 39 39 38 37 36 35 34 33 32 31 29 27 27 26 26 26 25 24 24 24 23 23 21 21 21 21 22 22 23 24 24 24 24 24 22 21 19 17 16 14
40 41 41 40 40 39 38 37 36 36 34 33 31 30 29 28 27 26 26 26 26 25 24 23 22 22 22 22 22 23 24 24 24 25 25 24 24 23 22 20 19 17
41 42 42 42 41 40 40 39 38 37 36 35 33 32 31 30 28 27 27 27 26 26 24 23 22 23 24 23 23 23 24 24 25 25 25 25 24 24 23 22 21 20
38 40 42 43 42 42 42 41 40 38 37 36 35 34 34 32 30 29 28 27 27 26 25 24 24 24 25 25 24 24 24 24 25 25 25 25 25 25 25 24 23 22
32 34 36 39 41 43 43 43 41 40 38 37 37 36 36 34 33 32 30 29 28 27 26 26 25 25 26 25 25 25 25 25 25 26 25 25 25 25 25 25 24 24
30 30 32 35 39 42 43 43 42 40 39 38 38 38 37 36 36 35 33 32 30 29 28 28 27 27 27 26 26 26 27 27 26 26 25 25 25 25 25 25 25 25
32 32 33 35 37 40 42 42 42 41 40 40 40 40 39 38 37 36 36 35 33 32 31 29 28 29 29 28 28 27 28 27 26 25 25 25 25 26 26 26 26 25
35 35 34 35 36 38 40 41 41 41 42 42 42 41 40 39 39 38 38 37 37 35 34 32 31 32 31 30 30 29 29 28 26 25 25 25 25 26 27 27 27 27
38 36 35 34 35 36 38 40 41 42 43 43 43 42 41 40 39 40 39 39 39 38 36 35 34 34 34 33 32 32 31 29 28 26 25 25 25 26 27 28 28 28
40 38 35 34 33 34 35 38 40 42 43 44 43 42 41 41 40 40 40 39 39 39 38 37 36 36 36 35 35 35 34 32 31 29 27 26 26 26 27 28 29 29
41 40 37 35 33 33 34 36 39 41 42 43 43 42 42 41 41 40 39 39 39 39 39 38 37 37 38 37 37 37 36 35 34 32 30 29 28 28 29 29 30 30

ECMWFNIL_500_spd_081.txt.gz
Wind_Speed
16 17 16 16 16 15 15 15 16 15 14 13 11 9 9 10 10 10 9 8 8 9 9 9 9 10 9 9 8 7 7 7 7 6 6 6 6 6 6 7 7 7
17 17 16 16 15 15 15 15 16 16 15 14 12 11 11 11 11 10 10 9 9 10 10 11 11 10 10 9 8 8 7 7 8 7 6 6 6 6 7 7 8 8
19 18 17 16 16 16 16 15 15 16 15 15 14 14 14 13 12 11 11 10 10 11 11 12 12 11 11 10 9 8 8 8 8 8 7 6 6 6 7 7 8 9
20 20 19 18 18 18 17 16 15 15 16 16 16 16 16 14 13 12 12 11 11 12 12 13 13 12 12 11 10 9 9 9 9 9 8 7 6 7 7 7 8 9
23 22 21 19 19 19 18 17 17 17 17 18 18 18 17 16 15 14 13 12 12 12 13 13 13 13 13 12 11 10 9 9 9 9 9 9 8 7 7 7 8 9
24 24 22 20 20 20 20 19 19 18 18 19 19 19 18 17 16 15 14 13 13 13 13 14 14 14 14 13 12 11 10 10 10 9 9 9 8 8 7 7 7 8
26 26 24 22 21 21 21 21 20 19 19 19 19 19 19 18 17 16 15 14 14 14 14 14 14 14 14 14 13 12 11 11 10 10 9 9 8 8 7 7 7 7
29 28 26 24 22 22 22 22 21 20 20 20 19 19 19 19 18 17 16 15 15 15 15 14 14 15 15 15 14 14 13 12 11 10 10 9 8 8 7 7 7 7
31 29 28 25 24 23 23 23 22 22 21 20 20 20 20 20 19 18 17 16 16 16 16 15 15 16 16 16 16 15 14 13 12 11 11 10 10 9 8 8 7 7
32 31 30 27 26 25 25 24 24 23 22 21 21 21 20 20 20 19 18 18 17 18 18 17 16 16 17 17 17 16 15 14 13 12 12 11 11 10 9 9 8 8
34 33 31 30 29 28 27 27 26 25 24 23 22 22 21 21 20 20 19 19 19 20 20 19 18 18 18 18 18 17 16 15 14 14 13 12 12 11 10 9 9 9
36 34 33 32 32 31 31 30 29 27 26 25 24 24 23 22 21 20 20 20 21 21 22 21 20 19 19 19 19 19 18 17 16 16 15 14 13 12 11 10 9 9
37 36 36 35 35 34 33 32 31 30 29 28 27 26 25 24 23 22 21 22 22 23 23 23 22 21 21 20 20 20 20 19 18 17 16 16 15 13 12 12 11 10
38 38 38 38 38 37 35 34 33 31 30 30 29 28 27 26 25 24 23 23 23 24 24 24 23 22 22 21 21 21 21 21 21 20 19 18 17 15 14 13 12 12
39 40 40 40 40 39 37 35 34 33 32 32 30 29 28 28 27 26 24 24 24 24 24 24 23 23 23 22 22 22 23 23 23 23 22 20 19 17 16 15 14 14
41 41 42 42 41 40 39 38 36 35 34 33 32 31 30 29 29 27 25 24 24 25 25 24 23 23 24 23 23 23 24 24 24 24 24 23 22 20 19 18 17 16
41 42 43 43 42 41 41 40 38 37 36 35 33 32 31 31 30 28 27 26 26 26 25 24 24 24 25 24 24 24 25 25 25 25 26 25 24 23 22 21 20 19
39 41 42 43 43 42 42 41 40 39 38 36 35 34 33 32 31 29 28 28 27 27 26 25 25 26 26 26 25 25 25 26 27 27 27 27 27 26 25 24 23 22
37 38 40 41 42 42 42 42 41 40 39 38 36 36 35 34 32 31 29 29 28 27 27 26 26 27 28 27 27 27 26 26 27 27 27 28 28 28 28 27 27 26
36 36 37 39 40 41 42 42 42 41 40 40 39 38 37 36 34 33 31 30 29 29 28 27 27 28 29 29 29 29 28 27 27 27 28 28 28 29 29 29 29 28
36 36 36 38 40 41 42 43 43 42 41 41 40 40 39 38 37 36 34 33 32 31 30 28 28 29 30 30 30 30 30 29 28 27 27 27 28 29 29 30 30 30
37 35 35 36 38 40 42 43 43 42 42 42 42 41 41 40 39 38 37 36 35 34 32 30 30 30 30 30 31 31 31 29 28 27 27 27 27 28 28 29 29 30
38 35 34 34 36 38 41 42 42 42 42 42 42 42 42 42 41 41 40 39 38 36 34 32 32 32 31 31 31 32 31 29 28 27 27 27 27 27 27 28 28 29
39 37 36 36 36 38 40 41 41 42 41 41 42 43 43 43 43 43 42 41 39 38 36 34 34 34 33 32 32 32 31 30 28 28 27 26 26 26 26 27 28 28
42 40 39 40 39 38 39 39 40 41 40 41 42 43 43 44 44 43 43 42 41 40 38 37 36 36 36 34 34 34 32 31 30 28 26 26 25 26 26 26 27 28
44 43 42 42 42 41 39 39 41 41 41 41 42 42 42 43 43 42 42 41 41 41 40 39 38 38 39 38 37 36 35 33 32 30 28 28 27 27 27 26 27 28

ECMWFNIL_500_spd_087.txt.gz
Wind_Speed
18 19 18 17 16 15 15 15 14 14 13 12 12 11 10 8 8 7 5 4 3 3 2 2 2 2 3 3 3 2 2 2 2 2 2 2 3 3 4 4 6 7
20 20 18 17 17 16 16 15 15 14 14 13 12 12 11 10 8 7 6 5 4 3 2 2 2 2 3 3 2 2 2 2 2 2 2 2 2 3 3 4 5 6
21 20 19 18 18 17 16 16 15 15 15 14 13 13 13 11 10 9 8 6 5 4 3 3 3 3 3 4 3 3 2 2 2 2 2 2 2 2 3 4 5 6
22 22 21 20 19 17 16 16 16 16 15 15 15 15 14 12 11 10 9 8 6 5 4 3 4 4 4 5 4 3 3 3 3 2 1 2 2 1 3 4 5 6
24 24 22 21 19 18 17 17 17 16 16 16 16 16 15 14 12 11 10 9 7 5 4 4 4 5 5 5 5 5 4 3 3 2 2 2 1 1 2 3 4 5
25 25 23 22 20 19 18 18 18 17 17 17 17 17 17 15 14 12 11 10 8 7 6 5 5 5 6 6 6 6 5 4 4 3 3 2 1 2 2 2 2 4
26 26 25 23 21 20 19 19 18 18 18 18 18 18 18 16 15 14 13 11 10 9 8 7 7 7 7 7 7 6 6 5 4 4 4 3 3 3 2 2 2 2
27 26 26 24 22 21 20 19 20 20 20 20 19 20 20 18 17 16 14 13 12 11 10 9 9 8 8 8 7 7 7 6 5 4 4 5 5 4 3 3 2 2
28 27 26 25 23 22 21 21 22 22 22 21 21 22 22 20 19 18 17 16 14 13 12 12 11 10 9 9 8 8 8 7 6 6 5 6 6 6 6 5 4 4
30 28 27 26 25 23 22 22 23 23 23 23 23 24 23 22 21 20 19 18 17 16 15 14 13 12 11 10 9 9 9 8 8 7 7 7 7 7 7 7 6 6
32 30 29 28 27 25 24 24 24 24 25 24 25 25 24 24 23 21 21 20 19 18 17 16 15 14 13 11 10 10 10 10 9 9 9 8 9 9 8 8 8 8
33 32 31 30 29 28 27 25 25 25 26 26 26 26 25 25 24 23 22 22 21 20 19 18 17 16 15 14 12 12 11 11 11 11 11 11 11 10 10 10 9 9
32 33 33 32 31 30 29 28 26 26 26 26 27 27 26 26 25 24 23 23 23 22 21 20 19 18 17 16 15 14 13 13 13 13 13 12 12 12 12 11 10 10
30 32 33 34 33 32 31 30 28 27 27 27 27 27 27 27 26 25 24 24 24 23 22 22 21 21 20 19 18 17 16 16 15 15 14 14 14 14 13 12 12 12
27 29 32 33 34 34 33 32 31 29 28 28 28 27 27 27 27 27 25 25 24 24 24 24 23 23 22 21 21 20 19 18 17 16 16 15 15 15 15 14 13 13
26 27 29 31 33 33 34 34 33 32 30 30 29 28 28 28 27 27 27 26 25 25 25 25 25 25 24 24 24 23 22 21 20 19 18 17 17 17 17 16 16 15
27 26 26 28 31 33 34 35 35 34 33 31 30 29 29 28 27 27 27 27 27 26 26 26 26 26 26 26 26 26 25 24 23 21 20 20 19 19 18 18 18 17
29 28 28 28 29 31 34 36 37 37 35 33 32 31 30 30 29 28 28 27 27 27 26 26 26 26 26 26 27 27 26 26 25 24 23 22 21 20 20 20 20 19
32 31 30 30 30 30 32 35 37 37 36 36 35 34 33 32 30 29 28 28 27 27 26 25 26 26 25 26 28 28 27 27 26 26 25 24 23 22 22 22 21 21
35 35 33 32 32 31 31 33 35 35 35 36 37 36 35 33 32 31 30 29 28 27 26 25 25 25 24 25 27 28 28 28 27 26 26 25 25 24 23 23 23 23
35 37 36 35 35 34 33 32 32 33 34 36 37 37 37 35 35 34 32 31 30 29 27 26 25 25 24 24 26 28 29 29 27 27 26 26 26 25 24 24 24 24
33 35 37 38 37 36 36 35 33 32 33 34 35 37 37 37 37 36 35 34 33 31 30 28 28 27 26 25 26 28 29 28 27 26 26 26 26 26 26 25 25 24
35 34 37 38 37 36 36 37 37 36 34 32 33 35 36 37 38 38 37 36 35 34 32 31 30 30 29 28 28 29 29 28 27 26 26 25 25 26 26 26 25 25
37 36 37 36 34 34 35 36 37 37 36 34 32 32 34 35 37 38 38 38 37 36 35 33 33 32 32 31 31 32 31 30 28 26 25 24 25 26 27 27 27 27
37 39 40 37 34 33 34 35 35 36 38 38 36 32 31 32 33 35 36 37 37 36 36 36 35 35 34 34 34 34 34 33 31 29 26 25 25 26 27 28 28 29
41 42 42 40 38 35 34 35 36 37 39 41 40 35 32 30 30 31 32 34 35 36 37 37 36 36 37 36 36 36 36 36 34 32 29 28 27 27 28 28 29 29

ECMWFNIL_500_spd_090.txt.gz
Wind_Speed
17 17 16 15 14 13 13 13 12 11 10 9 9 8 7 6 4 3 3 4 5 5 5 5 5 5 5 5 6 5 5 5 4 3 4 4 4 5 5 5 5 5
18 18 17 16 15 15 15 14 13 13 12 11 11 10 9 7 5 4 4 4 4 5 5 4 4 4 4 5 5 5 5 5 5 3 3 4 4 4 4 4 5 5
19 19 18 17 17 16 16 15 14 14 13 12 12 12 10 8 7 6 5 4 4 4 5 4 4 4 5 5 5 5 4 5 5 4 3 4 4 3 3 3 3 4
20 20 19 18 17 17 16 16 15 15 14 14 14 13 11 10 8 7 6 5 5 4 4 4 4 4 5 5 5 5 5 5 5 4 4 5 4 3 3 3 2 3
21 21 20 18 17 17 17 17 17 16 15 15 15 14 13 11 10 8 7 6 5 4 4 4 5 5 5 5 5 5 5 5 4 4 5 5 4 4 3 4 3 3
23 22 21 19 17 17 18 18 18 17 16 16 16 16 15 13 11 10 8 7 7 6 5 4 5 6 6 6 5 4 5 5 4 3 4 4 4 4 4 4 4 2
26 24 22 20 19 18 18 18 18 17 17 17 17 17 16 15 13 11 9 8 8 7 6 6 6 6 6 6 5 4 4 4 4 3 3 3 3 4 3 3 4 2
28 26 24 22 20 19 18 18 18 18 18 18 18 18 18 16 15 13 11 10 9 9 8 7 6 6 6 6 5 5 4 4 4 4 3 3 2 3 2 3 3 3
30 28 25 24 22 20 18 18 18 18 19 19 18 19 19 17 16 14 13 12 11 11 10 8 7 7 7 7 6 6 6 5 5 5 5 4 4 3 3 2 2 2
29 29 27 25 24 22 20 19 19 19 19 19 19 19 19 18 17 16 15 14 13 12 11 10 9 8 8 8 7 7 7 7 7 6 6 5 5 5 4 4 3 2
28 29 29 27 25 24 22 20 19 19 19 20 20 20 20 20 19 18 17 16 15 14 13 12 11 10 9 9 9 8 8 8 8 8 7 7 6 6 5 5 5 5
28 29 29 28 26 25 24 22 20 19 20 20 20 20 20 20 20 19 19 18 17 16 15 14 13 12 11 11 10 10 9 9 9 9 8 8 7 7 6 6 6 6
28 29 29 29 28 26 26 24 22 20 20 21 21 21 21 21 21 21 20 20 19 18 17 16 16 15 14 13 12 12 11 10 10 10 10 9 9 8 8 8 8 8
31 31 29 28 28 28 28 26 24 22 21 21 22 22 22 21 21 21 21 21 20 20 19 18 18 17 17 16 15 14 13 13 12 11 11 11 10 10 10 9 9 9
33 34 31 29 28 29 29 28 27 26 24 24 23 23 23 22 22 22 21 21 21 21 20 20 19 19 19 18 17 16 16 15 14 13 13 12 12 12 12 11 11 10
31 34 33 31 30 29 29 29 29 29 29 28 27 25 24 23 22 21 21 21 21 21 21 20 19 19 19 19 19 19 18 17 16 16 15 14 14 14 13 13 13 12
28 31 32 32 31 29 28 28 30 32 32 31 30 28 27 25 23 21 20 20 20 20 20 19 19 19 19 19 20 20 19 19 18 17 17 16 16 16 15 15 15 14
26 27 30 30 30 29 29 29 30 32 32 32 32 31 30 28 25 23 21 20 20 20 20 19 19 18 18 19 20 20 20 20 19 18 18 18 18 17 17 17 16 16
22 25 29 31 29 29 32 31 29 29 30 30 31 31 32 30 28 26 25 23 22 21 20 20 19 18 17 18 19 21 20 20 19 18 18 18 18 19 19 18 18 18
20 22 27 29 27 28 31 31 28 27 28 28 28 28 28 29 30 29 28 26 24 23 22 21 21 20 19 19 20 21 22 21 20 19 18 18 18 19 20 20 20 20
22 22 24 25 25 25 29 30 29 28 30 30 29 27 27 28 29 30 30 29 28 27 25 23 23 22 21 20 21 23 23 23 21 19 19 19 19 20 21 21 22 22
25 24 25 25 25 25 27 29 31 31 32 32 32 31 29 28 28 30 30 31 31 30 28 26 25 25 24 23 23 25 26 25 22 21 21 21 21 22 22 22 23 23
28 27 26 27 28 28 28 28 30 31 33 34 34 33 32 31 31 32 31 31 32 31 31 30 29 29 27 26 26 27 27 26 24 23 22 22 22 23 24 24 24 24
34 32 30 29 29 30 30 30 30 30 32 35 36 34 34 34 34 33 31 30 30 31 32 33 33 32 31 29 29 30 30 29 27 26 24 23 23 24 25 25 26 26
40 38 36 33 32 32 32 32 31 29 29 32 34 34 35 35 34 33 32 31 30 31 33 34 33 33 34 33 32 33 32 32 31 29 26 25 25 25 25 26 26 27
45 43 41 39 36 35 34 34 33 30 28 28 30 32 34 34 34 34 33 32 32 32 33 32 31 33 35 36 35 35 35 35 33 32 30 28 28 27 27 27 27 27

ECMWFNIL_500_spd_093.txt.gz
Wind_Speed
14 14 14 13 12 11 10 9 8 7 7 7 8 10 9 8 7 6 5 5 6 6 6 6 6 5 5 5 5 5 4 4 4 5 6 6 5 6 6 5 6 6
16 15 15 14 13 12 12 11 9 9 8 8 9 10 10 9 8 7 6 6 6 6 6 6 6 5 5 5 5 5 4 4 4 5 6 6 6 6 6 6 6 6
18 16 15 15 14 13 13 12 11 10 9 9 9 10 11 10 9 8 8 7 7 6 6 6 6 6 6 6 6 5 5 5 5 5 5 6 6 6 6 7 6 6
20 18 16 16 15 14 13 13 12 11 11 10 10 11 12 11 10 9 9 8 8 7 6 6 6 6 6 6 6 6 5 5 5 5 5 5 5 6 6 6 7 6
22 20 18 17 15 14 14 14 14 13 12 11 11 12 12 12 11 10 9 8 8 7 6 6 6 6 6 6 6 6 5 5 5 4 5 5 5 5 5 6 6 6
24 21 19 17 16 15 15 15 15 14 13 12 12 12 12 13 12 11 10 9 9 8 7 7 6 6 6 6 6 6 6 5 5 4 5 5 5 5 5 5 6 6
25 23 21 18 16 15 15 15 15 14 14 13 13 13 13 14 13 12 11 10 9 9 8 7 7 7 7 7 7 7 7 6 6 5 5 5 5 6 6 5 5 5
25 24 22 20 18 16 16 16 15 15 14 14 14 14 14 14 14 13 12 11 10 10 9 8 7 8 8 8 8 8 7 7 7 6 5 5 4 4 5 5 6 5
24 25 24 21 19 18 17 17 17 16 15 15 15 15 15 15 15 14 13 12 11 11 10 9 9 9 9 9 9 9 9 8 7 6 6 6 5 4 4 4 4 5
23 26 26 25 22 21 20 19 19 18 17 16 16 16 16 16 16 16 15 13 13 12 12 11 10 9 9 9 9 9 9 8 8 7 7 6 6 5 5 4 4 3
23 25 26 27 26 24 23 21 21 21 20 19 18 17 17 17 17 17 16 15 15 14 13 12 11 10 9 9 9 9 9 9 9 8 8 7 6 6 6 6 6 5
24 25 26 27 27 25 24 22 21 21 20 20 20 19 18 18 18 17 17 17 17 16 15 13 12 11 10 9 9 9 9 9 9 9 9 8 7 7 7 7 7 6
25 25 25 26 26 26 25 23 21 21 21 21 20 19 19 18 18 18 18 18 17 16 16 14 13 12 11 10 10 10 10 10 10 10 9 9 8 7 7 7 7 7
27 27 26 26 26 26 26 25 23 22 21 22 21 20 18 18 18 18 18 18 17 17 16 15 14 13 13 12 11 11 11 11 11 11 10 10 9 9 9 8 8 8
28 29 28 26 24 23 25 25 24 23 22 22 23 22 20 18 18 18 17 17 18 17 17 15 14 14 14 14 13 13 12 12 12 12 11 11 11 10 10 10 9 9
28 29 29 26 23 22 22 24 25 24 23 23 24 23 21 19 18 17 17 17 18 18 17 16 15 15 15 15 14 14 14 13 13 13 12 12 12 11 11 11 11 10
27 27 26 24 22 22 22 23 25 26 26 26 25 24 23 21 20 18 17 17 17 18 18 16 16 16 16 16 16 15 15 15 15 14 14 13 13 13 13 13 12 12
25 25 24 23 23 24 24 24 27 28 29 29 28 27 26 24 22 20 19 17 17 18 18 17 17 17 18 17 17 17 17 17 17 16 16 15 15 15 15 15 14 14
22 23 24 24 24 25 26 27 29 31 31 31 31 30 28 26 24 23 22 20 19 18 18 18 17 18 18 18 19 19 19 19 18 18 17 17 17 17 17 17 17 17
19 22 24 25 25 25 26 27 30 32 32 32 32 31 29 27 26 25 24 23 22 21 21 20 19 19 19 19 20 21 21 20 19 19 19 19 18 18 18 18 19 20
17 19 22 23 24 24 24 25 27 30 32 33 33 31 29 28 27 26 26 26 26 25 24 23 23 23 23 22 21 22 23 22 20 20 20 20 20 20 20 20 21 21
18 18 19 20 21 22 22 23 24 26 29 32 33 32 30 29 29 28 27 27 28 28 28 27 26 27 26 25 24 25 25 25 23 22 21 21 21 21 21 22 23 23
21 21 20 20 21 21 21 21 21 22 24 27 31 31 30 29 29 29 28 28 27 27 29 29 28 29 29 29 28 28 28 27 25 25 24 23 23 23 23 23 24 24
27 26 24 23 23 23 22 22 21 21 21 23 25 27 28 29 30 30 30 30 29 28 29 29 29 29 31 32 32 32 31 30 29 27 26 25 25 25 26 25 25 26
33 31 29 28 27 26 25 25 25 24 24 23 22 23 26 28 29 29 30 31 31 31 30 29 29 30 32 33 35 35 33 33 32 31 29 28 28 29 29 29 28 28
37 35 34 33 31 30 29 29 29 28 28 27 26 25 25 26 26 28 30 32 33 33 31 30 30 32 33 35 36 35 34 34 33 32 31 31 31 32 33 32 31 31

ECMWFNIL_500_spd_096.txt.gz
Wind_Speed
15 15 14 14 13 13 13 12 11 10 10 10 10 10 10 9 8 8 8 8 7 7 7 7 7 7 7 7 7 7 7 7 6 6 6 6 7 7 7 6 6 5
16 16 15 14 14 14 13 13 12 11 11 11 11 11 11 10 9 9 9 9 9 8 7 7 7 7 7 7 6 6 6 6 6 6 6 6 7 7 6 6 6 6
17 16 16 16 15 14 14 13 13 12 12 12 12 12 12 11 10 10 10 9 10 9 8 7 7 7 7 7 7 6 6 6 6 6 6 6 6 7 6 6 6 6
18 17 17 17 16 15 14 14 14 14 13 13 13 13 13 12 12 11 11 10 11 10 9 8 7 7 7 7 7 7 7 6 6 6 6 6 6 6 7 6 7 7
19 19 18 17 16 16 15 15 15 15 15 14 14 14 14 13 13 12 12 12 11 11 10 9 8 8 8 7 7 7 7 6 6 6 6 6 6 6 7 7 7 8
21 21 19 18 17 16 16 16 16 16 15 15 15 15 15 14 14 13 13 13 13 12 11 11 10 9 9 9 8 7 7 6 6 6 6 6 6 6 6 7 8 8
20 21 21 19 18 17 17 17 16 16 16 16 16 16 16 16 15 14 13 13 14 13 12 11 11 11 11 10 9 8 8 7 6 6 6 6 6 6 6 7 8 8
19 21 22 21 19 17 18 18 17 17 17 16 17 17 17 17 16 15 14 14 14 14 13 12 12 12 12 12 11 10 10 9 8 7 7 6 6 6 7 7 7 8
19 21 22 23 22 20 19 18 18 18 17 17 17 16 17 17 17 17 16 15 14 14 14 13 13 13 13 13 13 13 12 11 10 9 9 8 8 8 7 7 7 8
20 20 22 24 25 23 21 19 19 18 18 17 17 16 16 17 17 17 17 16 15 15 15 14 14 14 14 14 14 15 14 13 12 11 11 11 10 10 9 9 8 8
21 20 21 23 25 24 22 20 19 18 17 17 16 16 16 16 16 16 17 17 16 16 15 15 14 14 14 14 14 15 15 15 14 13 13 12 12 12 11 10 10 9
21 21 20 22 24 24 23 22 20 19 19 18 17 16 15 15 15 16 16 16 16 16 16 15 15 14 13 13 14 14 15 16 16 16 15 14 14 13 13 12 12 12
24 24 22 21 23 24 25 24 23 22 22 21 20 19 17 15 15 15 15 16 16 16 16 16 15 15 14 14 14 14 15 16 17 17 17 16 15 15 14 14 14 14
26 26 24 22 23 24 24 25 25 25 25 23 23 22 20 19 17 16 15 16 16 17 17 17 17 16 16 15 15 15 16 16 17 17 18 17 17 16 16 15 15 15
27 28 26 24 23 23 23 25 25 26 26 26 25 23 22 21 20 18 17 16 17 18 18 19 19 19 19 18 17 17 17 17 17 17 18 18 17 17 17 17 17 17
27 28 27 25 24 24 24 24 24 25 26 28 27 25 23 22 22 21 20 19 18 18 19 20 20 21 21 20 20 19 18 18 17 18 18 18 18 18 19 19 18 18
26 27 28 27 26 26 25 24 24 25 26 29 30 28 26 24 23 22 22 21 20 20 19 19 20 22 22 21 21 20 19 19 19 19 19 19 19 20 20 20 20 20
26 27 28 27 27 28 28 28 27 27 27 30 32 31 28 27 26 24 24 23 21 21 20 20 21 22 23 23 22 22 21 21 20 20 20 20 21 21 21 22 21 21
24 27 29 29 28 29 30 31 30 28 28 30 32 32 30 28 27 26 25 24 22 21 21 22 22 24 25 25 25 25 24 23 22 22 22 22 23 23 24 24 23 23
18 22 28 31 30 29 30 30 29 27 28 29 30 30 30 28 28 27 26 25 23 22 22 22 24 25 27 28 28 29 28 26 25 24 24 24 24 25 25 26 26 25
12 15 22 27 28 28 28 27 27 28 28 28 28 28 29 29 28 28 26 25 24 23 23 23 25 27 27 28 29 30 29 28 26 25 25 25 25 26 27 27 27 27
12 13 16 21 24 25 25 26 27 27 27 27 27 27 28 28 28 28 27 26 25 24 24 26 28 29 29 28 28 28 28 27 25 25 24 25 26 26 27 27 28 27
15 14 15 18 20 22 24 26 26 26 25 24 24 25 26 27 29 29 29 28 27 27 27 27 29 31 32 31 30 29 28 27 27 26 25 25 26 27 28 28 28 27
20 18 18 19 18 19 21 22 22 22 21 20 20 21 22 25 28 30 31 30 29 28 29 30 30 31 32 33 32 32 32 31 30 28 27 27 27 28 28 29 29 29
27 25 24 23 22 21 22 22 21 19 18 18 17 17 18 20 23 25 28 30 31 30 30 32 32 32 32 31 31 32 34 34 33 32 31 30 31 31 31 31 31 31
30 29 28 28 26 25 26 27 25 24 22 21 19 18 18 19 19 20 23 26 29 31 31 32 34 34 33 32 32 32 33 35 35 35 34 34 35 34 34 33 32 32

ECMWFNIL_500_spd_102.txt.gz
Wind_Speed
16 15 14 13 13 12 12 11 10 10 9 10 10 10 10 10 10 11 11 11 10 10 9 9 9 8 8 7 7 7 6 6 7 7 8 9 9 9 9 9 9 9
17 16 15 14 14 14 13 12 12 11 10 9 9 9 9 9 10 10 11 11 11 10 10 10 9 8 8 7 7 7 6 6 6 6 7 7 8 8 9 9 9 9
17 17 17 16 16 16 15 13 13 12 12 11 10 10 9 10 10 10 11 12 12 11 11 10 10 9 8 8 7 7 7 7 6 6 6 6 7 7 8 9 9 8
18 18 18 18 18 17 16 15 15 14 14 13 12 11 10 10 10 11 11 12 12 12 12 11 10 10 9 9 8 8 7 7 7 6 6 6 7 7 8 8 8 8
20 20 19 19 19 18 17 17 17 16 16 15 14 13 12 11 11 11 11 12 12 12 12 12 11 11 10 10 9 9 8 8 8 7 7 7 7 7 8 8 8 8
22 21 21 20 19 19 18 18 18 18 17 16 16 15 13 13 12 12 12 12 12 13 13 12 12 11 11 11 10 10 9 9 8 8 8 8 8 8 8 8 8 8
23 23 23 22 21 20 20 20 20 19 18 18 17 16 15 14 14 13 13 13 13 13 13 13 12 12 12 12 11 11 10 10 9 9 9 9 9 8 8 9 9 9
24 25 25 24 23 22 22 22 21 21 20 19 19 18 16 16 15 14 14 14 14 14 14 14 14 13 13 13 13 12 11 11 10 10 10 9 9 9 9 10 10 10
25 25 26 25 24 24 24 23 23 23 22 21 21 20 18 17 16 15 15 15 15 15 15 15 15 14 14 14 14 13 13 12 11 11 10 10 9 9 9 9 10 10
25 25 26 26 26 26 26 25 25 24 24 23 22 21 20 19 18 17 17 16 16 16 16 16 15 15 15 15 15 15 14 13 13 12 11 10 10 9 9 8 9 9
25 25 25 26 28 29 29 28 27 26 25 25 24 23 22 21 20 19 18 18 18 17 16 16 16 16 15 15 16 16 16 16 15 14 13 12 12 11 9 9 9 8
25 25 25 26 27 29 30 30 29 28 27 26 25 24 24 23 22 21 21 20 20 19 18 17 16 16 16 16 16 17 17 17 17 16 16 15 14 13 12 11 11 10
25 24 24 26 27 28 29 31 31 30 29 28 27 27 26 25 25 24 24 23 22 21 20 19 18 17 17 17 17 17 18 18 18 18 18 17 17 16 16 15 14 13
26 26 26 27 29 29 29 30 31 31 30 29 28 27 27 27 27 27 26 25 24 23 22 21 20 20 19 18 18 18 18 18 18 19 19 19 19 18 18 18 17 17
29 31 31 30 31 31 31 31 31 32 32 31 29 28 28 28 28 28 28 26 25 25 24 23 22 22 22 21 20 19 19 19 18 18 18 19 19 19 19 19 19 19
34 35 34 33 33 33 32 32 32 32 33 34 33 31 29 29 29 28 28 27 26 26 25 24 23 23 24 23 23 21 21 20 19 18 18 18 19 19 19 20 20 20
38 38 37 37 36 36 34 33 33 33 34 36 36 34 32 30 29 28 27 27 27 26 25 24 24 24 25 25 24 24 23 22 21 20 19 19 18 19 19 19 20 20
37 40 41 40 39 38 37 35 34 34 34 36 37 36 34 32 30 29 28 28 27 26 25 25 25 25 25 25 25 25 25 24 24 23 22 21 20 19 19 19 19 20
33 38 42 42 40 40 40 38 35 35 35 35 36 37 36 34 33 31 29 29 28 27 26 25 26 26 26 25 25 25 26 25 25 25 25 24 23 22 21 21 21 21
26 30 37 42 42 42 42 39 36 36 36 35 35 36 37 37 35 32 31 31 30 29 27 27 27 27 27 27 26 26 27 26 26 26 26 26 26 25 25 24 24 24
18 21 27 34 39 40 41 41 39 37 36 34 34 35 36 37 36 33 33 33 32 31 29 28 28 29 29 28 28 27 27 27 27 27 27 28 27 27 27 27 27 26
14 14 16 22 27 31 35 39 38 35 34 33 33 33 34 34 34 34 34 33 33 33 32 31 31 31 30 30 29 28 28 27 27 27 28 28 29 29 29 29 29 28
17 15 13 13 15 19 25 29 32 32 33 34 34 34 34 33 33 35 34 34 34 35 34 33 33 32 32 31 31 30 29 27 27 27 28 28 29 30 31 30 31 30
22 20 17 13 11 11 12 16 21 27 32 35 36 35 35 35 36 36 35 34 34 34 34 34 35 34 34 33 33 32 31 29 28 28 28 28 29 30 31 31 31 32
24 25 24 21 18 14 11 11 13 16 23 30 35 37 37 36 36 36 36 36 35 33 33 33 34 35 35 35 34 34 32 31 30 29 29 29 30 30 30 30 31 31
25 26 26 26 24 21 19 19 18 15 15 16 22 28 33 35 37 37 37 37 35 34 33 33 33 35 36 35 35 34 34 32 31 31 30 31 31 31 31 31 31 32

ECMWFNIL_500_spd_105.txt.gz
Wind_Speed
16 15 13 12 12 12 11 10 10 9 9 9 9 10 11 11 11 11 11 11 11 10 10 9 9 9 9 9 8 8 8 9 9 9 10 10 10 10 10 9 9 9
16 16 15 14 13 13 13 12 11 10 10 9 10 10 11 11 11 11 11 11 11 10 10 9 9 8 7 7 8 8 8 8 9 9 10 10 10 10 10 10 10 9
18 17 17 16 15 15 14 13 12 11 11 11 10 9 9 10 10 10 10 10 11 10 10 9 8 8 7 7 7 8 8 8 8 9 9 9 9 10 10 10 10 10
19 19 18 18 17 16 16 15 14 13 12 12 10 9 9 9 9 9 9 10 10 10 10 9 9 8 8 8 7 8 8 8 8 8 9 9 10 10 10 10 10 10
20 20 19 19 18 18 17 17 16 15 14 13 12 11 10 9 9 9 9 9 10 10 10 10 10 9 8 8 8 8 8 8 8 8 8 9 9 9 9 10 10 10
22 21 20 20 19 19 19 18 17 17 15 14 13 13 12 11 10 9 9 9 10 11 11 11 10 10 9 9 8 8 8 8 8 9 9 9 9 9 9 10 10 10
23 23 22 21 21 20 20 20 19 19 18 16 15 15 14 13 12 11 10 10 10 11 12 12 11 11 11 10 9 9 8 8 8 9 9 9 8 9 9 10 10 10
24 24 23 22 22 21 21 21 21 21 19 18 18 17 16 15 14 13 12 11 11 12 12 13 12 12 12 11 11 10 9 9 8 9 9 9 9 8 9 10 10 10
24 24 24 23 23 23 23 23 23 23 22 21 20 19 18 18 16 15 14 14 14 13 14 14 14 14 13 13 12 12 11 10 10 10 9 9 9 8 9 9 10 10
22 23 23 24 24 25 25 25 25 24 24 23 22 21 21 20 19 18 17 17 17 16 16 15 15 15 15 14 14 13 13 12 12 12 11 10 10 9 9 8 9 9
22 23 23 24 25 26 27 27 27 26 26 26 25 24 23 23 21 21 20 20 20 19 18 17 16 16 16 15 15 15 15 14 14 14 13 12 12 11 10 9 8 9
23 23 24 24 25 26 28 29 29 28 28 27 27 26 25 24 23 23 23 22 22 21 20 19 18 18 17 17 17 16 16 16 16 16 15 14 13 12 12 10 9 9
26 26 25 25 26 27 28 30 30 30 30 29 29 28 27 26 25 25 25 24 23 22 22 21 20 19 19 19 19 18 18 18 17 17 17 16 15 14 13 13 12 12
30 30 28 26 27 28 29 30 31 32 32 31 31 30 29 27 27 27 26 26 26 24 24 23 22 21 21 21 21 21 20 19 18 18 18 17 17 16 15 15 14 14
32 33 32 30 29 30 31 31 32 32 32 33 32 31 30 29 29 28 28 28 27 26 25 24 24 24 24 23 23 22 22 21 20 19 18 18 17 17 17 16 16 15
32 33 35 34 33 33 33 33 33 33 32 33 33 33 32 32 31 30 30 30 29 28 27 25 25 25 25 25 24 23 23 22 21 20 19 18 17 17 18 18 17 17
32 33 36 37 37 36 36 35 34 33 32 33 33 34 34 34 33 32 31 31 31 30 28 27 26 26 26 26 26 25 24 23 22 22 20 19 18 18 18 19 19 18
30 31 33 36 39 39 38 36 35 34 34 34 34 35 36 36 36 35 34 33 32 31 30 29 28 28 28 27 26 26 25 25 24 23 22 21 20 19 19 20 20 20
27 27 28 31 36 39 40 39 38 37 37 36 36 36 36 36 37 37 36 35 33 32 32 31 30 29 29 28 27 26 26 26 25 25 24 23 22 21 21 21 22 22
24 24 25 26 30 35 39 41 41 40 39 38 38 37 37 37 38 38 38 37 36 34 33 32 32 31 31 29 28 27 26 26 25 25 25 24 24 24 23 23 24 24
23 22 21 22 24 29 35 39 40 42 42 41 40 39 38 38 38 38 39 39 38 36 35 34 33 33 32 31 29 28 26 25 25 25 25 25 25 25 25 25 25 25
24 21 19 19 18 20 25 31 34 39 43 43 42 40 37 37 38 39 40 40 40 38 37 35 35 34 33 32 31 29 28 26 25 25 25 25 26 26 26 25 25 25
23 21 20 19 17 16 18 20 25 33 40 43 43 41 38 37 38 40 40 40 41 41 40 38 36 35 34 33 32 31 29 28 27 26 26 26 26 27 26 26 25 25
24 23 20 19 18 17 17 16 16 21 30 37 41 41 40 39 39 40 41 42 41 41 41 40 39 37 35 34 33 32 31 30 29 28 28 28 27 27 27 26 26 25
26 25 24 22 21 20 19 17 12 9 11 19 27 34 37 39 39 38 39 40 40 40 40 41 40 39 38 37 35 35 33 32 32 31 30 30 29 28 28 28 27 27
26 26 25 24 22 21 21 21 19 16 12 10 14 19 25 31 35 37 38 37 37 38 40 40 40 39 39 38 37 37 36 35 35 34 33 32 31 31 30 30 30 30

ECMWFNIL_500_spd_108.txt.gz
Wind_Speed
16 14 12 11 10 10 9 7 6 6 6 6 6 6 6 6 7 7 7 8 8 8 7 7 6 6 7 7 7 7 7 7 8 8 8 8 8 8 8 9 9 8
17 16 14 13 13 12 11 9 8 8 7 7 7 7 6 7 7 7 7 7 7 8 8 8 7 7 7 7 7 7 8 8 8 8 8 8 8 9 9 9 9 9
18 17 16 16 15 14 12 11 10 10 9 9 8 7 7 7 7 7 7 7 8 8 8 8 8 8 7 7 7 7 8 7 7 8 8 8 9 9 9 10 10 10
19 18 18 17 17 16 14 13 12 12 11 10 9 9 9 8 8 8 8 8 8 9 9 9 8 8 7 7 7 7 7 7 7 7 8 8 9 9 9 9 9 10
21 20 19 19 18 17 16 15 14 14 13 12 11 11 10 10 9 9 9 9 9 9 9 9 9 8 8 8 7 7 6 7 7 7 8 9 9 9 9 9 9 9
22 21 20 20 19 18 18 17 16 15 14 13 13 13 12 12 11 10 10 9 10 10 10 10 10 9 9 8 8 7 7 7 7 8 8 9 9 9 9 9 9 9
23 22 21 20 20 19 19 18 17 16 16 15 15 14 14 13 13 12 11 11 10 10 10 11 11 10 10 9 8 8 8 8 8 8 8 8 9 9 9 9 9 9
24 23 22 21 21 21 20 19 19 18 17 17 17 16 16 15 15 14 13 12 12 11 11 11 12 11 11 10 9 9 8 8 8 8 8 8 8 8 8 8 9 9
23 23 23 22 22 22 22 21 21 20 19 19 19 18 18 17 17 16 15 15 14 13 12 12 12 12 11 11 10 10 9 9 9 9 8 8 8 8 8 8 8 8
22 22 22 22 23 24 24 24 23 22 22 21 21 20 20 19 18 18 17 17 16 15 14 13 12 12 12 12 12 12 11 11 11 10 10 9 8 8 7 7 7 8
21 21 22 22 23 24 25 25 25 24 24 23 23 22 21 21 20 20 19 18 18 17 16 15 14 14 14 13 13 13 13 13 12 12 11 10 9 8 7 7 7 7
21 21 21 22 22 23 24 25 26 26 26 25 25 24 23 23 22 21 21 20 19 18 17 17 16 16 16 15 15 15 15 14 14 13 13 12 11 10 9 8 8 8
23 22 22 22 22 23 23 24 25 26 27 27 26 26 25 25 24 23 23 22 21 21 20 19 19 18 18 18 17 17 16 16 15 14 14 13 13 12 11 10 10 9
26 25 24 24 23 24 24 24 25 26 27 27 28 28 27 27 26 26 25 24 24 23 22 21 21 21 20 20 19 19 18 18 17 16 15 15 14 14 14 13 13 12
28 28 27 26 25 25 26 26 26 27 27 28 28 29 30 29 29 28 27 26 26 26 25 24 23 23 23 22 21 20 20 19 18 18 17 16 16 16 16 16 16 15
30 30 30 29 28 27 27 28 29 29 29 28 29 30 31 31 31 30 29 28 27 27 26 26 25 25 25 24 23 22 22 21 20 19 18 17 17 17 17 18 18 17
31 30 30 30 29 29 29 30 32 33 33 31 31 31 32 32 32 32 31 30 30 29 28 27 27 27 26 26 25 24 24 23 22 21 20 19 18 18 18 18 19 19
30 30 29 28 28 28 29 31 32 34 35 34 34 33 33 34 34 33 33 33 32 31 29 29 29 28 28 28 27 26 25 24 24 23 22 21 20 20 19 19 19 20
29 30 29 29 28 27 28 30 30 31 34 36 37 36 35 35 35 35 34 34 34 33 32 31 31 30 30 30 29 28 27 26 26 25 25 24 23 22 21 21 20 21
27 28 27 27 26 25 26 28 29 30 31 35 38 39 37 36 36 36 36 35 35 35 35 34 34 32 32 32 31 30 29 28 28 27 27 26 26 25 24 23 23 22
26 26 25 25 23 22 23 25 27 28 29 31 35 39 40 39 38 38 38 37 37 37 37 37 37 36 34 33 32 31 31 30 29 29 28 28 28 28 27 26 25 24
25 25 25 24 22 21 21 21 21 24 27 29 31 35 39 41 41 41 39 39 39 38 38 38 39 37 36 35 33 32 32 32 31 30 30 29 29 29 29 28 27 26
24 24 24 24 24 24 23 22 20 20 22 26 28 32 37 42 43 43 41 40 40 39 38 38 37 37 37 37 35 34 34 34 33 31 31 31 31 31 31 30 29 28
24 24 24 24 25 25 25 24 21 17 17 18 19 23 30 38 43 44 44 43 41 39 39 38 36 36 38 39 38 36 36 35 34 33 32 32 32 32 32 32 31 30
26 26 26 26 26 26 25 24 20 16 14 15 15 16 20 26 34 39 42 44 42 39 39 39 37 38 39 40 40 39 38 36 35 35 34 34 34 33 33 33 33 33
29 29 28 28 28 27 27 27 25 20 17 16 15 14 15 16 19 24 30 35 39 39 38 37 36 35 38 41 41 41 40 38 37 36 36 36 35 35 35 35 35 35

ECMWFNIL_500_spd_111.txt.gz
Wind_Speed
13 12 10 9 9 9 8 7 6 6 6 5 5 6 6 6 7 7 6 6 5 5 5 4 5 5 4 4 4 4 3 4 4 4 4 4 5 5 6 6 5 5
15 13 12 12 11 11 9 8 6 6 6 6 5 5 5 5 6 6 6 5 5 5 5 5 5 5 5 5 5 4 4 4 5 5 5 5 5 6 6 6 6 6
16 15 14 14 12 11 11 9 8 7 7 7 6 6 6 6 5 5 5 5 4 4 4 4 5 5 5 5 5 5 5 5 5 5 6 7 6 6 7 8 8 8
18 17 16 15 14 13 12 11 9 8 8 8 6 6 6 6 6 6 6 5 4 4 4 4 4 4 4 5 5 5 5 5 5 4 6 8 7 6 8 8 9 9
20 18 17 17 16 15 14 12 10 9 9 8 7 7 7 7 7 7 6 6 5 4 4 4 5 5 5 5 6 6 6 5 5 5 7 8 7 6 7 8 9 9
21 19 18 17 17 16 15 13 11 11 11 10 9 9 9 9 9 8 7 7 6 5 5 5 5 6 6 6 6 6 6 6 6 6 6 7 7 7 7 7 8 9
22 21 19 18 18 17 16 15 13 13 13 12 11 11 11 11 10 10 9 8 7 7 6 6 7 7 7 7 7 6 5 6 7 6 6 7 7 7 7 7 7 8
24 22 20 19 18 18 18 17 16 16 15 14 14 13 13 13 12 12 11 10 9 8 8 8 8 8 8 8 7 6 6 6 7 7 7 7 7 7 7 7 7 8
24 23 22 21 20 20 19 19 18 17 17 16 16 15 15 15 14 13 14 13 11 10 10 10 9 9 9 9 8 8 7 7 8 8 7 7 7 6 7 7 7 8
23 22 22 21 22 22 21 21 20 19 19 19 18 18 18 17 16 15 15 15 14 13 13 12 11 11 10 10 10 10 9 9 9 9 8 7 7 6 6 7 7 7
22 22 21 21 21 22 22 23 22 21 20 20 19 19 20 19 18 17 17 17 17 16 15 14 13 13 12 12 12 12 11 11 11 10 9 8 8 7 7 7 7 7
23 22 22 21 21 21 22 22 22 22 21 21 20 20 21 21 20 20 19 19 19 18 17 17 16 16 15 14 14 14 13 13 13 12 11 10 10 9 9 8 8 8
24 23 23 22 22 22 22 21 21 21 21 22 21 22 23 23 22 22 21 21 20 20 20 20 19 18 17 17 16 15 15 15 14 14 13 12 12 11 11 10 10 10
25 24 23 22 22 22 21 21 21 21 21 21 22 23 25 25 25 24 23 22 22 22 22 22 22 21 20 19 19 18 17 16 16 15 14 14 14 13 13 13 12 12
26 26 25 24 23 22 22 22 21 21 22 22 22 24 25 26 26 26 25 24 23 23 24 24 24 24 23 22 21 20 19 18 17 17 17 16 15 15 15 15 15 14
29 28 28 26 25 24 24 23 22 22 22 22 23 24 26 26 26 27 27 27 26 25 26 26 26 26 25 24 24 22 20 19 18 19 18 16 16 17 17 17 17 17
31 31 30 29 27 27 26 26 25 24 23 24 24 25 27 27 28 28 29 29 28 28 28 27 28 29 27 26 26 24 23 22 21 21 20 19 19 20 19 19 19 19
34 34 33 32 30 29 29 29 29 27 27 27 27 28 28 29 29 30 30 30 30 31 30 29 31 32 30 28 28 26 25 24 23 23 23 22 22 22 21 20 20 20
39 37 36 34 33 33 33 32 30 29 29 29 29 29 29 29 29 31 32 32 31 31 32 32 34 35 32 31 30 27 26 26 26 25 25 25 24 23 23 22 22 21
38 40 39 37 38 38 36 33 31 29 29 29 28 27 27 28 29 29 30 32 33 33 33 34 36 35 33 33 33 30 27 27 28 28 27 27 26 25 25 24 23 23
30 36 37 35 35 34 34 32 29 28 28 28 26 25 26 28 30 29 28 30 33 35 36 37 37 35 32 33 35 34 31 30 30 29 29 28 28 27 26 26 26 25
23 27 29 28 27 26 26 26 25 24 25 24 23 23 24 25 27 30 32 32 33 34 37 39 38 35 33 34 36 37 35 33 32 30 29 29 29 28 28 28 28 27
23 24 26 25 24 23 22 21 21 21 23 23 21 20 21 23 25 28 32 34 34 33 35 38 39 38 36 36 38 39 37 35 33 32 30 29 29 29 29 29 30 30
23 24 25 25 24 23 21 21 21 22 22 22 20 18 18 21 25 28 31 34 35 36 35 34 36 39 39 38 39 38 37 35 34 33 32 31 29 29 30 30 31 32
24 24 24 24 24 23 23 22 23 23 23 22 20 19 19 19 21 25 27 29 33 38 40 36 35 38 41 41 39 37 35 35 34 34 33 31 30 30 30 30 30 31
26 26 26 26 25 24 24 23 23 23 24 23 22 21 20 19 19 20 21 22 26 32 38 39 39 40 41 41 39 37 36 36 35 35 33 32 32 32 31 30 30 30

ECMWFNIL_500_spd_114.txt.gz
Wind_Speed
8 7 7 6 6 6 5 4 4 4 4 4 4 4 3 3 3 3 3 3 3 2 2 2 2 1 1 1 1 1 0 1 1 1 1 2 3 3 3 2 3 3
9 9 8 8 7 6 6 5 5 4 3 4 4 4 4 3 3 3 3 4 3 2 2 2 2 1 1 1 2 2 2 1 1 2 2 2 3 4 4 4 4 4
11 10 10 9 8 7 6 7 6 4 4 4 4 4 4 4 3 3 3 3 3 3 3 2 2 2 2 2 2 2 2 3 3 3 3 4 4 4 4 6 6 6
13 12 12 11 10 9 8 8 7 6 6 6 5 5 5 5 4 4 4 3 3 3 3 3 3 3 3 3 3 3 3 3 3 3 4 4 4 4 4 6 7 7
14 13 13 13 12 11 11 10 9 8 8 7 6 6 6 6 5 4 4 4 4 3 3 3 4 4 3 3 3 3 4 4 3 4 4 4 4 4 5 6 7 7
16 14 14 14 13 13 13 12 11 10 9 8 8 7 7 7 6 5 5 5 5 4 4 4 4 4 4 4 3 4 4 4 4 4 4 4 4 4 5 5 6 6
18 16 15 15 14 14 14 14 13 12 11 10 9 9 9 8 7 6 6 6 5 4 4 4 4 5 5 4 4 4 4 4 4 5 4 4 5 5 5 5 5 6
20 19 17 16 16 16 15 15 14 13 13 12 12 11 11 10 9 8 8 7 6 6 5 5 5 5 6 6 5 5 5 5 5 5 5 4 5 5 6 6 6 6
21 21 20 19 18 18 17 16 15 15 15 14 13 13 12 11 11 10 10 9 8 8 7 7 7 7 7 6 7 7 7 7 6 5 5 4 4 5 5 6 6 6
22 22 22 21 20 20 19 19 18 17 17 16 15 14 13 13 12 12 11 11 11 10 9 9 9 9 8 8 8 8 8 8 7 7 6 5 5 5 5 6 6 5
22 22 22 22 21 21 21 21 20 19 18 18 16 15 15 15 14 14 14 14 14 12 11 12 11 11 10 9 10 10 9 10 9 9 9 8 7 7 7 6 6 5
22 22 22 22 22 22 23 22 22 21 20 19 18 17 17 17 16 16 17 16 15 15 14 13 13 13 13 12 12 11 11 11 12 11 11 10 10 9 9 9 8 8
23 23 22 23 22 23 23 23 23 22 21 20 20 19 19 19 18 19 19 18 17 17 16 15 15 15 15 14 14 13 13 13 13 13 13 12 12 11 11 11 10 10
24 24 23 23 23 23 23 23 23 22 22 21 21 21 21 21 20 20 21 20 19 19 18 18 18 17 17 16 16 16 16 16 15 15 15 14 14 13 13 13 13 13
25 25 24 23 24 23 22 23 23 23 22 22 22 22 21 22 22 22 22 21 21 21 20 20 19 19 19 19 18 18 19 18 17 17 17 17 16 16 16 16 15 15
27 26 26 25 25 24 24 23 22 22 22 22 21 21 21 21 21 21 22 22 22 22 22 22 21 21 21 21 20 21 21 20 20 19 19 19 18 18 18 18 18 18
29 28 28 28 27 25 25 24 23 23 22 22 22 22 22 21 20 20 22 24 24 25 25 24 24 24 24 23 23 23 23 22 22 21 22 22 21 20 19 19 19 19
31 31 31 31 29 27 26 25 24 24 23 23 24 23 23 22 22 23 25 25 26 28 28 27 27 27 27 27 27 26 25 24 23 23 23 24 24 23 22 21 21 21
33 33 33 33 31 30 30 28 27 26 25 25 26 25 25 25 25 26 26 27 29 30 31 30 30 29 29 30 30 29 27 26 25 25 25 25 25 25 25 25 24 24
35 35 36 36 34 33 33 31 29 28 28 29 30 29 29 30 30 29 28 29 30 31 32 33 32 31 32 32 31 30 30 28 26 26 26 26 26 27 27 27 27 27
31 34 36 37 36 35 35 34 33 32 32 33 34 33 33 33 32 31 30 31 31 32 33 33 33 34 34 33 32 31 31 30 28 28 28 28 29 29 29 29 28 28
23 26 29 31 32 33 35 37 38 38 38 38 37 37 37 35 33 31 31 31 32 33 33 32 34 35 34 32 32 33 34 34 32 30 30 30 31 31 31 30 28 27
20 21 23 25 27 29 30 32 36 38 39 38 38 39 39 36 32 30 30 30 31 31 30 31 33 35 33 32 33 34 35 37 36 34 33 32 32 32 32 31 30 28
22 21 21 22 24 25 24 24 27 30 31 30 30 30 31 31 29 28 28 29 29 30 29 29 29 31 32 33 35 35 37 38 38 36 35 33 33 33 33 33 32 31
25 24 24 24 24 24 23 23 24 25 24 24 23 23 23 23 24 23 24 26 28 31 34 35 34 32 32 33 34 35 36 36 36 37 37 35 34 34 33 34 35 34
25 25 25 26 26 25 24 24 25 25 24 23 23 23 22 22 22 22 22 23 25 28 32 36 38 36 34 34 34 34 35 35 34 34 36 36 36 35 34 34 34 35

ECMWFNIL_500_spd_117.txt.gz
Wind_Speed
8 7 6 5 5 5 5 5 5 5 5 6 6 6 6 6 6 6 5 4 3 3 3 3 3 3 3 3 4 3 3 3 3 4 3 3 3 3 4 4 4 3
9 8 8 7 5 4 5 5 4 4 5 5 5 5 6 6 6 6 6 5 4 3 3 3 2 2 2 3 3 3 3 2 2 2 1 1 2 1 1 2 2 1
10 9 8 8 7 6 6 6 4 4 5 6 6 6 6 6 6 6 6 5 5 4 3 3 2 2 2 2 2 2 2 2 2 1 1 1 0 0 1 1 1 1
12 11 10 9 8 8 8 7 6 5 5 6 7 7 7 6 6 6 6 5 5 5 4 4 3 2 2 2 2 2 2 2 2 2 2 2 1 2 2 2 3 3
13 13 12 11 10 10 9 9 8 8 7 7 8 7 7 7 7 6 6 6 5 5 5 5 5 4 4 4 3 3 3 2 2 2 2 2 2 2 3 3 3 4
14 14 13 12 12 12 11 11 10 10 9 9 9 8 8 8 7 6 6 6 6 6 6 6 6 6 5 5 5 4 4 3 3 3 2 2 3 3 3 3 3 4
15 15 14 13 13 13 13 12 12 12 12 12 11 10 9 9 8 7 7 7 7 6 6 7 7 7 6 6 6 5 5 4 4 4 3 3 3 4 4 4 4 5
17 16 15 15 14 14 14 14 14 14 14 13 12 12 11 10 9 9 8 8 8 7 7 7 7 7 7 7 7 6 6 5 5 5 4 4 4 4 5 5 5 5
20 19 18 17 16 16 15 15 16 16 15 15 14 14 13 12 11 11 10 10 10 9 8 8 8 8 8 8 8 7 7 7 6 6 5 5 5 5 5 5 5 5
21 21 20 19 18 18 17 17 17 17 16 16 16 16 15 14 14 13 12 12 11 10 9 9 8 8 8 8 9 9 9 8 8 8 7 7 7 6 6 6 5 5
21 21 21 20 20 19 19 18 18 18 18 17 18 18 17 16 16 15 14 14 13 11 10 10 10 10 9 9 10 10 10 10 10 10 9 9 8 8 7 7 7 7
20 21 22 21 20 20 20 20 19 19 19 19 19 19 19 18 18 17 17 15 14 13 12 12 12 12 11 11 11 12 12 12 12 12 11 11 10 10 9 9 9 9
20 21 22 22 21 21 20 20 20 20 20 20 20 21 20 20 19 19 19 17 16 15 15 14 14 14 13 13 13 13 13 13 13 13 13 13 13 12 11 11 11 11
21 22 23 22 21 20 20 20 20 21 21 21 21 22 21 21 21 20 20 18 18 18 17 17 16 16 15 15 15 15 15 15 15 15 16 16 15 15 14 14 13 13
24 23 23 22 21 20 20 20 20 20 20 19 20 21 22 22 22 21 20 19 19 19 18 18 18 17 17 17 17 17 17 17 17 17 17 18 18 17 17 16 16 15
25 24 23 22 22 21 20 21 20 20 20 19 19 21 22 22 22 22 21 21 21 20 20 20 19 17 18 19 18 18 18 19 19 19 19 19 19 19 19 19 18 18
28 26 23 22 22 21 21 21 21 21 21 20 19 20 21 22 22 22 22 22 21 21 22 21 18 18 21 22 21 20 20 21 21 21 21 21 21 21 22 22 21 20
30 27 22 21 23 23 22 22 22 23 23 21 21 21 22 22 22 22 22 22 21 22 22 21 19 21 24 24 23 23 24 24 24 23 23 23 23 24 24 23 23 22
29 26 23 23 26 26 25 24 24 24 24 23 23 23 24 24 23 22 22 23 23 24 24 23 22 23 24 24 25 26 26 27 27 26 26 25 25 25 25 24 24 23
27 27 26 27 28 28 28 28 28 27 26 26 26 26 26 26 25 24 24 24 25 25 25 24 25 25 26 27 27 28 29 29 30 30 29 28 28 28 27 25 25 25
25 27 28 30 31 31 31 30 30 31 30 30 30 30 29 28 28 27 26 26 27 27 27 27 27 28 29 30 30 30 31 32 32 32 31 31 32 31 29 28 27 27
19 21 24 27 30 32 33 33 33 34 34 34 34 33 32 32 32 32 31 30 30 30 30 30 31 33 33 33 32 31 31 34 35 33 32 33 34 34 32 30 30 29
16 17 19 21 23 27 30 32 34 35 36 36 36 36 36 36 36 36 35 35 34 33 32 32 33 35 35 34 33 32 32 34 35 33 32 33 34 35 34 33 32 31
17 17 17 18 19 20 22 24 26 28 30 32 33 34 36 38 39 39 39 38 37 37 37 36 35 34 34 33 33 33 33 32 31 31 32 32 33 34 35 35 34 33
21 21 21 21 21 21 20 20 20 21 23 25 27 29 32 35 38 39 40 40 40 41 41 37 34 32 31 31 31 32 32 30 27 27 29 31 32 33 34 34 35 35
23 24 25 24 24 24 24 23 23 23 24 24 25 25 26 28 29 31 33 34 34 34 33 31 29 28 28 29 30 32 33 32 31 31 31 32 33 33 33 32 32 33

ECMWFNIL_500_spd_120.txt.gz
Wind_Speed
11 11 11 11 10 10 10 10 10 10 10 11 10 10 10 9 9 9 10 9 9 8 8 7 6 5 5 6 6 6 6 6 6 7 7 7 7 7 6 6 5 5
11 11 11 11 10 9 10 9 9 9 10 11 11 11 10 10 10 10 10 9 9 9 9 7 7 6 6 6 6 5 5 6 6 6 6 6 6 6 6 6 5 5
12 12 11 11 10 9 9 9 9 9 10 11 12 12 12 11 11 10 10 10 10 10 10 8 8 7 6 6 6 6 6 6 6 6 6 5 6 6 6 6 6 5
13 12 12 11 11 10 10 9 9 8 9 11 12 11 12 11 10 10 10 10 10 10 10 9 9 8 8 7 7 7 6 6 6 6 5 5 6 6 6 6 6 6
14 13 12 12 12 11 11 11 10 9 9 10 10 11 11 11 11 10 9 9 9 9 9 9 9 8 8 8 8 7 7 6 6 6 5 6 6 6 6 6 6 6
15 15 14 13 13 13 12 12 12 11 11 11 10 11 12 12 11 10 10 10 9 9 9 9 9 8 8 8 8 8 7 7 6 6 6 6 6 6 6 6 6 6
17 17 16 15 15 15 14 14 14 13 13 12 12 12 12 12 12 11 11 11 10 10 9 9 10 9 9 8 8 8 8 7 7 7 7 6 6 6 6 6 6 6
18 18 17 17 17 17 17 16 16 16 15 15 14 13 13 13 13 13 13 12 11 11 10 10 11 10 10 10 9 8 8 8 8 8 7 7 7 7 7 7 7 7
19 19 18 18 18 18 18 18 18 17 17 17 16 15 15 15 15 15 14 14 13 12 11 12 12 12 11 10 10 9 9 8 8 8 8 8 8 8 8 7 7 8
22 21 21 20 20 19 19 19 19 18 18 18 18 18 18 17 17 17 16 15 14 13 13 13 13 12 12 11 11 11 10 10 10 9 9 9 9 9 8 8 8 8
24 23 23 23 23 22 21 21 20 19 19 19 19 19 19 19 19 18 18 17 16 16 15 15 14 13 13 12 12 12 11 11 11 11 10 10 10 10 10 10 10 9
25 25 25 25 25 24 23 23 22 21 20 20 19 19 20 20 20 20 19 19 18 18 17 17 16 15 14 14 13 13 13 12 12 12 12 11 11 11 11 11 11 11
24 24 24 24 25 25 24 24 24 23 22 21 20 20 20 20 21 21 21 21 20 20 19 18 17 16 16 15 14 14 14 13 14 14 14 14 13 13 13 13 12 12
22 22 23 23 23 24 24 24 24 24 23 22 21 21 21 21 21 22 22 22 22 21 20 19 18 17 17 17 16 16 16 16 16 16 16 15 15 15 15 15 14 13
24 24 24 24 23 23 23 23 23 23 23 23 23 23 23 23 23 23 23 23 23 22 21 20 20 19 20 20 19 18 18 18 18 18 18 18 18 17 17 16 15 15
27 28 28 26 25 24 23 23 23 23 24 24 24 24 24 25 24 24 24 24 24 23 22 21 22 22 23 22 21 21 21 20 20 19 19 20 20 19 19 18 17 16
29 30 29 28 26 24 24 23 23 24 24 23 23 23 23 23 24 24 24 24 24 23 23 23 24 24 24 23 23 23 22 22 22 21 21 21 21 21 20 20 19 18
30 31 30 28 27 26 25 24 24 24 24 23 22 22 21 21 22 22 23 22 23 23 23 24 25 25 25 25 25 24 24 24 24 23 22 22 23 23 22 21 21 20
32 33 32 31 30 28 26 25 24 25 25 24 23 22 22 22 22 22 22 22 22 22 23 24 25 25 25 25 25 25 25 25 25 25 24 24 25 25 25 25 24 24
31 33 35 34 33 31 29 28 27 26 26 25 24 23 23 23 23 23 23 22 22 23 23 23 24 24 24 25 25 25 25 26 25 26 26 27 27 26 27 28 28 28
26 29 31 34 35 34 33 31 29 29 28 28 26 24 23 22 23 24 24 23 23 23 23 23 23 24 24 24 25 26 26 27 27 27 28 29 29 28 28 29 31 31
23 24 25 28 31 33 34 32 31 31 32 31 29 26 25 25 27 27 27 26 26 25 25 25 25 25 25 25 25 27 28 29 29 30 31 32 31 31 31 32 33 33
22 23 22 22 24 27 29 30 31 33 34 33 30 28 28 29 30 30 30 30 30 29 28 28 28 28 28 28 28 29 30 30 31 33 35 35 34 33 34 35 34 34
21 20 20 20 20 22 23 24 26 30 32 33 32 32 32 32 32 32 33 34 34 33 33 33 33 32 32 32 32 32 33 34 35 36 38 37 35 34 35 35 34 33
18 18 18 19 20 21 21 22 23 25 28 29 30 30 31 32 32 33 34 35 36 36 36 36 36 36 36 35 35 36 37 37 38 39 39 38 36 34 34 33 31 30
20 20 20 20 21 21 22 23 23 23 24 24 24 24 24 25 27 29 31 32 33 34 35 37 38 38 37 38 39 40 41 41 40 41 40 37 35 34 32 30 28 28

ECMWFNIL_500_spd_123.txt.gz
Wind_Speed
13 13 13 13 12 12 11 11 11 11 11 11 11 10 10 9 9 8 8 8 8 8 8 8 7 6 6 6 6 6 6 6 6 6 6 6 5 5 5 5 5 4
13 13 13 13 13 13 12 11 11 11 11 11 11 10 10 10 10 9 9 9 8 8 8 8 8 8 7 7 6 6 6 6 6 7 7 6 6 6 6 5 5 5
14 14 14 14 13 13 12 11 11 11 10 11 11 11 11 11 11 10 10 10 10 9 9 9 8 8 7 7 7 7 7 7 7 7 7 7 7 7 6 6 6 6
16 15 14 13 13 12 12 11 11 11 11 11 11 12 12 12 12 11 11 11 11 11 11 10 9 8 8 8 8 8 8 7 7 7 7 7 7 7 7 7 7 7
17 16 15 13 13 13 12 12 12 11 11 11 11 12 12 12 12 12 11 11 11 11 11 11 10 9 9 8 8 8 8 8 7 7 7 7 7 8 8 7 7 7
18 17 16 15 14 14 13 13 12 11 11 11 11 11 11 12 13 12 12 11 11 10 10 10 10 9 9 9 8 8 8 8 8 7 7 7 7 8 8 8 7 8
20 19 18 17 16 15 14 13 13 13 12 12 11 11 11 12 12 12 12 11 10 10 10 10 10 9 9 9 9 9 9 8 8 8 8 8 8 8 8 8 8 8
22 21 20 19 18 17 16 15 15 15 14 14 13 13 13 13 13 12 12 12 11 10 10 10 10 10 10 10 10 10 10 9 9 9 9 9 9 9 9 8 8 8
24 24 23 22 21 20 19 18 18 18 17 17 16 15 15 14 14 14 13 13 12 11 11 11 11 11 11 10 10 10 10 10 10 10 9 9 9 9 9 9 9 9
25 25 25 24 24 24 22 22 21 20 20 19 18 18 17 17 16 16 15 14 13 13 13 12 12 12 11 11 10 11 11 11 11 11 10 10 10 10 10 10 9 9
27 27 26 26 26 26 25 24 23 22 22 21 21 20 20 19 19 18 17 16 16 15 14 14 13 13 12 12 12 12 12 12 12 12 11 11 11 11 11 10 10 9
29 28 28 28 28 27 26 25 25 24 24 23 22 22 22 21 21 20 19 19 18 17 17 16 15 15 14 14 13 13 13 13 13 13 13 13 13 12 12 12 11 10
30 30 30 30 30 30 28 27 26 25 25 24 24 24 23 23 22 22 22 21 20 20 19 19 18 17 17 16 16 16 15 15 15 14 14 14 14 13 13 13 13 12
29 30 31 31 31 31 30 28 28 27 26 25 25 25 24 24 24 24 24 23 22 22 22 21 20 20 20 19 19 19 18 17 17 16 16 16 15 14 13 14 14 14
28 28 30 30 31 31 31 30 29 28 28 27 26 26 26 26 26 25 25 25 25 25 24 23 22 23 23 22 22 21 20 19 19 19 19 18 17 16 15 15 15 15
27 27 28 29 30 30 30 30 30 30 29 28 28 29 29 29 28 27 26 27 27 27 26 25 25 25 26 25 24 23 22 21 21 21 20 20 19 18 18 17 17 17
29 29 29 29 29 29 29 29 29 29 30 30 31 31 31 31 31 29 29 29 29 28 28 27 27 27 27 26 25 24 24 23 23 23 22 21 20 20 19 19 19 19
33 32 32 31 30 30 29 27 26 27 28 29 30 31 32 33 32 30 30 30 30 29 29 28 28 28 28 27 26 26 26 25 25 24 23 22 21 21 21 21 20 21
35 34 33 33 33 32 30 27 26 27 27 27 28 29 31 31 30 30 29 29 29 29 29 28 29 29 29 28 28 27 27 27 26 25 24 23 22 22 22 22 22 22
35 34 33 34 34 33 31 29 28 28 28 28 28 29 29 29 29 29 29 29 29 29 29 29 29 29 29 29 28 29 28 28 27 26 25 24 24 23 23 23 24 24
36 34 34 33 32 31 31 30 30 31 30 29 29 29 29 29 28 27 27 28 29 29 29 29 29 29 29 28 28 28 28 28 27 26 25 25 25 24 24 25 26 26
35 35 36 36 34 33 33 32 32 33 32 31 29 29 31 30 28 27 27 28 29 29 29 29 29 28 28 28 28 28 28 27 27 27 26 26 25 25 26 27 28 28
35 35 36 36 36 35 36 35 34 35 35 34 33 32 32 32 31 30 30 30 29 28 28 28 29 28 28 28 28 28 28 27 28 28 28 28 27 26 26 27 28 29
30 31 33 33 32 31 32 34 34 35 37 38 37 35 34 35 34 34 34 33 31 30 30 31 30 30 30 30 29 29 29 30 30 30 30 30 30 29 28 28 30 32
26 28 29 29 28 26 27 29 30 31 33 36 37 36 35 35 36 36 36 35 33 33 34 35 34 34 34 33 33 33 33 33 33 33 33 32 32 32 32 32 33 35
24 24 24 25 26 25 24 25 25 25 26 28 29 30 30 31 33 35 36 36 36 36 36 37 36 36 37 36 36 36 37 36 36 36 35 35 35 35 36 37 37 37